Wetterdaten: Sonntag, 14.10.2018
Datum Zeit Temp. A. Feuchte A. Luftdruck Regen Wind Richtung Richtung Sonnenschein ET UV Solar Taupunkt Windchill Windböen
14.10.2018 00:00 9,3 °C 91 % 1016,1 hPa 0,0 mm 3,0 km/h (1 Bft) W-SW 238 ° 0 min 0,000 mm 0,0 UV-I 0 W/m² 7,9 °C 9,3 °C 4,8 km/h (1 Bft)
14.10.2018 00:01 9,4 °C 91 % 1016,1 hPa 0,0 mm 3,0 km/h (1 Bft) S-SW 201 ° 0 min 0,000 mm 0,0 UV-I 0 W/m² 8,0 °C 9,4 °C 4,8 km/h (1 Bft)
14.10.2018 00:02 9,6 °C 92 % 1016,0 hPa 0,0 mm 2,0 km/h (1 Bft) S-SW 200 ° 0 min 0,000 mm 0,0 UV-I 0 W/m² 8,4 °C 9,6 °C 4,8 km/h (1 Bft)
14.10.2018 00:03 9,5 °C 91 % 1015,9 hPa 0,0 mm 1,5 km/h (1 Bft) S-SW 200 ° 0 min 0,000 mm 0,0 UV-I 0 W/m² 8,1 °C 9,5 °C 3,2 km/h (1 Bft)
14.10.2018 00:04 9,6 °C 91 % 1015,9 hPa 0,0 mm 2,5 km/h (1 Bft) S-SW 200 ° 0 min 0,000 mm 0,0 UV-I 0 W/m² 8,2 °C 9,6 °C 3,2 km/h (1 Bft)
14.10.2018 00:05 9,6 °C 91 % 1015,9 hPa 0,0 mm 0,9 km/h (0 Bft) S-SW 200 ° 0 min 0,000 mm 0,0 UV-I 0 W/m² 8,2 °C 9,6 °C 3,2 km/h (1 Bft)
14.10.2018 00:06 9,6 °C 91 % 1016,1 hPa 0,0 mm 1,3 km/h (1 Bft) S-SW 200 ° 0 min 0,000 mm 0,0 UV-I 0 W/m² 8,2 °C 9,6 °C 4,8 km/h (1 Bft)
14.10.2018 00:07 9,6 °C 91 % 1016,1 hPa 0,0 mm 0,0 km/h (0 Bft) S-SW 200 ° 0 min 0,000 mm 0,0 UV-I 0 W/m² 8,2 °C 9,6 °C 0,0 km/h (0 Bft)
14.10.2018 00:08 9,5 °C 90 % 1016,1 hPa 0,0 mm 0,0 km/h (0 Bft) S-SW 200 ° 0 min 0,000 mm 0,0 UV-I 0 W/m² 7,9 °C 9,5 °C 0,0 km/h (0 Bft)
14.10.2018 00:09 9,4 °C 90 % 1016,1 hPa 0,0 mm 0,0 km/h (0 Bft) S-SW 200 ° 0 min 0,000 mm 0,0 UV-I 0 W/m² 7,8 °C 9,4 °C 0,0 km/h (0 Bft)
14.10.2018 00:10 9,3 °C 90 % 1016,1 hPa 0,0 mm 0,0 km/h (0 Bft) S-SW 200 ° 0 min 0,000 mm 0,0 UV-I 0 W/m² 7,7 °C 9,3 °C 0,0 km/h (0 Bft)
14.10.2018 00:11 9,1 °C 89 % 1016,1 hPa 0,0 mm 0,0 km/h (0 Bft) S-SW 200 ° 0 min 0,000 mm 0,0 UV-I 0 W/m² 7,4 °C 9,1 °C 0,0 km/h (0 Bft)
14.10.2018 00:12 9,0 °C 89 % 1016,1 hPa 0,0 mm 0,0 km/h (0 Bft) S-SW 200 ° 0 min 0,000 mm 0,0 UV-I 0 W/m² 7,3 °C 9,0 °C 0,0 km/h (0 Bft)
14.10.2018 00:13 8,8 °C 90 % 1016,1 hPa 0,0 mm 0,0 km/h (0 Bft) S-SW 200 ° 0 min 0,000 mm 0,0 UV-I 0 W/m² 7,3 °C 8,8 °C 0,0 km/h (0 Bft)
14.10.2018 00:14 8,8 °C 90 % 1016,1 hPa 0,0 mm 0,0 km/h (0 Bft) S-SW 200 ° 0 min 0,000 mm 0,0 UV-I 0 W/m² 7,3 °C 8,8 °C 0,0 km/h (0 Bft)
14.10.2018 00:15 8,8 °C 91 % 1016,1 hPa 0,0 mm 0,3 km/h (0 Bft) S-SW 200 ° 0 min 0,000 mm 0,0 UV-I 0 W/m² 7,4 °C 8,8 °C 1,6 km/h (1 Bft)
14.10.2018 00:16 8,8 °C 91 % 1016,1 hPa 0,0 mm 0,5 km/h (0 Bft) S-SW 200 ° 0 min 0,000 mm 0,0 UV-I 0 W/m² 7,4 °C 8,8 °C 1,6 km/h (1 Bft)
14.10.2018 00:17 8,9 °C 91 % 1016,1 hPa 0,0 mm 0,0 km/h (0 Bft) S-SW 200 ° 0 min 0,000 mm 0,0 UV-I 0 W/m² 7,5 °C 8,9 °C 0,0 km/h (0 Bft)
14.10.2018 00:18 9,0 °C 91 % 1016,1 hPa 0,0 mm 0,8 km/h (0 Bft) S-SW 200 ° 0 min 0,000 mm 0,0 UV-I 0 W/m² 7,6 °C 9,0 °C 1,6 km/h (1 Bft)
14.10.2018 00:19 9,0 °C 91 % 1016,1 hPa 0,0 mm 0,0 km/h (0 Bft) S-SW 200 ° 0 min 0,000 mm 0,0 UV-I 0 W/m² 7,6 °C 9,0 °C 0,0 km/h (0 Bft)
14.10.2018 00:20 8,9 °C 91 % 1016,1 hPa 0,0 mm 0,4 km/h (0 Bft) S-SW 200 ° 0 min 0,000 mm 0,0 UV-I 0 W/m² 7,5 °C 8,9 °C 1,6 km/h (1 Bft)
14.10.2018 00:21 8,8 °C 90 % 1016,1 hPa 0,0 mm 0,0 km/h (0 Bft) S-SW 200 ° 0 min 0,000 mm 0,0 UV-I 0 W/m² 7,3 °C 8,8 °C 0,0 km/h (0 Bft)
14.10.2018 00:22 8,6 °C 90 % 1016,1 hPa 0,0 mm 0,0 km/h (0 Bft) S-SW 200 ° 0 min 0,000 mm 0,0 UV-I 0 W/m² 7,1 °C 8,6 °C 0,0 km/h (0 Bft)
14.10.2018 00:23 8,4 °C 90 % 1016,1 hPa 0,0 mm 0,0 km/h (0 Bft) S-SW 200 ° 0 min 0,000 mm 0,0 UV-I 0 W/m² 6,9 °C 8,4 °C 0,0 km/h (0 Bft)
14.10.2018 00:24 8,2 °C 90 % 1016,1 hPa 0,0 mm 0,0 km/h (0 Bft) S-SW 200 ° 0 min 0,000 mm 0,0 UV-I 0 W/m² 6,7 °C 8,2 °C 0,0 km/h (0 Bft)
14.10.2018 00:25 8,2 °C 90 % 1016,1 hPa 0,0 mm 0,0 km/h (0 Bft) S-SW 200 ° 0 min 0,000 mm 0,0 UV-I 0 W/m² 6,7 °C 8,2 °C 0,0 km/h (0 Bft)
14.10.2018 00:26 8,2 °C 90 % 1016,1 hPa 0,0 mm 0,0 km/h (0 Bft) S-SW 200 ° 0 min 0,000 mm 0,0 UV-I 0 W/m² 6,7 °C 8,2 °C 0,0 km/h (0 Bft)
14.10.2018 00:27 8,1 °C 91 % 1016,1 hPa 0,0 mm 0,0 km/h (0 Bft) N 0 ° 0 min 0,000 mm 0,0 UV-I 0 W/m² 6,7 °C 8,1 °C 0,0 km/h (0 Bft)
14.10.2018 00:28 8,3 °C 91 % 1016,1 hPa 0,0 mm 0,0 km/h (0 Bft) N 0 ° 0 min 0,000 mm 0,0 UV-I 0 W/m² 6,9 °C 8,3 °C 0,0 km/h (0 Bft)
14.10.2018 00:29 8,4 °C 91 % 1016,1 hPa 0,0 mm 0,0 km/h (0 Bft) N 0 ° 0 min 0,000 mm 0,0 UV-I 0 W/m² 7,0 °C 8,4 °C 0,0 km/h (0 Bft)
14.10.2018 00:30 8,6 °C 91 % 1016,0 hPa 0,0 mm 0,0 km/h (0 Bft) N 0 ° 0 min 0,000 mm 0,0 UV-I 0 W/m² 7,2 °C 8,6 °C 0,0 km/h (0 Bft)
14.10.2018 00:31 8,7 °C 91 % 1016,0 hPa 0,0 mm 0,0 km/h (0 Bft) S-SW 202 ° 0 min 0,000 mm 0,0 UV-I 0 W/m² 7,3 °C 8,7 °C 3,2 km/h (1 Bft)
14.10.2018 00:32 8,8 °C 91 % 1016,0 hPa 0,0 mm 0,0 km/h (0 Bft) N 0 ° 0 min 0,000 mm 0,0 UV-I 0 W/m² 7,4 °C 8,8 °C 0,0 km/h (0 Bft)
14.10.2018 00:33 8,8 °C 90 % 1016,0 hPa 0,0 mm 0,0 km/h (0 Bft) S-SW 202 ° 0 min 0,000 mm 0,0 UV-I 0 W/m² 7,3 °C 8,8 °C 1,6 km/h (1 Bft)
14.10.2018 00:35 8,8 °C 90 % 1015,9 hPa 0,0 mm 0,0 km/h (0 Bft) S-SW 200 ° 0 min 0,000 mm 0,0 UV-I 0 W/m² 7,3 °C 8,8 °C 0,0 km/h (0 Bft)
14.10.2018 00:36 8,8 °C 90 % 1016,0 hPa 0,0 mm 0,0 km/h (0 Bft) S-SW 200 ° 0 min 0,000 mm 0,0 UV-I 0 W/m² 7,3 °C 8,8 °C 0,0 km/h (0 Bft)
14.10.2018 00:37 8,7 °C 89 % 1016,0 hPa 0,0 mm 0,0 km/h (0 Bft) N 0 ° 0 min 0,000 mm 0,0 UV-I 0 W/m² 7,0 °C 8,7 °C 0,0 km/h (0 Bft)
14.10.2018 00:38 8,6 °C 89 % 1016,0 hPa 0,0 mm 0,0 km/h (0 Bft) S-SW 202 ° 0 min 0,000 mm 0,0 UV-I 0 W/m² 6,9 °C 8,6 °C 1,6 km/h (1 Bft)
14.10.2018 00:39 8,4 °C 89 % 1016,0 hPa 0,0 mm 0,0 km/h (0 Bft) S-SW 202 ° 0 min 0,000 mm 0,0 UV-I 0 W/m² 6,7 °C 8,4 °C 3,2 km/h (1 Bft)
14.10.2018 00:40 8,4 °C 90 % 1015,9 hPa 0,0 mm 0,0 km/h (0 Bft) N 0 ° 0 min 0,000 mm 0,0 UV-I 0 W/m² 6,9 °C 8,4 °C 0,0 km/h (0 Bft)
14.10.2018 00:41 8,5 °C 90 % 1016,0 hPa 0,0 mm 0,0 km/h (0 Bft) N 0 ° 0 min 0,000 mm 0,0 UV-I 0 W/m² 7,0 °C 8,5 °C 0,0 km/h (0 Bft)
14.10.2018 00:42 8,6 °C 90 % 1016,0 hPa 0,0 mm 0,0 km/h (0 Bft) N 0 ° 0 min 0,000 mm 0,0 UV-I 0 W/m² 7,1 °C 8,6 °C 0,0 km/h (0 Bft)
14.10.2018 00:43 8,6 °C 90 % 1016,0 hPa 0,0 mm 0,0 km/h (0 Bft) N 0 ° 0 min 0,000 mm 0,0 UV-I 0 W/m² 7,1 °C 8,6 °C 0,0 km/h (0 Bft)
14.10.2018 00:45 8,3 °C 89 % 1016,0 hPa 0,0 mm 0,0 km/h (0 Bft) S-SW 200 ° 0 min 0,000 mm 0,0 UV-I 0 W/m² 6,6 °C 8,3 °C 0,0 km/h (0 Bft)
14.10.2018 00:46 8,3 °C 90 % 1016,0 hPa 0,0 mm 0,0 km/h (0 Bft) S-SW 200 ° 0 min 0,000 mm 0,0 UV-I 0 W/m² 6,8 °C 8,3 °C 0,0 km/h (0 Bft)
14.10.2018 00:47 8,2 °C 90 % 1015,9 hPa 0,0 mm 0,0 km/h (0 Bft) S-SW 200 ° 0 min 0,000 mm 0,0 UV-I 0 W/m² 6,7 °C 8,2 °C 0,0 km/h (0 Bft)
14.10.2018 00:48 8,2 °C 90 % 1015,9 hPa 0,0 mm 0,0 km/h (0 Bft) S-SW 200 ° 0 min 0,000 mm 0,0 UV-I 0 W/m² 6,7 °C 8,2 °C 0,0 km/h (0 Bft)
14.10.2018 00:49 8,2 °C 90 % 1015,9 hPa 0,0 mm 0,0 km/h (0 Bft) S-SW 200 ° 0 min 0,000 mm 0,0 UV-I 0 W/m² 6,7 °C 8,2 °C 0,0 km/h (0 Bft)
14.10.2018 00:50 8,2 °C 90 % 1015,9 hPa 0,0 mm 0,0 km/h (0 Bft) S-SW 200 ° 0 min 0,000 mm 0,0 UV-I 0 W/m² 6,7 °C 8,2 °C 0,0 km/h (0 Bft)
14.10.2018 00:51 8,2 °C 90 % 1015,9 hPa 0,0 mm 0,0 km/h (0 Bft) S-SW 200 ° 0 min 0,000 mm 0,0 UV-I 0 W/m² 6,7 °C 8,2 °C 0,0 km/h (0 Bft)
14.10.2018 00:52 8,1 °C 90 % 1015,8 hPa 0,0 mm 0,0 km/h (0 Bft) N 0 ° 0 min 0,000 mm 0,0 UV-I 0 W/m² 6,6 °C 8,1 °C 0,0 km/h (0 Bft)
14.10.2018 00:53 8,1 °C 90 % 1015,8 hPa 0,0 mm 0,0 km/h (0 Bft) N 0 ° 0 min 0,000 mm 0,0 UV-I 0 W/m² 6,6 °C 8,1 °C 0,0 km/h (0 Bft)
14.10.2018 00:54 8,1 °C 91 % 1015,8 hPa 0,0 mm 0,0 km/h (0 Bft) N 0 ° 0 min 0,000 mm 0,0 UV-I 0 W/m² 6,7 °C 8,1 °C 0,0 km/h (0 Bft)
14.10.2018 00:55 8,1 °C 91 % 1015,9 hPa 0,0 mm 0,0 km/h (0 Bft) N 0 ° 0 min 0,000 mm 0,0 UV-I 0 W/m² 6,7 °C 8,1 °C 0,0 km/h (0 Bft)
14.10.2018 00:56 8,0 °C 90 % 1015,9 hPa 0,0 mm 0,0 km/h (0 Bft) N 0 ° 0 min 0,000 mm 0,0 UV-I 0 W/m² 6,5 °C 8,0 °C 0,0 km/h (0 Bft)
14.10.2018 00:57 7,8 °C 90 % 1015,9 hPa 0,0 mm 0,0 km/h (0 Bft) N 0 ° 0 min 0,000 mm 0,0 UV-I 0 W/m² 6,3 °C 7,8 °C 0,0 km/h (0 Bft)
14.10.2018 00:58 7,8 °C 90 % 1015,9 hPa 0,0 mm 0,0 km/h (0 Bft) N 0 ° 0 min 0,000 mm 0,0 UV-I 0 W/m² 6,3 °C 7,8 °C 0,0 km/h (0 Bft)
14.10.2018 01:00 7,8 °C 91 % 1015,9 hPa 0,0 mm 0,0 km/h (0 Bft) S-SW 200 ° 0 min 0,000 mm 0,0 UV-I 0 W/m² 6,4 °C 7,8 °C 0,0 km/h (0 Bft)
14.10.2018 01:01 7,9 °C 91 % 1015,9 hPa 0,0 mm 0,0 km/h (0 Bft) S-SW 200 ° 0 min 0,000 mm 0,0 UV-I 0 W/m² 6,5 °C 7,9 °C 0,0 km/h (0 Bft)
14.10.2018 01:02 7,9 °C 91 % 1015,9 hPa 0,0 mm 0,0 km/h (0 Bft) S-SW 200 ° 0 min 0,000 mm 0,0 UV-I 0 W/m² 6,5 °C 7,9 °C 0,0 km/h (0 Bft)
14.10.2018 01:03 7,9 °C 91 % 1015,9 hPa 0,0 mm 0,0 km/h (0 Bft) S-SW 200 ° 0 min 0,000 mm 0,0 UV-I 0 W/m² 6,5 °C 7,9 °C 0,0 km/h (0 Bft)
14.10.2018 01:04 7,9 °C 91 % 1015,8 hPa 0,0 mm 0,0 km/h (0 Bft) S-SW 200 ° 0 min 0,000 mm 0,0 UV-I 0 W/m² 6,5 °C 7,9 °C 0,0 km/h (0 Bft)
14.10.2018 01:05 7,8 °C 91 % 1015,8 hPa 0,0 mm 0,0 km/h (0 Bft) S-SW 200 ° 0 min 0,000 mm 0,0 UV-I 0 W/m² 6,4 °C 7,8 °C 0,0 km/h (0 Bft)
14.10.2018 01:06 7,8 °C 91 % 1015,9 hPa 0,0 mm 0,0 km/h (0 Bft) S-SW 200 ° 0 min 0,000 mm 0,0 UV-I 0 W/m² 6,4 °C 7,8 °C 0,0 km/h (0 Bft)
14.10.2018 01:07 7,8 °C 91 % 1015,9 hPa 0,0 mm 2,0 km/h (1 Bft) S-SW 200 ° 0 min 0,000 mm 0,0 UV-I 0 W/m² 6,4 °C 7,8 °C 3,2 km/h (1 Bft)
14.10.2018 01:08 7,7 °C 91 % 1015,9 hPa 0,0 mm 0,1 km/h (0 Bft) S-SW 200 ° 0 min 0,000 mm 0,0 UV-I 0 W/m² 6,3 °C 7,7 °C 1,6 km/h (1 Bft)
14.10.2018 01:09 7,6 °C 91 % 1015,9 hPa 0,0 mm 0,0 km/h (0 Bft) S-SW 200 ° 0 min 0,000 mm 0,0 UV-I 0 W/m² 6,2 °C 7,6 °C 0,0 km/h (0 Bft)
14.10.2018 01:10 7,7 °C 91 % 1015,9 hPa 0,0 mm 2,1 km/h (1 Bft) S-SW 199 ° 0 min 0,000 mm 0,0 UV-I 0 W/m² 6,3 °C 7,7 °C 3,2 km/h (1 Bft)
14.10.2018 01:11 7,7 °C 91 % 1015,9 hPa 0,0 mm 2,1 km/h (1 Bft) S-SW 199 ° 0 min 0,000 mm 0,0 UV-I 0 W/m² 6,3 °C 7,7 °C 3,2 km/h (1 Bft)
14.10.2018 01:12 7,7 °C 91 % 1015,9 hPa 0,0 mm 1,0 km/h (0 Bft) S-SW 199 ° 0 min 0,000 mm 0,0 UV-I 0 W/m² 6,3 °C 7,7 °C 3,2 km/h (1 Bft)
14.10.2018 01:13 7,7 °C 91 % 1015,9 hPa 0,0 mm 0,0 km/h (0 Bft) S-SW 199 ° 0 min 0,000 mm 0,0 UV-I 0 W/m² 6,3 °C 7,7 °C 0,0 km/h (0 Bft)
14.10.2018 01:14 7,7 °C 91 % 1015,9 hPa 0,0 mm 0,0 km/h (0 Bft) S-SW 199 ° 0 min 0,000 mm 0,0 UV-I 0 W/m² 6,3 °C 7,7 °C 0,0 km/h (0 Bft)
14.10.2018 01:15 7,7 °C 91 % 1015,9 hPa 0,0 mm 0,0 km/h (0 Bft) S-SW 199 ° 0 min 0,000 mm 0,0 UV-I 0 W/m² 6,3 °C 7,7 °C 0,0 km/h (0 Bft)
14.10.2018 01:16 7,8 °C 91 % 1015,9 hPa 0,0 mm 0,0 km/h (0 Bft) S-SW 199 ° 0 min 0,000 mm 0,0 UV-I 0 W/m² 6,4 °C 7,8 °C 0,0 km/h (0 Bft)
14.10.2018 01:17 7,9 °C 92 % 1015,9 hPa 0,0 mm 1,9 km/h (1 Bft) S-SW 199 ° 0 min 0,000 mm 0,0 UV-I 0 W/m² 6,7 °C 7,9 °C 3,2 km/h (1 Bft)
14.10.2018 01:18 8,0 °C 92 % 1015,9 hPa 0,0 mm 0,0 km/h (0 Bft) S-SW 199 ° 0 min 0,000 mm 0,0 UV-I 0 W/m² 6,8 °C 8,0 °C 0,0 km/h (0 Bft)
14.10.2018 01:19 8,2 °C 92 % 1015,9 hPa 0,0 mm 0,0 km/h (0 Bft) S-SW 199 ° 0 min 0,000 mm 0,0 UV-I 0 W/m² 7,0 °C 8,2 °C 0,0 km/h (0 Bft)
14.10.2018 01:20 8,2 °C 91 % 1015,9 hPa 0,0 mm 0,9 km/h (0 Bft) S-SW 199 ° 0 min 0,000 mm 0,0 UV-I 0 W/m² 6,8 °C 8,2 °C 3,2 km/h (1 Bft)
14.10.2018 01:21 8,3 °C 91 % 1015,9 hPa 0,0 mm 0,7 km/h (0 Bft) S-SW 199 ° 0 min 0,000 mm 0,0 UV-I 0 W/m² 6,9 °C 8,3 °C 3,2 km/h (1 Bft)
14.10.2018 01:22 8,3 °C 91 % 1015,8 hPa 0,0 mm 0,0 km/h (0 Bft) S-SW 199 ° 0 min 0,000 mm 0,0 UV-I 0 W/m² 6,9 °C 8,3 °C 0,0 km/h (0 Bft)
14.10.2018 01:23 8,3 °C 91 % 1015,8 hPa 0,0 mm 0,0 km/h (0 Bft) S-SW 199 ° 0 min 0,000 mm 0,0 UV-I 0 W/m² 6,9 °C 8,3 °C 0,0 km/h (0 Bft)
14.10.2018 01:24 8,3 °C 90 % 1015,8 hPa 0,0 mm 0,0 km/h (0 Bft) S-SW 199 ° 0 min 0,000 mm 0,0 UV-I 0 W/m² 6,8 °C 8,3 °C 0,0 km/h (0 Bft)
14.10.2018 01:25 8,2 °C 90 % 1015,8 hPa 0,0 mm 0,0 km/h (0 Bft) S-SW 199 ° 0 min 0,000 mm 0,0 UV-I 0 W/m² 6,7 °C 8,2 °C 0,0 km/h (0 Bft)
14.10.2018 01:26 8,2 °C 90 % 1015,8 hPa 0,0 mm 0,0 km/h (0 Bft) S-SW 199 ° 0 min 0,000 mm 0,0 UV-I 0 W/m² 6,7 °C 8,2 °C 0,0 km/h (0 Bft)
14.10.2018 01:27 8,1 °C 90 % 1015,9 hPa 0,0 mm 0,1 km/h (0 Bft) S-SW 199 ° 0 min 0,000 mm 0,0 UV-I 0 W/m² 6,6 °C 8,1 °C 1,6 km/h (1 Bft)
14.10.2018 01:28 8,0 °C 89 % 1015,8 hPa 0,0 mm 0,0 km/h (0 Bft) S-SW 199 ° 0 min 0,000 mm 0,0 UV-I 0 W/m² 6,3 °C 8,0 °C 0,0 km/h (0 Bft)
14.10.2018 01:29 7,8 °C 89 % 1015,8 hPa 0,0 mm 0,0 km/h (0 Bft) S-SW 199 ° 0 min 0,000 mm 0,0 UV-I 0 W/m² 6,1 °C 7,8 °C 0,0 km/h (0 Bft)
14.10.2018 01:30 7,7 °C 89 % 1015,8 hPa 0,0 mm 0,0 km/h (0 Bft) S-SW 199 ° 0 min 0,000 mm 0,0 UV-I 0 W/m² 6,0 °C 7,7 °C 0,0 km/h (0 Bft)
14.10.2018 01:31 7,6 °C 89 % 1015,8 hPa 0,0 mm 0,0 km/h (0 Bft) S-SW 199 ° 0 min 0,000 mm 0,0 UV-I 0 W/m² 5,9 °C 7,6 °C 0,0 km/h (0 Bft)
14.10.2018 01:32 7,4 °C 90 % 1015,8 hPa 0,0 mm 0,0 km/h (0 Bft) S-SW 199 ° 0 min 0,000 mm 0,0 UV-I 0 W/m² 5,9 °C 7,4 °C 0,0 km/h (0 Bft)
14.10.2018 01:33 7,4 °C 90 % 1015,8 hPa 0,0 mm 0,0 km/h (0 Bft) S-SW 199 ° 0 min 0,000 mm 0,0 UV-I 0 W/m² 5,9 °C 7,4 °C 0,0 km/h (0 Bft)
14.10.2018 01:34 7,3 °C 90 % 1015,9 hPa 0,0 mm 0,0 km/h (0 Bft) S-SW 199 ° 0 min 0,000 mm 0,0 UV-I 0 W/m² 5,8 °C 7,3 °C 0,0 km/h (0 Bft)
14.10.2018 01:35 7,2 °C 90 % 1015,9 hPa 0,0 mm 0,0 km/h (0 Bft) S-SW 199 ° 0 min 0,000 mm 0,0 UV-I 0 W/m² 5,7 °C 7,2 °C 0,0 km/h (0 Bft)
14.10.2018 01:36 7,2 °C 91 % 1015,8 hPa 0,0 mm 0,0 km/h (0 Bft) S-SW 199 ° 0 min 0,000 mm 0,0 UV-I 0 W/m² 5,8 °C 7,2 °C 0,0 km/h (0 Bft)
14.10.2018 01:37 7,2 °C 91 % 1015,9 hPa 0,0 mm 0,0 km/h (0 Bft) S-SW 199 ° 0 min 0,000 mm 0,0 UV-I 0 W/m² 5,8 °C 7,2 °C 0,0 km/h (0 Bft)
14.10.2018 01:38 7,2 °C 91 % 1015,9 hPa 0,0 mm 0,0 km/h (0 Bft) S-SW 199 ° 0 min 0,000 mm 0,0 UV-I 0 W/m² 5,8 °C 7,2 °C 0,0 km/h (0 Bft)
14.10.2018 01:39 7,1 °C 91 % 1015,8 hPa 0,0 mm 0,0 km/h (0 Bft) S-SW 199 ° 0 min 0,000 mm 0,0 UV-I 0 W/m² 5,7 °C 7,1 °C 0,0 km/h (0 Bft)
14.10.2018 01:40 7,2 °C 91 % 1015,9 hPa 0,0 mm 0,0 km/h (0 Bft) S-SW 199 ° 0 min 0,000 mm 0,0 UV-I 0 W/m² 5,8 °C 7,2 °C 0,0 km/h (0 Bft)
14.10.2018 01:41 7,2 °C 92 % 1015,9 hPa 0,0 mm 0,0 km/h (0 Bft) S-SW 199 ° 0 min 0,000 mm 0,0 UV-I 0 W/m² 6,0 °C 7,2 °C 0,0 km/h (0 Bft)
14.10.2018 01:42 7,2 °C 91 % 1015,9 hPa 0,0 mm 0,0 km/h (0 Bft) S-SW 199 ° 0 min 0,000 mm 0,0 UV-I 0 W/m² 5,8 °C 7,2 °C 0,0 km/h (0 Bft)
14.10.2018 01:43 7,2 °C 92 % 1015,9 hPa 0,0 mm 0,0 km/h (0 Bft) S-SW 199 ° 0 min 0,000 mm 0,0 UV-I 0 W/m² 6,0 °C 7,2 °C 0,0 km/h (0 Bft)
14.10.2018 01:44 7,3 °C 92 % 1015,9 hPa 0,0 mm 0,6 km/h (0 Bft) S-SW 199 ° 0 min 0,000 mm 0,0 UV-I 0 W/m² 6,1 °C 7,3 °C 1,6 km/h (1 Bft)
14.10.2018 01:45 7,4 °C 92 % 1015,9 hPa 0,0 mm 0,3 km/h (0 Bft) S-SW 199 ° 0 min 0,000 mm 0,0 UV-I 0 W/m² 6,2 °C 7,4 °C 1,6 km/h (1 Bft)
14.10.2018 01:46 7,5 °C 92 % 1015,9 hPa 0,0 mm 2,1 km/h (1 Bft) S-SW 199 ° 0 min 0,000 mm 0,0 UV-I 0 W/m² 6,3 °C 7,5 °C 3,2 km/h (1 Bft)
14.10.2018 01:47 7,6 °C 92 % 1015,9 hPa 0,0 mm 1,6 km/h (1 Bft) S-SW 199 ° 0 min 0,000 mm 0,0 UV-I 0 W/m² 6,4 °C 7,6 °C 3,2 km/h (1 Bft)
14.10.2018 01:48 7,7 °C 92 % 1015,8 hPa 0,0 mm 1,4 km/h (1 Bft) S-SW 199 ° 0 min 0,000 mm 0,0 UV-I 0 W/m² 6,5 °C 7,7 °C 3,2 km/h (1 Bft)
14.10.2018 01:49 7,8 °C 92 % 1015,8 hPa 0,0 mm 0,0 km/h (0 Bft) S-SW 199 ° 0 min 0,000 mm 0,0 UV-I 0 W/m² 6,6 °C 7,8 °C 0,0 km/h (0 Bft)
14.10.2018 01:50 7,9 °C 91 % 1015,8 hPa 0,0 mm 0,0 km/h (0 Bft) S-SW 199 ° 0 min 0,000 mm 0,0 UV-I 0 W/m² 6,5 °C 7,9 °C 0,0 km/h (0 Bft)
14.10.2018 01:51 8,0 °C 91 % 1015,8 hPa 0,0 mm 0,0 km/h (0 Bft) S-SW 199 ° 0 min 0,000 mm 0,0 UV-I 0 W/m² 6,6 °C 8,0 °C 0,0 km/h (0 Bft)
14.10.2018 01:52 8,1 °C 91 % 1015,8 hPa 0,0 mm 0,0 km/h (0 Bft) S-SW 199 ° 0 min 0,000 mm 0,0 UV-I 0 W/m² 6,7 °C 8,1 °C 0,0 km/h (0 Bft)
14.10.2018 01:53 8,1 °C 90 % 1015,8 hPa 0,0 mm 0,0 km/h (0 Bft) S-SW 199 ° 0 min 0,000 mm 0,0 UV-I 0 W/m² 6,6 °C 8,1 °C 0,0 km/h (0 Bft)
14.10.2018 01:54 7,9 °C 89 % 1015,8 hPa 0,0 mm 0,0 km/h (0 Bft) S-SW 199 ° 0 min 0,000 mm 0,0 UV-I 0 W/m² 6,2 °C 7,9 °C 0,0 km/h (0 Bft)
14.10.2018 01:55 7,8 °C 89 % 1015,8 hPa 0,0 mm 0,0 km/h (0 Bft) S-SW 199 ° 0 min 0,000 mm 0,0 UV-I 0 W/m² 6,1 °C 7,8 °C 0,0 km/h (0 Bft)
14.10.2018 01:56 7,8 °C 89 % 1015,8 hPa 0,0 mm 0,0 km/h (0 Bft) S-SW 199 ° 0 min 0,000 mm 0,0 UV-I 0 W/m² 6,1 °C 7,8 °C 0,0 km/h (0 Bft)
14.10.2018 01:57 7,7 °C 89 % 1015,8 hPa 0,0 mm 1,7 km/h (1 Bft) W-NW 290 ° 0 min 0,000 mm 0,0 UV-I 0 W/m² 6,0 °C 7,7 °C 8,0 km/h (2 Bft)
14.10.2018 01:58 7,6 °C 89 % 1015,8 hPa 0,0 mm 4,2 km/h (1 Bft) W-NW 290 ° 0 min 0,000 mm 0,0 UV-I 0 W/m² 5,9 °C 7,6 °C 8,0 km/h (2 Bft)
14.10.2018 01:59 7,6 °C 89 % 1015,9 hPa 0,0 mm 0,0 km/h (0 Bft) W-NW 290 ° 0 min 0,000 mm 0,0 UV-I 0 W/m² 5,9 °C 7,6 °C 0,0 km/h (0 Bft)
14.10.2018 02:00 7,5 °C 90 % 1015,8 hPa 0,0 mm 0,0 km/h (0 Bft) W-NW 290 ° 0 min 0,000 mm 0,0 UV-I 0 W/m² 6,0 °C 7,5 °C 0,0 km/h (0 Bft)
14.10.2018 02:01 7,5 °C 90 % 1015,8 hPa 0,0 mm 0,0 km/h (0 Bft) W-NW 290 ° 0 min 0,000 mm 0,0 UV-I 0 W/m² 6,0 °C 7,5 °C 0,0 km/h (0 Bft)
14.10.2018 02:02 7,5 °C 90 % 1015,8 hPa 0,0 mm 0,0 km/h (0 Bft) W-NW 290 ° 0 min 0,000 mm 0,0 UV-I 0 W/m² 6,0 °C 7,5 °C 0,0 km/h (0 Bft)
14.10.2018 02:03 7,6 °C 90 % 1015,8 hPa 0,0 mm 0,0 km/h (0 Bft) W-NW 290 ° 0 min 0,000 mm 0,0 UV-I 0 W/m² 6,1 °C 7,6 °C 0,0 km/h (0 Bft)
14.10.2018 02:04 7,6 °C 90 % 1015,7 hPa 0,0 mm 0,0 km/h (0 Bft) W-NW 290 ° 0 min 0,000 mm 0,0 UV-I 0 W/m² 6,1 °C 7,6 °C 0,0 km/h (0 Bft)
14.10.2018 02:05 7,5 °C 90 % 1015,7 hPa 0,0 mm 0,0 km/h (0 Bft) W-NW 290 ° 0 min 0,000 mm 0,0 UV-I 0 W/m² 6,0 °C 7,5 °C 0,0 km/h (0 Bft)
14.10.2018 02:06 7,4 °C 90 % 1015,8 hPa 0,0 mm 0,6 km/h (0 Bft) W-NW 290 ° 0 min 0,000 mm 0,0 UV-I 0 W/m² 5,9 °C 7,4 °C 3,2 km/h (1 Bft)
14.10.2018 02:07 7,3 °C 90 % 1015,8 hPa 0,0 mm 1,1 km/h (1 Bft) W-NW 290 ° 0 min 0,000 mm 0,0 UV-I 0 W/m² 5,8 °C 7,3 °C 3,2 km/h (1 Bft)
14.10.2018 02:08 7,2 °C 90 % 1015,7 hPa 0,0 mm 0,0 km/h (0 Bft) W-NW 290 ° 0 min 0,000 mm 0,0 UV-I 0 W/m² 5,7 °C 7,2 °C 0,0 km/h (0 Bft)
14.10.2018 02:09 7,2 °C 90 % 1015,7 hPa 0,0 mm 0,0 km/h (0 Bft) W-NW 290 ° 0 min 0,000 mm 0,0 UV-I 0 W/m² 5,7 °C 7,2 °C 0,0 km/h (0 Bft)
14.10.2018 02:10 7,1 °C 90 % 1015,7 hPa 0,0 mm 0,0 km/h (0 Bft) W-NW 290 ° 0 min 0,000 mm 0,0 UV-I 0 W/m² 5,6 °C 7,1 °C 0,0 km/h (0 Bft)
14.10.2018 02:11 7,1 °C 90 % 1015,7 hPa 0,0 mm 0,0 km/h (0 Bft) W-NW 290 ° 0 min 0,000 mm 0,0 UV-I 0 W/m² 5,6 °C 7,1 °C 0,0 km/h (0 Bft)
14.10.2018 02:12 7,0 °C 90 % 1015,7 hPa 0,0 mm 0,0 km/h (0 Bft) W-NW 290 ° 0 min 0,000 mm 0,0 UV-I 0 W/m² 5,5 °C 7,0 °C 0,0 km/h (0 Bft)
14.10.2018 02:13 7,1 °C 91 % 1015,7 hPa 0,0 mm 0,0 km/h (0 Bft) W-NW 290 ° 0 min 0,000 mm 0,0 UV-I 0 W/m² 5,7 °C 7,1 °C 0,0 km/h (0 Bft)
14.10.2018 02:14 7,3 °C 91 % 1015,8 hPa 0,0 mm 0,0 km/h (0 Bft) W-NW 289 ° 0 min 0,000 mm 0,0 UV-I 0 W/m² 5,9 °C 7,3 °C 0,0 km/h (0 Bft)
14.10.2018 02:15 7,4 °C 91 % 1015,7 hPa 0,0 mm 0,1 km/h (0 Bft) W-NW 289 ° 0 min 0,000 mm 0,0 UV-I 0 W/m² 6,0 °C 7,4 °C 1,6 km/h (1 Bft)
14.10.2018 02:16 7,5 °C 91 % 1015,7 hPa 0,0 mm 0,0 km/h (0 Bft) W-NW 289 ° 0 min 0,000 mm 0,0 UV-I 0 W/m² 6,1 °C 7,5 °C 0,0 km/h (0 Bft)
14.10.2018 02:17 7,4 °C 90 % 1015,7 hPa 0,0 mm 0,0 km/h (0 Bft) W-NW 289 ° 0 min 0,000 mm 0,0 UV-I 0 W/m² 5,9 °C 7,4 °C 0,0 km/h (0 Bft)
14.10.2018 02:18 7,4 °C 90 % 1015,7 hPa 0,0 mm 0,0 km/h (0 Bft) W-NW 289 ° 0 min 0,000 mm 0,0 UV-I 0 W/m² 5,9 °C 7,4 °C 0,0 km/h (0 Bft)
14.10.2018 02:19 7,4 °C 90 % 1015,7 hPa 0,0 mm 0,3 km/h (0 Bft) W-NW 289 ° 0 min 0,000 mm 0,0 UV-I 0 W/m² 5,9 °C 7,4 °C 1,6 km/h (1 Bft)
14.10.2018 02:20 7,3 °C 90 % 1015,7 hPa 0,0 mm 0,0 km/h (0 Bft) W-NW 289 ° 0 min 0,000 mm 0,0 UV-I 0 W/m² 5,8 °C 7,3 °C 0,0 km/h (0 Bft)
14.10.2018 02:21 7,2 °C 90 % 1015,7 hPa 0,0 mm 0,0 km/h (0 Bft) W-NW 289 ° 0 min 0,000 mm 0,0 UV-I 0 W/m² 5,7 °C 7,2 °C 0,0 km/h (0 Bft)
14.10.2018 02:22 7,1 °C 90 % 1015,7 hPa 0,0 mm 0,0 km/h (0 Bft) W-NW 289 ° 0 min 0,000 mm 0,0 UV-I 0 W/m² 5,6 °C 7,1 °C 0,0 km/h (0 Bft)
14.10.2018 02:23 6,9 °C 90 % 1015,7 hPa 0,0 mm 0,0 km/h (0 Bft) W-NW 289 ° 0 min 0,000 mm 0,0 UV-I 0 W/m² 5,4 °C 6,9 °C 0,0 km/h (0 Bft)
14.10.2018 02:24 6,8 °C 90 % 1015,7 hPa 0,0 mm 0,0 km/h (0 Bft) W-NW 289 ° 0 min 0,000 mm 0,0 UV-I 0 W/m² 5,3 °C 6,8 °C 0,0 km/h (0 Bft)
14.10.2018 02:25 6,8 °C 90 % 1015,7 hPa 0,0 mm 1,0 km/h (0 Bft) W-NW 289 ° 0 min 0,000 mm 0,0 UV-I 0 W/m² 5,3 °C 6,8 °C 3,2 km/h (1 Bft)
14.10.2018 02:26 6,8 °C 90 % 1015,7 hPa 0,0 mm 4,9 km/h (1 Bft) O 95 ° 0 min 0,000 mm 0,0 UV-I 0 W/m² 5,3 °C 6,2 °C 6,4 km/h (2 Bft)
14.10.2018 02:27 6,8 °C 91 % 1015,7 hPa 0,0 mm 1,9 km/h (1 Bft) O 95 ° 0 min 0,000 mm 0,0 UV-I 0 W/m² 5,4 °C 6,8 °C 4,8 km/h (1 Bft)
14.10.2018 02:28 6,7 °C 90 % 1015,8 hPa 0,0 mm 0,1 km/h (0 Bft) O 95 ° 0 min 0,000 mm 0,0 UV-I 0 W/m² 5,2 °C 6,7 °C 1,6 km/h (1 Bft)
14.10.2018 02:29 6,7 °C 91 % 1015,8 hPa 0,0 mm 1,3 km/h (1 Bft) O 90 ° 0 min 0,000 mm 0,0 UV-I 0 W/m² 5,3 °C 6,7 °C 3,2 km/h (1 Bft)
14.10.2018 02:30 6,6 °C 91 % 1015,8 hPa 0,0 mm 0,5 km/h (0 Bft) O 90 ° 0 min 0,000 mm 0,0 UV-I 0 W/m² 5,2 °C 6,6 °C 3,2 km/h (1 Bft)
14.10.2018 02:31 6,6 °C 91 % 1015,8 hPa 0,0 mm 0,0 km/h (0 Bft) O 90 ° 0 min 0,000 mm 0,0 UV-I 0 W/m² 5,2 °C 6,6 °C 0,0 km/h (0 Bft)
14.10.2018 02:32 6,5 °C 90 % 1015,8 hPa 0,0 mm 0,0 km/h (0 Bft) O 90 ° 0 min 0,000 mm 0,0 UV-I 0 W/m² 5,0 °C 6,5 °C 0,0 km/h (0 Bft)
14.10.2018 02:33 6,4 °C 91 % 1015,8 hPa 0,0 mm 0,0 km/h (0 Bft) O 90 ° 0 min 0,000 mm 0,0 UV-I 0 W/m² 5,0 °C 6,4 °C 0,0 km/h (0 Bft)
14.10.2018 02:34 6,4 °C 91 % 1015,8 hPa 0,0 mm 0,0 km/h (0 Bft) O 90 ° 0 min 0,000 mm 0,0 UV-I 0 W/m² 5,0 °C 6,4 °C 0,0 km/h (0 Bft)
14.10.2018 02:35 6,5 °C 91 % 1015,8 hPa 0,0 mm 0,0 km/h (0 Bft) O 90 ° 0 min 0,000 mm 0,0 UV-I 0 W/m² 5,1 °C 6,5 °C 0,0 km/h (0 Bft)
14.10.2018 02:36 6,5 °C 91 % 1015,7 hPa 0,0 mm 0,0 km/h (0 Bft) O 90 ° 0 min 0,000 mm 0,0 UV-I 0 W/m² 5,1 °C 6,5 °C 0,0 km/h (0 Bft)
14.10.2018 02:37 6,5 °C 91 % 1015,7 hPa 0,0 mm 0,0 km/h (0 Bft) O 90 ° 0 min 0,000 mm 0,0 UV-I 0 W/m² 5,1 °C 6,5 °C 0,0 km/h (0 Bft)
14.10.2018 02:38 6,5 °C 91 % 1015,8 hPa 0,0 mm 1,4 km/h (1 Bft) N-NW 344 ° 0 min 0,000 mm 0,0 UV-I 0 W/m² 5,1 °C 6,5 °C 4,8 km/h (1 Bft)
14.10.2018 02:39 6,4 °C 91 % 1015,9 hPa 0,0 mm 3,8 km/h (1 Bft) NW 317 ° 0 min 0,000 mm 0,0 UV-I 0 W/m² 5,0 °C 6,4 °C 4,8 km/h (1 Bft)
14.10.2018 02:40 6,4 °C 91 % 1015,9 hPa 0,0 mm 3,4 km/h (1 Bft) W-NW 299 ° 0 min 0,000 mm 0,0 UV-I 0 W/m² 5,0 °C 6,4 °C 4,8 km/h (1 Bft)
14.10.2018 02:41 6,4 °C 91 % 1015,9 hPa 0,0 mm 2,6 km/h (1 Bft) W-NW 299 ° 0 min 0,000 mm 0,0 UV-I 0 W/m² 5,0 °C 6,4 °C 3,2 km/h (1 Bft)
14.10.2018 02:42 6,4 °C 91 % 1015,9 hPa 0,0 mm 1,1 km/h (1 Bft) S-SW 207 ° 0 min 0,000 mm 0,0 UV-I 0 W/m² 5,0 °C 6,4 °C 3,2 km/h (1 Bft)
14.10.2018 02:43 6,6 °C 92 % 1015,9 hPa 0,0 mm 1,6 km/h (1 Bft) S-SW 207 ° 0 min 0,000 mm 0,0 UV-I 0 W/m² 5,4 °C 6,6 °C 4,8 km/h (1 Bft)
14.10.2018 02:44 6,7 °C 92 % 1015,8 hPa 0,0 mm 0,0 km/h (0 Bft) S-SW 207 ° 0 min 0,000 mm 0,0 UV-I 0 W/m² 5,5 °C 6,7 °C 0,0 km/h (0 Bft)
14.10.2018 02:45 6,9 °C 92 % 1015,9 hPa 0,0 mm 0,9 km/h (0 Bft) S-SW 207 ° 0 min 0,000 mm 0,0 UV-I 0 W/m² 5,7 °C 6,9 °C 3,2 km/h (1 Bft)
14.10.2018 02:46 7,1 °C 92 % 1015,9 hPa 0,0 mm 1,3 km/h (1 Bft) S-SW 210 ° 0 min 0,000 mm 0,0 UV-I 0 W/m² 5,9 °C 7,1 °C 1,6 km/h (1 Bft)
14.10.2018 02:47 7,3 °C 91 % 1015,9 hPa 0,0 mm 0,2 km/h (0 Bft) S-SW 210 ° 0 min 0,000 mm 0,0 UV-I 0 W/m² 5,9 °C 7,3 °C 1,6 km/h (1 Bft)
14.10.2018 02:48 7,4 °C 90 % 1015,8 hPa 0,0 mm 0,0 km/h (0 Bft) S-SW 210 ° 0 min 0,000 mm 0,0 UV-I 0 W/m² 5,9 °C 7,4 °C 0,0 km/h (0 Bft)
14.10.2018 02:49 7,6 °C 90 % 1015,8 hPa 0,0 mm 0,0 km/h (0 Bft) S-SW 210 ° 0 min 0,000 mm 0,0 UV-I 0 W/m² 6,1 °C 7,6 °C 0,0 km/h (0 Bft)
14.10.2018 02:50 7,7 °C 90 % 1015,8 hPa 0,0 mm 0,0 km/h (0 Bft) S-SW 210 ° 0 min 0,000 mm 0,0 UV-I 0 W/m² 6,2 °C 7,7 °C 0,0 km/h (0 Bft)
14.10.2018 02:51 7,9 °C 90 % 1015,7 hPa 0,0 mm 1,5 km/h (1 Bft) S-SW 210 ° 0 min 0,000 mm 0,0 UV-I 0 W/m² 6,4 °C 7,9 °C 3,2 km/h (1 Bft)
14.10.2018 02:52 8,0 °C 89 % 1015,7 hPa 0,0 mm 0,6 km/h (0 Bft) S-SW 210 ° 0 min 0,000 mm 0,0 UV-I 0 W/m² 6,3 °C 8,0 °C 1,6 km/h (1 Bft)
14.10.2018 02:53 8,0 °C 89 % 1015,7 hPa 0,0 mm 0,6 km/h (0 Bft) S-SW 210 ° 0 min 0,000 mm 0,0 UV-I 0 W/m² 6,3 °C 8,0 °C 1,6 km/h (1 Bft)
14.10.2018 02:54 8,1 °C 89 % 1015,7 hPa 0,0 mm 0,0 km/h (0 Bft) S-SW 210 ° 0 min 0,000 mm 0,0 UV-I 0 W/m² 6,4 °C 8,1 °C 0,0 km/h (0 Bft)
14.10.2018 02:55 8,1 °C 88 % 1015,6 hPa 0,0 mm 0,0 km/h (0 Bft) S-SW 210 ° 0 min 0,000 mm 0,0 UV-I 0 W/m² 6,2 °C 8,1 °C 0,0 km/h (0 Bft)
14.10.2018 02:56 7,9 °C 87 % 1015,7 hPa 0,0 mm 0,0 km/h (0 Bft) S-SW 210 ° 0 min 0,000 mm 0,0 UV-I 0 W/m² 5,9 °C 7,9 °C 0,0 km/h (0 Bft)
14.10.2018 02:57 7,8 °C 87 % 1015,5 hPa 0,0 mm 0,0 km/h (0 Bft) S-SW 210 ° 0 min 0,000 mm 0,0 UV-I 0 W/m² 5,8 °C 7,8 °C 0,0 km/h (0 Bft)
14.10.2018 02:58 7,6 °C 86 % 1015,6 hPa 0,0 mm 0,2 km/h (0 Bft) S-SW 210 ° 0 min 0,000 mm 0,0 UV-I 0 W/m² 5,4 °C 7,6 °C 1,6 km/h (1 Bft)
14.10.2018 02:59 7,3 °C 86 % 1015,6 hPa 0,0 mm 2,8 km/h (1 Bft) W 281 ° 0 min 0,000 mm 0,0 UV-I 0 W/m² 5,1 °C 7,3 °C 4,8 km/h (1 Bft)
14.10.2018 03:00 7,1 °C 87 % 1015,6 hPa 0,0 mm 1,1 km/h (1 Bft) W 281 ° 0 min 0,000 mm 0,0 UV-I 0 W/m² 5,1 °C 7,1 °C 3,2 km/h (1 Bft)
14.10.2018 03:01 6,9 °C 87 % 1015,6 hPa 0,0 mm 0,0 km/h (0 Bft) W 281 ° 0 min 0,000 mm 0,0 UV-I 0 W/m² 4,9 °C 6,9 °C 0,0 km/h (0 Bft)
14.10.2018 03:02 6,7 °C 88 % 1015,7 hPa 0,0 mm 0,0 km/h (0 Bft) W 281 ° 0 min 0,000 mm 0,0 UV-I 0 W/m² 4,9 °C 6,7 °C 0,0 km/h (0 Bft)
14.10.2018 03:03 6,7 °C 89 % 1015,7 hPa 0,0 mm 3,4 km/h (1 Bft) SO 124 ° 0 min 0,000 mm 0,0 UV-I 0 W/m² 5,0 °C 6,7 °C 4,8 km/h (1 Bft)
14.10.2018 03:04 6,8 °C 90 % 1015,6 hPa 0,0 mm 1,0 km/h (0 Bft) SO 124 ° 0 min 0,000 mm 0,0 UV-I 0 W/m² 5,3 °C 6,8 °C 3,2 km/h (1 Bft)
14.10.2018 03:05 7,1 °C 90 % 1015,6 hPa 0,0 mm 0,0 km/h (0 Bft) SO 124 ° 0 min 0,000 mm 0,0 UV-I 0 W/m² 5,6 °C 7,1 °C 0,0 km/h (0 Bft)
14.10.2018 03:06 7,1 °C 89 % 1015,6 hPa 0,0 mm 0,0 km/h (0 Bft) SO 124 ° 0 min 0,000 mm 0,0 UV-I 0 W/m² 5,4 °C 7,1 °C 0,0 km/h (0 Bft)
14.10.2018 03:07 7,6 °C 88 % 1015,6 hPa 0,0 mm 0,0 km/h (0 Bft) N 0 ° 0 min 0,000 mm 0,0 UV-I 0 W/m² 5,7 °C 7,6 °C 0,0 km/h (0 Bft)
14.10.2018 03:08 7,8 °C 86 % 1015,5 hPa 0,0 mm 0,0 km/h (0 Bft) N 0 ° 0 min 0,000 mm 0,0 UV-I 0 W/m² 5,6 °C 7,8 °C 0,0 km/h (0 Bft)
14.10.2018 03:09 7,8 °C 85 % 1015,6 hPa 0,0 mm 0,0 km/h (0 Bft) N 0 ° 0 min 0,000 mm 0,0 UV-I 0 W/m² 5,4 °C 7,8 °C 0,0 km/h (0 Bft)
14.10.2018 03:10 7,8 °C 84 % 1015,5 hPa 0,0 mm 0,0 km/h (0 Bft) N 0 ° 0 min 0,000 mm 0,0 UV-I 0 W/m² 5,3 °C 7,8 °C 0,0 km/h (0 Bft)
14.10.2018 03:11 7,8 °C 84 % 1015,6 hPa 0,0 mm 0,0 km/h (0 Bft) N 0 ° 0 min 0,000 mm 0,0 UV-I 0 W/m² 5,3 °C 7,8 °C 0,0 km/h (0 Bft)
14.10.2018 03:12 7,7 °C 84 % 1015,5 hPa 0,0 mm 0,0 km/h (0 Bft) N 0 ° 0 min 0,000 mm 0,0 UV-I 0 W/m² 5,2 °C 7,7 °C 0,0 km/h (0 Bft)
14.10.2018 03:13 7,6 °C 84 % 1015,5 hPa 0,0 mm 0,0 km/h (0 Bft) N 0 ° 0 min 0,000 mm 0,0 UV-I 0 W/m² 5,1 °C 7,6 °C 0,0 km/h (0 Bft)
14.10.2018 03:15 7,4 °C 85 % 1015,5 hPa 0,0 mm 0,0 km/h (0 Bft) SO 124 ° 0 min 0,000 mm 0,0 UV-I 0 W/m² 5,0 °C 7,4 °C 0,0 km/h (0 Bft)
14.10.2018 03:16 7,3 °C 85 % 1015,5 hPa 0,0 mm 0,0 km/h (0 Bft) SO 124 ° 0 min 0,000 mm 0,0 UV-I 0 W/m² 4,9 °C 7,3 °C 0,0 km/h (0 Bft)
14.10.2018 03:17 7,2 °C 85 % 1015,5 hPa 0,0 mm 0,0 km/h (0 Bft) SO 124 ° 0 min 0,000 mm 0,0 UV-I 0 W/m² 4,9 °C 7,2 °C 0,0 km/h (0 Bft)
14.10.2018 03:18 7,1 °C 85 % 1015,5 hPa 0,0 mm 0,0 km/h (0 Bft) SO 124 ° 0 min 0,000 mm 0,0 UV-I 0 W/m² 4,8 °C 7,1 °C 0,0 km/h (0 Bft)
14.10.2018 03:19 6,9 °C 85 % 1015,4 hPa 0,0 mm 0,0 km/h (0 Bft) SO 124 ° 0 min 0,000 mm 0,0 UV-I 0 W/m² 4,6 °C 6,9 °C 0,0 km/h (0 Bft)
14.10.2018 03:20 6,7 °C 85 % 1015,5 hPa 0,0 mm 0,0 km/h (0 Bft) SO 124 ° 0 min 0,000 mm 0,0 UV-I 0 W/m² 4,4 °C 6,7 °C 0,0 km/h (0 Bft)
14.10.2018 03:21 6,6 °C 86 % 1015,4 hPa 0,0 mm 0,0 km/h (0 Bft) SO 124 ° 0 min 0,000 mm 0,0 UV-I 0 W/m² 4,4 °C 6,6 °C 0,0 km/h (0 Bft)
14.10.2018 03:22 6,5 °C 87 % 1015,5 hPa 0,0 mm 0,0 km/h (0 Bft) SO 124 ° 0 min 0,000 mm 0,0 UV-I 0 W/m² 4,5 °C 6,5 °C 0,0 km/h (0 Bft)
14.10.2018 03:23 6,4 °C 88 % 1015,5 hPa 0,0 mm 0,0 km/h (0 Bft) SO 124 ° 0 min 0,000 mm 0,0 UV-I 0 W/m² 4,6 °C 6,4 °C 0,0 km/h (0 Bft)
14.10.2018 03:24 6,4 °C 89 % 1015,5 hPa 0,0 mm 0,0 km/h (0 Bft) SO 124 ° 0 min 0,000 mm 0,0 UV-I 0 W/m² 4,7 °C 6,4 °C 0,0 km/h (0 Bft)
14.10.2018 03:25 6,4 °C 89 % 1015,5 hPa 0,0 mm 0,0 km/h (0 Bft) SO 124 ° 0 min 0,000 mm 0,0 UV-I 0 W/m² 4,7 °C 6,4 °C 0,0 km/h (0 Bft)
14.10.2018 03:26 6,5 °C 88 % 1015,5 hPa 0,0 mm 0,0 km/h (0 Bft) SO 124 ° 0 min 0,000 mm 0,0 UV-I 0 W/m² 4,7 °C 6,5 °C 0,0 km/h (0 Bft)
14.10.2018 03:27 6,4 °C 88 % 1015,4 hPa 0,0 mm 0,0 km/h (0 Bft) SO 124 ° 0 min 0,000 mm 0,0 UV-I 0 W/m² 4,6 °C 6,4 °C 0,0 km/h (0 Bft)
14.10.2018 03:28 6,6 °C 89 % 1015,5 hPa 0,0 mm 0,0 km/h (0 Bft) SO 124 ° 0 min 0,000 mm 0,0 UV-I 0 W/m² 4,9 °C 6,6 °C 0,0 km/h (0 Bft)
14.10.2018 03:29 6,6 °C 89 % 1015,4 hPa 0,0 mm 0,0 km/h (0 Bft) SO 124 ° 0 min 0,000 mm 0,0 UV-I 0 W/m² 4,9 °C 6,6 °C 0,0 km/h (0 Bft)
14.10.2018 03:30 6,7 °C 89 % 1015,5 hPa 0,0 mm 0,0 km/h (0 Bft) SO 124 ° 0 min 0,000 mm 0,0 UV-I 0 W/m² 5,0 °C 6,7 °C 0,0 km/h (0 Bft)
14.10.2018 03:31 6,8 °C 89 % 1015,4 hPa 0,0 mm 0,0 km/h (0 Bft) SO 124 ° 0 min 0,000 mm 0,0 UV-I 0 W/m² 5,1 °C 6,8 °C 0,0 km/h (0 Bft)
14.10.2018 03:32 6,8 °C 89 % 1015,4 hPa 0,0 mm 0,0 km/h (0 Bft) SO 124 ° 0 min 0,000 mm 0,0 UV-I 0 W/m² 5,1 °C 6,8 °C 0,0 km/h (0 Bft)
14.10.2018 03:33 6,8 °C 88 % 1015,4 hPa 0,0 mm 0,0 km/h (0 Bft) SO 124 ° 0 min 0,000 mm 0,0 UV-I 0 W/m² 5,0 °C 6,8 °C 0,0 km/h (0 Bft)
14.10.2018 03:34 6,7 °C 87 % 1015,5 hPa 0,0 mm 0,1 km/h (0 Bft) SO 124 ° 0 min 0,000 mm 0,0 UV-I 0 W/m² 4,7 °C 6,7 °C 1,6 km/h (1 Bft)
14.10.2018 03:35 6,6 °C 87 % 1015,5 hPa 0,0 mm 0,0 km/h (0 Bft) SO 124 ° 0 min 0,000 mm 0,0 UV-I 0 W/m² 4,6 °C 6,6 °C 0,0 km/h (0 Bft)
14.10.2018 03:36 6,6 °C 87 % 1015,5 hPa 0,0 mm 0,0 km/h (0 Bft) SO 124 ° 0 min 0,000 mm 0,0 UV-I 0 W/m² 4,6 °C 6,6 °C 0,0 km/h (0 Bft)
14.10.2018 03:37 6,4 °C 88 % 1015,6 hPa 0,0 mm 1,6 km/h (1 Bft) SO 135 ° 0 min 0,000 mm 0,0 UV-I 0 W/m² 4,6 °C 6,4 °C 3,2 km/h (1 Bft)
14.10.2018 03:38 6,3 °C 88 % 1015,5 hPa 0,0 mm 0,0 km/h (0 Bft) N 0 ° 0 min 0,000 mm 0,0 UV-I 0 W/m² 4,5 °C 6,3 °C 0,0 km/h (0 Bft)
14.10.2018 03:39 6,3 °C 88 % 1015,5 hPa 0,0 mm 0,0 km/h (0 Bft) N 0 ° 0 min 0,000 mm 0,0 UV-I 0 W/m² 4,5 °C 6,3 °C 0,0 km/h (0 Bft)
14.10.2018 03:40 6,2 °C 88 % 1015,5 hPa 0,0 mm 0,0 km/h (0 Bft) N 0 ° 0 min 0,000 mm 0,0 UV-I 0 W/m² 4,4 °C 6,2 °C 0,0 km/h (0 Bft)
14.10.2018 03:41 6,2 °C 89 % 1015,5 hPa 0,0 mm 0,0 km/h (0 Bft) N 0 ° 0 min 0,000 mm 0,0 UV-I 0 W/m² 4,5 °C 6,2 °C 0,0 km/h (0 Bft)
14.10.2018 03:42 6,2 °C 89 % 1015,6 hPa 0,0 mm 0,0 km/h (0 Bft) N 0 ° 0 min 0,000 mm 0,0 UV-I 0 W/m² 4,5 °C 6,2 °C 0,0 km/h (0 Bft)
14.10.2018 03:43 6,3 °C 89 % 1015,5 hPa 0,0 mm 0,0 km/h (0 Bft) SO 135 ° 0 min 0,000 mm 0,0 UV-I 0 W/m² 4,6 °C 6,3 °C 1,6 km/h (1 Bft)
14.10.2018 03:45 6,4 °C 89 % 1015,5 hPa 0,0 mm 0,0 km/h (0 Bft) SO 124 ° 0 min 0,000 mm 0,0 UV-I 0 W/m² 4,7 °C 6,4 °C 0,0 km/h (0 Bft)
14.10.2018 03:46 6,4 °C 89 % 1015,6 hPa 0,0 mm 0,0 km/h (0 Bft) SO 124 ° 0 min 0,000 mm 0,0 UV-I 0 W/m² 4,7 °C 6,4 °C 0,0 km/h (0 Bft)
14.10.2018 03:47 6,6 °C 89 % 1015,5 hPa 0,0 mm 0,0 km/h (0 Bft) N 0 ° 0 min 0,000 mm 0,0 UV-I 0 W/m² 4,9 °C 6,6 °C 0,0 km/h (0 Bft)
14.10.2018 03:48 6,8 °C 88 % 1015,5 hPa 0,0 mm 0,0 km/h (0 Bft) N 0 ° 0 min 0,000 mm 0,0 UV-I 0 W/m² 5,0 °C 6,8 °C 0,0 km/h (0 Bft)
14.10.2018 03:49 6,9 °C 87 % 1015,5 hPa 0,0 mm 0,0 km/h (0 Bft) N 0 ° 0 min 0,000 mm 0,0 UV-I 0 W/m² 4,9 °C 6,9 °C 0,0 km/h (0 Bft)
14.10.2018 03:50 7,0 °C 87 % 1015,5 hPa 0,0 mm 0,0 km/h (0 Bft) N 0 ° 0 min 0,000 mm 0,0 UV-I 0 W/m² 5,0 °C 7,0 °C 0,0 km/h (0 Bft)
14.10.2018 03:51 7,1 °C 86 % 1015,5 hPa 0,0 mm 1,6 km/h (1 Bft) SO 135 ° 0 min 0,000 mm 0,0 UV-I 0 W/m² 4,9 °C 7,1 °C 3,2 km/h (1 Bft)
14.10.2018 03:52 7,2 °C 87 % 1015,4 hPa 0,0 mm 0,0 km/h (0 Bft) N 0 ° 0 min 0,000 mm 0,0 UV-I 0 W/m² 5,2 °C 7,2 °C 0,0 km/h (0 Bft)
14.10.2018 03:53 7,3 °C 85 % 1015,4 hPa 0,0 mm 0,0 km/h (0 Bft) N 0 ° 0 min 0,000 mm 0,0 UV-I 0 W/m² 4,9 °C 7,3 °C 0,0 km/h (0 Bft)
14.10.2018 03:55 7,6 °C 84 % 1015,4 hPa 0,0 mm 0,0 km/h (0 Bft) SO 124 ° 0 min 0,000 mm 0,0 UV-I 0 W/m² 5,1 °C 7,6 °C 0,0 km/h (0 Bft)
14.10.2018 03:56 7,6 °C 84 % 1015,4 hPa 0,0 mm 0,0 km/h (0 Bft) SO 124 ° 0 min 0,000 mm 0,0 UV-I 0 W/m² 5,1 °C 7,6 °C 0,0 km/h (0 Bft)
14.10.2018 03:57 7,7 °C 83 % 1015,3 hPa 0,0 mm 0,0 km/h (0 Bft) SO 124 ° 0 min 0,000 mm 0,0 UV-I 0 W/m² 5,0 °C 7,7 °C 0,0 km/h (0 Bft)
14.10.2018 03:58 7,8 °C 82 % 1015,3 hPa 0,0 mm 0,0 km/h (0 Bft) SO 124 ° 0 min 0,000 mm 0,0 UV-I 0 W/m² 4,9 °C 7,8 °C 0,0 km/h (0 Bft)
14.10.2018 03:59 7,8 °C 81 % 1015,3 hPa 0,0 mm 0,2 km/h (0 Bft) SO 124 ° 0 min 0,000 mm 0,0 UV-I 0 W/m² 4,7 °C 7,8 °C 1,6 km/h (1 Bft)
14.10.2018 04:00 7,8 °C 81 % 1015,4 hPa 0,0 mm 0,0 km/h (0 Bft) SO 124 ° 0 min 0,000 mm 0,0 UV-I 0 W/m² 4,7 °C 7,8 °C 0,0 km/h (0 Bft)
14.10.2018 04:01 7,8 °C 81 % 1015,4 hPa 0,0 mm 0,0 km/h (0 Bft) SO 124 ° 0 min 0,000 mm 0,0 UV-I 0 W/m² 4,7 °C 7,8 °C 0,0 km/h (0 Bft)
14.10.2018 04:02 7,7 °C 81 % 1015,4 hPa 0,0 mm 0,0 km/h (0 Bft) SO 124 ° 0 min 0,000 mm 0,0 UV-I 0 W/m² 4,7 °C 7,7 °C 0,0 km/h (0 Bft)
14.10.2018 04:03 7,4 °C 81 % 1015,4 hPa 0,0 mm 0,0 km/h (0 Bft) SO 124 ° 0 min 0,000 mm 0,0 UV-I 0 W/m² 4,4 °C 7,4 °C 0,0 km/h (0 Bft)
14.10.2018 04:04 7,3 °C 82 % 1015,3 hPa 0,0 mm 0,3 km/h (0 Bft) SO 124 ° 0 min 0,000 mm 0,0 UV-I 0 W/m² 4,4 °C 7,3 °C 1,6 km/h (1 Bft)
14.10.2018 04:05 7,2 °C 83 % 1015,3 hPa 0,0 mm 0,9 km/h (0 Bft) SO 124 ° 0 min 0,000 mm 0,0 UV-I 0 W/m² 4,5 °C 7,2 °C 1,6 km/h (1 Bft)
14.10.2018 04:06 7,1 °C 84 % 1015,4 hPa 0,0 mm 0,0 km/h (0 Bft) SO 124 ° 0 min 0,000 mm 0,0 UV-I 0 W/m² 4,6 °C 7,1 °C 0,0 km/h (0 Bft)
14.10.2018 04:07 7,1 °C 84 % 1015,3 hPa 0,0 mm 0,1 km/h (0 Bft) SO 124 ° 0 min 0,000 mm 0,0 UV-I 0 W/m² 4,6 °C 7,1 °C 1,6 km/h (1 Bft)
14.10.2018 04:08 7,1 °C 84 % 1015,3 hPa 0,0 mm 0,0 km/h (0 Bft) SO 124 ° 0 min 0,000 mm 0,0 UV-I 0 W/m² 4,6 °C 7,1 °C 0,0 km/h (0 Bft)
14.10.2018 04:09 7,2 °C 84 % 1015,3 hPa 0,0 mm 0,0 km/h (0 Bft) SO 124 ° 0 min 0,000 mm 0,0 UV-I 0 W/m² 4,7 °C 7,2 °C 0,0 km/h (0 Bft)
14.10.2018 04:10 7,1 °C 83 % 1015,4 hPa 0,0 mm 0,0 km/h (0 Bft) SO 124 ° 0 min 0,000 mm 0,0 UV-I 0 W/m² 4,4 °C 7,1 °C 0,0 km/h (0 Bft)
14.10.2018 04:11 7,1 °C 83 % 1015,3 hPa 0,0 mm 0,0 km/h (0 Bft) SO 124 ° 0 min 0,000 mm 0,0 UV-I 0 W/m² 4,4 °C 7,1 °C 0,0 km/h (0 Bft)
14.10.2018 04:12 7,0 °C 83 % 1015,3 hPa 0,0 mm 0,0 km/h (0 Bft) SO 124 ° 0 min 0,000 mm 0,0 UV-I 0 W/m² 4,3 °C 7,0 °C 0,0 km/h (0 Bft)
14.10.2018 04:13 6,9 °C 83 % 1015,2 hPa 0,0 mm 0,0 km/h (0 Bft) SO 124 ° 0 min 0,000 mm 0,0 UV-I 0 W/m² 4,2 °C 6,9 °C 0,0 km/h (0 Bft)
14.10.2018 04:14 6,9 °C 84 % 1015,2 hPa 0,0 mm 0,0 km/h (0 Bft) SO 124 ° 0 min 0,000 mm 0,0 UV-I 0 W/m² 4,4 °C 6,9 °C 0,0 km/h (0 Bft)
14.10.2018 04:15 6,9 °C 84 % 1015,2 hPa 0,0 mm 0,0 km/h (0 Bft) SO 124 ° 0 min 0,000 mm 0,0 UV-I 0 W/m² 4,4 °C 6,9 °C 0,0 km/h (0 Bft)
14.10.2018 04:16 6,9 °C 85 % 1015,2 hPa 0,0 mm 0,0 km/h (0 Bft) SO 124 ° 0 min 0,000 mm 0,0 UV-I 0 W/m² 4,6 °C 6,9 °C 0,0 km/h (0 Bft)
14.10.2018 04:17 7,1 °C 85 % 1015,2 hPa 0,0 mm 0,0 km/h (0 Bft) SO 124 ° 0 min 0,000 mm 0,0 UV-I 0 W/m² 4,8 °C 7,1 °C 0,0 km/h (0 Bft)
14.10.2018 04:18 7,2 °C 84 % 1015,2 hPa 0,0 mm 0,0 km/h (0 Bft) SO 124 ° 0 min 0,000 mm 0,0 UV-I 0 W/m² 4,7 °C 7,2 °C 0,0 km/h (0 Bft)
14.10.2018 04:19 7,4 °C 84 % 1015,2 hPa 0,0 mm 0,0 km/h (0 Bft) SO 124 ° 0 min 0,000 mm 0,0 UV-I 0 W/m² 4,9 °C 7,4 °C 0,0 km/h (0 Bft)
14.10.2018 04:20 7,6 °C 83 % 1015,2 hPa 0,0 mm 0,0 km/h (0 Bft) SO 124 ° 0 min 0,000 mm 0,0 UV-I 0 W/m² 4,9 °C 7,6 °C 0,0 km/h (0 Bft)
14.10.2018 04:21 7,7 °C 83 % 1015,2 hPa 0,0 mm 0,0 km/h (0 Bft) SO 124 ° 0 min 0,000 mm 0,0 UV-I 0 W/m² 5,0 °C 7,7 °C 0,0 km/h (0 Bft)
14.10.2018 04:22 7,7 °C 81 % 1015,1 hPa 0,0 mm 0,0 km/h (0 Bft) SO 124 ° 0 min 0,000 mm 0,0 UV-I 0 W/m² 4,7 °C 7,7 °C 0,0 km/h (0 Bft)
14.10.2018 04:23 7,8 °C 81 % 1015,1 hPa 0,0 mm 0,0 km/h (0 Bft) SO 124 ° 0 min 0,000 mm 0,0 UV-I 0 W/m² 4,7 °C 7,8 °C 0,0 km/h (0 Bft)
14.10.2018 04:24 7,9 °C 80 % 1015,1 hPa 0,0 mm 0,0 km/h (0 Bft) SO 124 ° 0 min 0,000 mm 0,0 UV-I 0 W/m² 4,7 °C 7,9 °C 0,0 km/h (0 Bft)
14.10.2018 04:25 7,9 °C 79 % 1015,1 hPa 0,0 mm 0,0 km/h (0 Bft) SO 124 ° 0 min 0,000 mm 0,0 UV-I 0 W/m² 4,5 °C 7,9 °C 0,0 km/h (0 Bft)
14.10.2018 04:26 7,9 °C 79 % 1015,1 hPa 0,0 mm 0,0 km/h (0 Bft) SO 124 ° 0 min 0,000 mm 0,0 UV-I 0 W/m² 4,5 °C 7,9 °C 0,0 km/h (0 Bft)
14.10.2018 04:27 7,8 °C 80 % 1015,1 hPa 0,0 mm 0,0 km/h (0 Bft) SO 124 ° 0 min 0,000 mm 0,0 UV-I 0 W/m² 4,6 °C 7,8 °C 0,0 km/h (0 Bft)
14.10.2018 04:28 7,7 °C 79 % 1015,1 hPa 0,0 mm 0,0 km/h (0 Bft) SO 124 ° 0 min 0,000 mm 0,0 UV-I 0 W/m² 4,3 °C 7,7 °C 0,0 km/h (0 Bft)
14.10.2018 04:29 7,6 °C 80 % 1015,1 hPa 0,0 mm 0,0 km/h (0 Bft) SO 124 ° 0 min 0,000 mm 0,0 UV-I 0 W/m² 4,4 °C 7,6 °C 0,0 km/h (0 Bft)
14.10.2018 04:30 7,6 °C 80 % 1015,1 hPa 0,0 mm 0,0 km/h (0 Bft) SO 124 ° 0 min 0,000 mm 0,0 UV-I 0 W/m² 4,4 °C 7,6 °C 0,0 km/h (0 Bft)
14.10.2018 04:31 7,8 °C 79 % 1015,1 hPa 0,0 mm 0,8 km/h (0 Bft) SO 124 ° 0 min 0,000 mm 0,0 UV-I 0 W/m² 4,4 °C 7,8 °C 1,6 km/h (1 Bft)
14.10.2018 04:32 8,1 °C 78 % 1015,1 hPa 0,0 mm 0,0 km/h (0 Bft) SO 124 ° 0 min 0,000 mm 0,0 UV-I 0 W/m² 4,5 °C 8,1 °C 0,0 km/h (0 Bft)
14.10.2018 04:33 8,3 °C 79 % 1015,1 hPa 0,0 mm 0,0 km/h (0 Bft) SO 124 ° 0 min 0,000 mm 0,0 UV-I 0 W/m² 4,9 °C 8,3 °C 0,0 km/h (0 Bft)
14.10.2018 04:34 8,3 °C 77 % 1015,1 hPa 0,0 mm 0,0 km/h (0 Bft) SO 124 ° 0 min 0,000 mm 0,0 UV-I 0 W/m² 4,5 °C 8,3 °C 0,0 km/h (0 Bft)
14.10.2018 04:35 8,1 °C 78 % 1015,1 hPa 0,0 mm 0,0 km/h (0 Bft) SO 124 ° 0 min 0,000 mm 0,0 UV-I 0 W/m² 4,5 °C 8,1 °C 0,0 km/h (0 Bft)
14.10.2018 04:36 7,8 °C 78 % 1015,2 hPa 0,0 mm 0,0 km/h (0 Bft) SO 124 ° 0 min 0,000 mm 0,0 UV-I 0 W/m² 4,2 °C 7,8 °C 0,0 km/h (0 Bft)
14.10.2018 04:37 7,7 °C 79 % 1015,2 hPa 0,0 mm 0,6 km/h (0 Bft) SO 124 ° 0 min 0,000 mm 0,0 UV-I 0 W/m² 4,3 °C 7,7 °C 1,6 km/h (1 Bft)
14.10.2018 04:38 7,7 °C 79 % 1015,2 hPa 0,0 mm 0,0 km/h (0 Bft) SO 124 ° 0 min 0,000 mm 0,0 UV-I 0 W/m² 4,3 °C 7,7 °C 0,0 km/h (0 Bft)
14.10.2018 04:39 7,4 °C 79 % 1015,2 hPa 0,0 mm 0,0 km/h (0 Bft) SO 124 ° 0 min 0,000 mm 0,0 UV-I 0 W/m² 4,0 °C 7,4 °C 0,0 km/h (0 Bft)
14.10.2018 04:40 7,2 °C 80 % 1015,2 hPa 0,0 mm 0,0 km/h (0 Bft) SO 124 ° 0 min 0,000 mm 0,0 UV-I 0 W/m² 4,0 °C 7,2 °C 0,0 km/h (0 Bft)
14.10.2018 04:41 6,9 °C 81 % 1015,2 hPa 0,0 mm 0,0 km/h (0 Bft) SO 124 ° 0 min 0,000 mm 0,0 UV-I 0 W/m² 3,9 °C 6,9 °C 0,0 km/h (0 Bft)
14.10.2018 04:42 6,7 °C 82 % 1015,2 hPa 0,0 mm 0,0 km/h (0 Bft) SO 124 ° 0 min 0,000 mm 0,0 UV-I 0 W/m² 3,8 °C 6,7 °C 0,0 km/h (0 Bft)
14.10.2018 04:43 6,4 °C 83 % 1015,2 hPa 0,0 mm 0,0 km/h (0 Bft) SO 124 ° 0 min 0,000 mm 0,0 UV-I 0 W/m² 3,7 °C 6,4 °C 0,0 km/h (0 Bft)
14.10.2018 04:44 6,3 °C 83 % 1015,2 hPa 0,0 mm 0,0 km/h (0 Bft) SO 124 ° 0 min 0,000 mm 0,0 UV-I 0 W/m² 3,6 °C 6,3 °C 0,0 km/h (0 Bft)
14.10.2018 04:45 6,2 °C 85 % 1015,2 hPa 0,0 mm 0,0 km/h (0 Bft) SO 124 ° 0 min 0,000 mm 0,0 UV-I 0 W/m² 3,9 °C 6,2 °C 0,0 km/h (0 Bft)
14.10.2018 04:46 6,3 °C 86 % 1015,2 hPa 0,0 mm 0,0 km/h (0 Bft) SO 124 ° 0 min 0,000 mm 0,0 UV-I 0 W/m² 4,1 °C 6,3 °C 0,0 km/h (0 Bft)
14.10.2018 04:47 6,3 °C 85 % 1015,2 hPa 0,0 mm 0,0 km/h (0 Bft) SO 125 ° 0 min 0,000 mm 0,0 UV-I 0 W/m² 4,0 °C 6,3 °C 0,0 km/h (0 Bft)
14.10.2018 04:48 6,6 °C 85 % 1015,2 hPa 0,0 mm 0,0 km/h (0 Bft) SO 125 ° 0 min 0,000 mm 0,0 UV-I 0 W/m² 4,3 °C 6,6 °C 0,0 km/h (0 Bft)
14.10.2018 04:49 6,8 °C 84 % 1015,2 hPa 0,0 mm 2,1 km/h (1 Bft) SO 126 ° 0 min 0,000 mm 0,0 UV-I 0 W/m² 4,3 °C 6,8 °C 4,8 km/h (1 Bft)
14.10.2018 04:50 7,2 °C 82 % 1015,1 hPa 0,0 mm 0,5 km/h (0 Bft) SO 126 ° 0 min 0,000 mm 0,0 UV-I 0 W/m² 4,3 °C 7,2 °C 1,6 km/h (1 Bft)
14.10.2018 04:51 7,3 °C 81 % 1015,2 hPa 0,0 mm 0,4 km/h (0 Bft) SO 126 ° 0 min 0,000 mm 0,0 UV-I 0 W/m² 4,3 °C 7,3 °C 1,6 km/h (1 Bft)
14.10.2018 04:52 7,4 °C 81 % 1015,2 hPa 0,0 mm 1,4 km/h (1 Bft) SO 125 ° 0 min 0,000 mm 0,0 UV-I 0 W/m² 4,4 °C 7,4 °C 3,2 km/h (1 Bft)
14.10.2018 04:53 7,3 °C 81 % 1015,2 hPa 0,0 mm 1,7 km/h (1 Bft) SO 125 ° 0 min 0,000 mm 0,0 UV-I 0 W/m² 4,3 °C 7,3 °C 3,2 km/h (1 Bft)
14.10.2018 04:54 7,1 °C 81 % 1015,2 hPa 0,0 mm 0,6 km/h (0 Bft) SO 125 ° 0 min 0,000 mm 0,0 UV-I 0 W/m² 4,1 °C 7,1 °C 1,6 km/h (1 Bft)
14.10.2018 04:55 6,9 °C 82 % 1015,2 hPa 0,0 mm 0,0 km/h (0 Bft) SO 126 ° 0 min 0,000 mm 0,0 UV-I 0 W/m² 4,0 °C 6,9 °C 0,0 km/h (0 Bft)
14.10.2018 04:56 6,5 °C 82 % 1015,2 hPa 0,0 mm 0,0 km/h (0 Bft) SO 125 ° 0 min 0,000 mm 0,0 UV-I 0 W/m² 3,7 °C 6,5 °C 0,0 km/h (0 Bft)
14.10.2018 04:57 6,2 °C 83 % 1015,2 hPa 0,0 mm 0,0 km/h (0 Bft) SO 126 ° 0 min 0,000 mm 0,0 UV-I 0 W/m² 3,5 °C 6,2 °C 0,0 km/h (0 Bft)
14.10.2018 04:58 6,0 °C 84 % 1015,3 hPa 0,0 mm 0,0 km/h (0 Bft) SO 125 ° 0 min 0,000 mm 0,0 UV-I 0 W/m² 3,5 °C 6,0 °C 0,0 km/h (0 Bft)
14.10.2018 04:59 5,8 °C 85 % 1015,2 hPa 0,0 mm 0,0 km/h (0 Bft) SO 125 ° 0 min 0,000 mm 0,0 UV-I 0 W/m² 3,5 °C 5,8 °C 0,0 km/h (0 Bft)
14.10.2018 05:00 5,8 °C 86 % 1015,2 hPa 0,0 mm 0,0 km/h (0 Bft) SO 125 ° 0 min 0,000 mm 0,0 UV-I 0 W/m² 3,6 °C 5,8 °C 0,0 km/h (0 Bft)
14.10.2018 05:01 5,8 °C 87 % 1015,2 hPa 0,0 mm 0,0 km/h (0 Bft) SO 125 ° 0 min 0,000 mm 0,0 UV-I 0 W/m² 3,8 °C 5,8 °C 0,0 km/h (0 Bft)
14.10.2018 05:02 6,1 °C 87 % 1015,2 hPa 0,0 mm 0,5 km/h (0 Bft) SO 126 ° 0 min 0,000 mm 0,0 UV-I 0 W/m² 4,1 °C 6,1 °C 1,6 km/h (1 Bft)
14.10.2018 05:03 6,2 °C 87 % 1015,2 hPa 0,0 mm 0,0 km/h (0 Bft) SO 126 ° 0 min 0,000 mm 0,0 UV-I 0 W/m² 4,2 °C 6,2 °C 0,0 km/h (0 Bft)
14.10.2018 05:04 6,4 °C 87 % 1015,2 hPa 0,0 mm 0,7 km/h (0 Bft) SO 125 ° 0 min 0,000 mm 0,0 UV-I 0 W/m² 4,4 °C 6,4 °C 1,6 km/h (1 Bft)
14.10.2018 05:05 6,6 °C 86 % 1015,2 hPa 0,0 mm 0,0 km/h (0 Bft) SO 126 ° 0 min 0,000 mm 0,0 UV-I 0 W/m² 4,4 °C 6,6 °C 0,0 km/h (0 Bft)
14.10.2018 05:06 6,8 °C 85 % 1015,2 hPa 0,0 mm 0,1 km/h (0 Bft) SO 126 ° 0 min 0,000 mm 0,0 UV-I 0 W/m² 4,5 °C 6,8 °C 1,6 km/h (1 Bft)
14.10.2018 05:07 7,1 °C 84 % 1015,2 hPa 0,0 mm 0,0 km/h (0 Bft) SO 126 ° 0 min 0,000 mm 0,0 UV-I 0 W/m² 4,6 °C 7,1 °C 0,0 km/h (0 Bft)
14.10.2018 05:08 7,2 °C 83 % 1015,2 hPa 0,0 mm 0,0 km/h (0 Bft) SO 126 ° 0 min 0,000 mm 0,0 UV-I 0 W/m² 4,5 °C 7,2 °C 0,0 km/h (0 Bft)
14.10.2018 05:09 7,3 °C 82 % 1015,2 hPa 0,0 mm 0,0 km/h (0 Bft) SO 125 ° 0 min 0,000 mm 0,0 UV-I 0 W/m² 4,4 °C 7,3 °C 0,0 km/h (0 Bft)
14.10.2018 05:10 7,3 °C 82 % 1015,2 hPa 0,0 mm 0,0 km/h (0 Bft) SO 125 ° 0 min 0,000 mm 0,0 UV-I 0 W/m² 4,4 °C 7,3 °C 0,0 km/h (0 Bft)
14.10.2018 05:11 7,3 °C 82 % 1015,2 hPa 0,0 mm 0,0 km/h (0 Bft) SO 125 ° 0 min 0,000 mm 0,0 UV-I 0 W/m² 4,4 °C 7,3 °C 0,0 km/h (0 Bft)
14.10.2018 05:12 7,0 °C 81 % 1015,2 hPa 0,0 mm 0,0 km/h (0 Bft) N 0 ° 0 min 0,000 mm 0,0 UV-I 0 W/m² 4,0 °C 7,0 °C 0,0 km/h (0 Bft)
14.10.2018 05:13 6,7 °C 82 % 1015,2 hPa 0,0 mm 0,0 km/h (0 Bft) N 0 ° 0 min 0,000 mm 0,0 UV-I 0 W/m² 3,8 °C 6,7 °C 0,0 km/h (0 Bft)
14.10.2018 05:14 6,4 °C 82 % 1015,2 hPa 0,0 mm 0,0 km/h (0 Bft) N 0 ° 0 min 0,000 mm 0,0 UV-I 0 W/m² 3,6 °C 6,4 °C 0,0 km/h (0 Bft)
14.10.2018 05:15 6,3 °C 83 % 1015,2 hPa 0,0 mm 0,0 km/h (0 Bft) N 0 ° 0 min 0,000 mm 0,0 UV-I 0 W/m² 3,6 °C 6,3 °C 0,0 km/h (0 Bft)
14.10.2018 05:16 6,1 °C 84 % 1015,2 hPa 0,0 mm 0,0 km/h (0 Bft) N 0 ° 0 min 0,000 mm 0,0 UV-I 0 W/m² 3,6 °C 6,1 °C 0,0 km/h (0 Bft)
14.10.2018 05:17 5,9 °C 85 % 1015,2 hPa 0,0 mm 0,0 km/h (0 Bft) N 0 ° 0 min 0,000 mm 0,0 UV-I 0 W/m² 3,6 °C 5,9 °C 0,0 km/h (0 Bft)
14.10.2018 05:18 5,8 °C 85 % 1015,2 hPa 0,0 mm 0,0 km/h (0 Bft) SO 135 ° 0 min 0,000 mm 0,0 UV-I 0 W/m² 3,5 °C 5,8 °C 1,6 km/h (1 Bft)
14.10.2018 05:19 5,7 °C 85 % 1015,3 hPa 0,0 mm 0,0 km/h (0 Bft) N 0 ° 0 min 0,000 mm 0,0 UV-I 0 W/m² 3,4 °C 5,7 °C 0,0 km/h (0 Bft)
14.10.2018 05:20 5,6 °C 86 % 1015,3 hPa 0,0 mm 0,0 km/h (0 Bft) N 0 ° 0 min 0,000 mm 0,0 UV-I 0 W/m² 3,4 °C 5,6 °C 0,0 km/h (0 Bft)
14.10.2018 05:21 5,6 °C 87 % 1015,2 hPa 0,0 mm 0,0 km/h (0 Bft) N 0 ° 0 min 0,000 mm 0,0 UV-I 0 W/m² 3,6 °C 5,6 °C 0,0 km/h (0 Bft)
14.10.2018 05:22 5,7 °C 87 % 1015,3 hPa 0,0 mm 0,0 km/h (0 Bft) N 0 ° 0 min 0,000 mm 0,0 UV-I 0 W/m² 3,7 °C 5,7 °C 0,0 km/h (0 Bft)
14.10.2018 05:23 5,8 °C 87 % 1015,3 hPa 0,0 mm 0,0 km/h (0 Bft) N 0 ° 0 min 0,000 mm 0,0 UV-I 0 W/m² 3,8 °C 5,8 °C 0,0 km/h (0 Bft)
14.10.2018 05:24 6,1 °C 87 % 1015,3 hPa 0,0 mm 0,0 km/h (0 Bft) N 0 ° 0 min 0,000 mm 0,0 UV-I 0 W/m² 4,1 °C 6,1 °C 0,0 km/h (0 Bft)
14.10.2018 05:25 6,2 °C 86 % 1015,3 hPa 0,0 mm 0,0 km/h (0 Bft) N 0 ° 0 min 0,000 mm 0,0 UV-I 0 W/m² 4,0 °C 6,2 °C 0,0 km/h (0 Bft)
14.10.2018 05:26 6,2 °C 85 % 1015,3 hPa 0,0 mm 0,0 km/h (0 Bft) N 0 ° 0 min 0,000 mm 0,0 UV-I 0 W/m² 3,9 °C 6,2 °C 0,0 km/h (0 Bft)
14.10.2018 05:27 6,2 °C 85 % 1015,3 hPa 0,0 mm 0,0 km/h (0 Bft) N 0 ° 0 min 0,000 mm 0,0 UV-I 0 W/m² 3,9 °C 6,2 °C 0,0 km/h (0 Bft)
14.10.2018 05:28 6,3 °C 86 % 1015,3 hPa 0,0 mm 0,0 km/h (0 Bft) SO 135 ° 0 min 0,000 mm 0,0 UV-I 0 W/m² 4,1 °C 6,3 °C 1,6 km/h (1 Bft)
14.10.2018 05:30 6,6 °C 85 % 1015,3 hPa 0,0 mm 0,0 km/h (0 Bft) SO 125 ° 0 min 0,000 mm 0,0 UV-I 0 W/m² 4,3 °C 6,6 °C 0,0 km/h (0 Bft)
14.10.2018 05:31 6,6 °C 85 % 1015,3 hPa 0,0 mm 0,0 km/h (0 Bft) SO 126 ° 0 min 0,000 mm 0,0 UV-I 0 W/m² 4,3 °C 6,6 °C 0,0 km/h (0 Bft)
14.10.2018 05:32 6,6 °C 83 % 1015,2 hPa 0,0 mm 0,0 km/h (0 Bft) N 0 ° 0 min 0,000 mm 0,0 UV-I 0 W/m² 3,9 °C 6,6 °C 0,0 km/h (0 Bft)
14.10.2018 05:33 6,6 °C 84 % 1015,2 hPa 0,0 mm 1,6 km/h (1 Bft) SO 135 ° 0 min 0,000 mm 0,0 UV-I 0 W/m² 4,1 °C 6,6 °C 3,2 km/h (1 Bft)
14.10.2018 05:34 6,8 °C 85 % 1015,2 hPa 0,0 mm 0,0 km/h (0 Bft) SO 135 ° 0 min 0,000 mm 0,0 UV-I 0 W/m² 4,5 °C 6,8 °C 1,6 km/h (1 Bft)
14.10.2018 05:35 7,1 °C 83 % 1015,2 hPa 0,0 mm 0,0 km/h (0 Bft) N 0 ° 0 min 0,000 mm 0,0 UV-I 0 W/m² 4,4 °C 7,1 °C 0,0 km/h (0 Bft)
14.10.2018 05:36 7,2 °C 81 % 1015,2 hPa 0,0 mm 0,0 km/h (0 Bft) N 0 ° 0 min 0,000 mm 0,0 UV-I 0 W/m² 4,2 °C 7,2 °C 0,0 km/h (0 Bft)
14.10.2018 05:37 7,2 °C 80 % 1015,2 hPa 0,0 mm 0,0 km/h (0 Bft) N 0 ° 0 min 0,000 mm 0,0 UV-I 0 W/m² 4,0 °C 7,2 °C 0,0 km/h (0 Bft)
14.10.2018 05:38 7,1 °C 80 % 1015,2 hPa 0,0 mm 0,0 km/h (0 Bft) N 0 ° 0 min 0,000 mm 0,0 UV-I 0 W/m² 3,9 °C 7,1 °C 0,0 km/h (0 Bft)
14.10.2018 05:40 6,8 °C 81 % 1015,2 hPa 0,0 mm 0,0 km/h (0 Bft) SO 130 ° 0 min 0,000 mm 0,0 UV-I 0 W/m² 3,8 °C 6,8 °C 0,0 km/h (0 Bft)
14.10.2018 05:41 6,8 °C 81 % 1015,2 hPa 0,0 mm 0,0 km/h (0 Bft) SO 130 ° 0 min 0,000 mm 0,0 UV-I 0 W/m² 3,8 °C 6,8 °C 0,0 km/h (0 Bft)
14.10.2018 05:42 6,8 °C 82 % 1015,1 hPa 0,0 mm 0,0 km/h (0 Bft) SO 130 ° 0 min 0,000 mm 0,0 UV-I 0 W/m² 3,9 °C 6,8 °C 0,0 km/h (0 Bft)
14.10.2018 05:43 6,8 °C 82 % 1015,1 hPa 0,0 mm 0,0 km/h (0 Bft) SO 130 ° 0 min 0,000 mm 0,0 UV-I 0 W/m² 3,9 °C 6,8 °C 0,0 km/h (0 Bft)
14.10.2018 05:44 6,8 °C 81 % 1015,1 hPa 0,0 mm 1,3 km/h (1 Bft) SO 141 ° 0 min 0,000 mm 0,0 UV-I 0 W/m² 3,8 °C 6,8 °C 4,8 km/h (1 Bft)
14.10.2018 05:45 6,5 °C 80 % 1015,2 hPa 0,0 mm 3,3 km/h (1 Bft) W 275 ° 0 min 0,000 mm 0,0 UV-I 0 W/m² 3,3 °C 6,5 °C 4,8 km/h (1 Bft)
14.10.2018 05:46 6,3 °C 81 % 1015,3 hPa 0,0 mm 1,1 km/h (1 Bft) W 275 ° 0 min 0,000 mm 0,0 UV-I 0 W/m² 3,3 °C 6,3 °C 3,2 km/h (1 Bft)
14.10.2018 05:47 5,9 °C 81 % 1015,3 hPa 0,0 mm 0,0 km/h (0 Bft) W 275 ° 0 min 0,000 mm 0,0 UV-I 0 W/m² 2,9 °C 5,9 °C 0,0 km/h (0 Bft)
14.10.2018 05:48 5,6 °C 82 % 1015,3 hPa 0,0 mm 0,0 km/h (0 Bft) W 274 ° 0 min 0,000 mm 0,0 UV-I 0 W/m² 2,8 °C 5,6 °C 0,0 km/h (0 Bft)
14.10.2018 05:49 5,3 °C 83 % 1015,3 hPa 0,0 mm 0,0 km/h (0 Bft) W 274 ° 0 min 0,000 mm 0,0 UV-I 0 W/m² 2,7 °C 5,3 °C 0,0 km/h (0 Bft)
14.10.2018 05:50 5,2 °C 85 % 1015,3 hPa 0,0 mm 0,0 km/h (0 Bft) W 274 ° 0 min 0,000 mm 0,0 UV-I 0 W/m² 2,9 °C 5,2 °C 0,0 km/h (0 Bft)
14.10.2018 05:51 5,1 °C 86 % 1015,3 hPa 0,0 mm 0,2 km/h (0 Bft) W 274 ° 0 min 0,000 mm 0,0 UV-I 0 W/m² 3,0 °C 5,1 °C 1,6 km/h (1 Bft)
14.10.2018 05:52 5,2 °C 86 % 1015,2 hPa 0,0 mm 1,0 km/h (0 Bft) W 274 ° 0 min 0,000 mm 0,0 UV-I 0 W/m² 3,1 °C 5,2 °C 1,6 km/h (1 Bft)
14.10.2018 05:53 5,4 °C 87 % 1015,3 hPa 0,0 mm 1,1 km/h (1 Bft) W 274 ° 0 min 0,000 mm 0,0 UV-I 0 W/m² 3,4 °C 5,4 °C 1,6 km/h (1 Bft)
14.10.2018 05:54 5,7 °C 87 % 1015,3 hPa 0,0 mm 0,2 km/h (0 Bft) W 274 ° 0 min 0,000 mm 0,0 UV-I 0 W/m² 3,7 °C 5,7 °C 1,6 km/h (1 Bft)
14.10.2018 05:55 5,9 °C 86 % 1015,3 hPa 0,0 mm 0,0 km/h (0 Bft) W 274 ° 0 min 0,000 mm 0,0 UV-I 0 W/m² 3,7 °C 5,9 °C 0,0 km/h (0 Bft)
14.10.2018 05:56 6,1 °C 86 % 1015,2 hPa 0,0 mm 0,0 km/h (0 Bft) W 274 ° 0 min 0,000 mm 0,0 UV-I 0 W/m² 3,9 °C 6,1 °C 0,0 km/h (0 Bft)
14.10.2018 05:57 6,3 °C 85 % 1015,2 hPa 0,0 mm 1,0 km/h (0 Bft) W 274 ° 0 min 0,000 mm 0,0 UV-I 0 W/m² 4,0 °C 6,3 °C 3,2 km/h (1 Bft)
14.10.2018 05:58 6,6 °C 84 % 1015,2 hPa 0,0 mm 0,0 km/h (0 Bft) W 274 ° 0 min 0,000 mm 0,0 UV-I 0 W/m² 4,1 °C 6,6 °C 0,0 km/h (0 Bft)
14.10.2018 05:59 6,7 °C 83 % 1015,2 hPa 0,0 mm 0,0 km/h (0 Bft) W 274 ° 0 min 0,000 mm 0,0 UV-I 0 W/m² 4,0 °C 6,7 °C 0,0 km/h (0 Bft)
14.10.2018 06:00 6,7 °C 82 % 1015,3 hPa 0,0 mm 0,0 km/h (0 Bft) W 274 ° 0 min 0,000 mm 0,0 UV-I 0 W/m² 3,8 °C 6,7 °C 0,0 km/h (0 Bft)
14.10.2018 06:01 6,7 °C 81 % 1015,2 hPa 0,0 mm 0,0 km/h (0 Bft) W 274 ° 0 min 0,000 mm 0,0 UV-I 0 W/m² 3,7 °C 6,7 °C 0,0 km/h (0 Bft)
14.10.2018 06:02 6,6 °C 81 % 1015,2 hPa 0,0 mm 0,0 km/h (0 Bft) W 274 ° 0 min 0,000 mm 0,0 UV-I 0 W/m² 3,6 °C 6,6 °C 0,0 km/h (0 Bft)
14.10.2018 06:03 6,5 °C 81 % 1015,2 hPa 0,0 mm 0,0 km/h (0 Bft) W 274 ° 0 min 0,000 mm 0,0 UV-I 0 W/m² 3,5 °C 6,5 °C 0,0 km/h (0 Bft)
14.10.2018 06:04 6,4 °C 82 % 1015,2 hPa 0,0 mm 0,0 km/h (0 Bft) W 274 ° 0 min 0,000 mm 0,0 UV-I 0 W/m² 3,6 °C 6,4 °C 0,0 km/h (0 Bft)
14.10.2018 06:05 6,3 °C 82 % 1015,2 hPa 0,0 mm 1,0 km/h (0 Bft) W 274 ° 0 min 0,000 mm 0,0 UV-I 0 W/m² 3,5 °C 6,3 °C 3,2 km/h (1 Bft)
14.10.2018 06:06 6,3 °C 82 % 1015,2 hPa 0,0 mm 0,0 km/h (0 Bft) W 274 ° 0 min 0,000 mm 0,0 UV-I 0 W/m² 3,5 °C 6,3 °C 0,0 km/h (0 Bft)
14.10.2018 06:07 6,3 °C 83 % 1015,2 hPa 0,0 mm 1,6 km/h (1 Bft) W 270 ° 0 min 0,000 mm 0,0 UV-I 0 W/m² 3,6 °C 6,3 °C 3,2 km/h (1 Bft)
14.10.2018 06:08 6,3 °C 83 % 1015,2 hPa 0,0 mm 0,0 km/h (0 Bft) W 270 ° 0 min 0,000 mm 0,0 UV-I 0 W/m² 3,6 °C 6,3 °C 1,6 km/h (1 Bft)
14.10.2018 06:09 6,4 °C 83 % 1015,2 hPa 0,0 mm 0,0 km/h (0 Bft) N 0 ° 0 min 0,000 mm 0,0 UV-I 0 W/m² 3,7 °C 6,4 °C 0,0 km/h (0 Bft)
14.10.2018 06:10 6,2 °C 82 % 1015,2 hPa 0,0 mm 0,0 km/h (0 Bft) N 0 ° 0 min 0,000 mm 0,0 UV-I 0 W/m² 3,4 °C 6,2 °C 0,0 km/h (0 Bft)
14.10.2018 06:11 5,9 °C 81 % 1015,1 hPa 0,0 mm 0,0 km/h (0 Bft) N 0 ° 0 min 0,000 mm 0,0 UV-I 0 W/m² 2,9 °C 5,9 °C 0,0 km/h (0 Bft)
14.10.2018 06:12 5,7 °C 82 % 1015,1 hPa 0,0 mm 1,6 km/h (1 Bft) W 270 ° 0 min 0,000 mm 0,0 UV-I 0 W/m² 2,9 °C 5,7 °C 4,8 km/h (1 Bft)
14.10.2018 06:13 5,4 °C 83 % 1015,2 hPa 0,0 mm 4,8 km/h (1 Bft) W-NW 292 ° 0 min 0,000 mm 0,0 UV-I 0 W/m² 2,7 °C 4,6 °C 6,4 km/h (2 Bft)
14.10.2018 06:15 5,1 °C 84 % 1015,2 hPa 0,0 mm 0,6 km/h (0 Bft) W-NW 287 ° 0 min 0,000 mm 0,0 UV-I 0 W/m² 2,6 °C 5,1 °C 1,6 km/h (1 Bft)
14.10.2018 06:16 5,0 °C 85 % 1015,2 hPa 0,0 mm 0,1 km/h (0 Bft) W-NW 287 ° 0 min 0,000 mm 0,0 UV-I 0 W/m² 2,7 °C 5,0 °C 1,6 km/h (1 Bft)
14.10.2018 06:17 4,9 °C 85 % 1015,2 hPa 0,0 mm 1,0 km/h (0 Bft) W-NW 287 ° 0 min 0,000 mm 0,0 UV-I 0 W/m² 2,6 °C 4,9 °C 3,2 km/h (1 Bft)
14.10.2018 06:18 4,8 °C 86 % 1015,2 hPa 0,0 mm 0,0 km/h (0 Bft) W-NW 287 ° 0 min 0,000 mm 0,0 UV-I 0 W/m² 2,7 °C 4,8 °C 0,0 km/h (0 Bft)
14.10.2018 06:19 4,8 °C 86 % 1015,1 hPa 0,0 mm 1,6 km/h (1 Bft) W-NW 287 ° 0 min 0,000 mm 0,0 UV-I 0 W/m² 2,7 °C 4,8 °C 3,2 km/h (1 Bft)
14.10.2018 06:20 4,9 °C 87 % 1015,1 hPa 0,0 mm 0,5 km/h (0 Bft) W-NW 287 ° 0 min 0,000 mm 0,0 UV-I 0 W/m² 2,9 °C 4,9 °C 1,6 km/h (1 Bft)
14.10.2018 06:21 5,1 °C 87 % 1015,1 hPa 0,0 mm 0,0 km/h (0 Bft) W-NW 287 ° 0 min 0,000 mm 0,0 UV-I 0 W/m² 3,1 °C 5,1 °C 0,0 km/h (0 Bft)
14.10.2018 06:22 5,2 °C 87 % 1015,1 hPa 0,0 mm 0,0 km/h (0 Bft) W-NW 287 ° 0 min 0,000 mm 0,0 UV-I 0 W/m² 3,2 °C 5,2 °C 0,0 km/h (0 Bft)
14.10.2018 06:23 5,3 °C 86 % 1015,1 hPa 0,0 mm 0,0 km/h (0 Bft) W-NW 287 ° 0 min 0,000 mm 0,0 UV-I 0 W/m² 3,2 °C 5,3 °C 0,0 km/h (0 Bft)
14.10.2018 06:24 5,3 °C 86 % 1015,1 hPa 0,0 mm 0,0 km/h (0 Bft) W-NW 287 ° 0 min 0,000 mm 0,0 UV-I 0 W/m² 3,2 °C 5,3 °C 0,0 km/h (0 Bft)
14.10.2018 06:25 5,3 °C 86 % 1015,1 hPa 0,0 mm 0,0 km/h (0 Bft) W-NW 287 ° 0 min 0,000 mm 0,0 UV-I 0 W/m² 3,2 °C 5,3 °C 0,0 km/h (0 Bft)
14.10.2018 06:26 5,2 °C 85 % 1015,1 hPa 0,0 mm 0,0 km/h (0 Bft) W-NW 287 ° 0 min 0,000 mm 0,0 UV-I 0 W/m² 2,9 °C 5,2 °C 0,0 km/h (0 Bft)
14.10.2018 06:27 5,1 °C 86 % 1015,1 hPa 0,0 mm 0,0 km/h (0 Bft) W-NW 287 ° 0 min 0,000 mm 0,0 UV-I 0 W/m² 3,0 °C 5,1 °C 0,0 km/h (0 Bft)
14.10.2018 06:28 4,9 °C 86 % 1015,1 hPa 0,0 mm 0,0 km/h (0 Bft) W-NW 287 ° 0 min 0,000 mm 0,0 UV-I 0 W/m² 2,8 °C 4,9 °C 0,0 km/h (0 Bft)
14.10.2018 06:29 4,8 °C 86 % 1015,1 hPa 0,0 mm 0,0 km/h (0 Bft) W-NW 287 ° 0 min 0,000 mm 0,0 UV-I 0 W/m² 2,7 °C 4,8 °C 0,0 km/h (0 Bft)
14.10.2018 06:30 4,7 °C 86 % 1015,1 hPa 0,0 mm 0,0 km/h (0 Bft) W-NW 287 ° 0 min 0,000 mm 0,0 UV-I 0 W/m² 2,6 °C 4,7 °C 0,0 km/h (0 Bft)
14.10.2018 06:31 4,7 °C 87 % 1015,0 hPa 0,0 mm 0,0 km/h (0 Bft) W-NW 287 ° 0 min 0,000 mm 0,0 UV-I 0 W/m² 2,7 °C 4,7 °C 0,0 km/h (0 Bft)
14.10.2018 06:32 4,9 °C 88 % 1015,0 hPa 0,0 mm 0,0 km/h (0 Bft) N 0 ° 0 min 0,000 mm 0,0 UV-I 0 W/m² 3,1 °C 4,9 °C 0,0 km/h (0 Bft)
14.10.2018 06:33 5,1 °C 87 % 1015,0 hPa 0,0 mm 0,0 km/h (0 Bft) N 0 ° 0 min 0,000 mm 0,0 UV-I 0 W/m² 3,1 °C 5,1 °C 0,0 km/h (0 Bft)
14.10.2018 06:34 5,2 °C 87 % 1015,0 hPa 0,0 mm 0,0 km/h (0 Bft) N 0 ° 0 min 0,000 mm 0,0 UV-I 0 W/m² 3,2 °C 5,2 °C 0,0 km/h (0 Bft)
14.10.2018 06:35 5,2 °C 86 % 1015,0 hPa 0,0 mm 0,0 km/h (0 Bft) N 0 ° 0 min 0,000 mm 0,0 UV-I 0 W/m² 3,1 °C 5,2 °C 0,0 km/h (0 Bft)
14.10.2018 06:36 5,1 °C 86 % 1015,0 hPa 0,0 mm 0,0 km/h (0 Bft) N 0 ° 0 min 0,000 mm 0,0 UV-I 0 W/m² 3,0 °C 5,1 °C 0,0 km/h (0 Bft)
14.10.2018 06:37 5,1 °C 86 % 1014,9 hPa 0,0 mm 0,0 km/h (0 Bft) N 0 ° 0 min 0,000 mm 0,0 UV-I 0 W/m² 3,0 °C 5,1 °C 0,0 km/h (0 Bft)
14.10.2018 06:38 5,0 °C 86 % 1014,9 hPa 0,0 mm 0,0 km/h (0 Bft) N 0 ° 0 min 0,000 mm 0,0 UV-I 0 W/m² 2,9 °C 5,0 °C 0,0 km/h (0 Bft)
14.10.2018 06:40 5,1 °C 87 % 1015,0 hPa 0,0 mm 0,0 km/h (0 Bft) W-NW 287 ° 0 min 0,000 mm 0,0 UV-I 0 W/m² 3,1 °C 5,1 °C 0,0 km/h (0 Bft)
14.10.2018 06:41 5,1 °C 86 % 1015,0 hPa 0,0 mm 0,0 km/h (0 Bft) W-NW 287 ° 0 min 0,000 mm 0,0 UV-I 0 W/m² 3,0 °C 5,1 °C 0,0 km/h (0 Bft)
14.10.2018 06:42 5,0 °C 86 % 1015,0 hPa 0,0 mm 0,0 km/h (0 Bft) W-NW 287 ° 0 min 0,000 mm 0,0 UV-I 0 W/m² 2,9 °C 5,0 °C 0,0 km/h (0 Bft)
14.10.2018 06:43 4,9 °C 86 % 1015,0 hPa 0,0 mm 0,0 km/h (0 Bft) W-NW 287 ° 0 min 0,000 mm 0,0 UV-I 0 W/m² 2,8 °C 4,9 °C 0,0 km/h (0 Bft)
14.10.2018 06:44 4,8 °C 86 % 1014,9 hPa 0,0 mm 0,0 km/h (0 Bft) W-NW 287 ° 0 min 0,000 mm 0,0 UV-I 0 W/m² 2,7 °C 4,8 °C 0,0 km/h (0 Bft)
14.10.2018 06:45 4,8 °C 86 % 1014,9 hPa 0,0 mm 0,0 km/h (0 Bft) W-NW 287 ° 0 min 0,000 mm 0,0 UV-I 0 W/m² 2,7 °C 4,8 °C 0,0 km/h (0 Bft)
14.10.2018 06:46 4,7 °C 86 % 1014,9 hPa 0,0 mm 0,0 km/h (0 Bft) W-NW 287 ° 0 min 0,000 mm 0,0 UV-I 0 W/m² 2,6 °C 4,7 °C 0,0 km/h (0 Bft)
14.10.2018 06:47 4,7 °C 87 % 1015,0 hPa 0,0 mm 0,0 km/h (0 Bft) W-NW 287 ° 0 min 0,000 mm 0,0 UV-I 0 W/m² 2,7 °C 4,7 °C 0,0 km/h (0 Bft)
14.10.2018 06:48 4,7 °C 87 % 1014,9 hPa 0,0 mm 0,0 km/h (0 Bft) W-NW 287 ° 0 min 0,000 mm 0,0 UV-I 0 W/m² 2,7 °C 4,7 °C 0,0 km/h (0 Bft)
14.10.2018 06:49 4,7 °C 87 % 1014,9 hPa 0,0 mm 0,0 km/h (0 Bft) W-NW 287 ° 0 min 0,000 mm 0,0 UV-I 0 W/m² 2,7 °C 4,7 °C 0,0 km/h (0 Bft)
14.10.2018 06:50 4,7 °C 87 % 1014,9 hPa 0,0 mm 0,0 km/h (0 Bft) W-NW 287 ° 0 min 0,000 mm 0,0 UV-I 0 W/m² 2,7 °C 4,7 °C 0,0 km/h (0 Bft)
14.10.2018 06:51 4,8 °C 87 % 1014,9 hPa 0,0 mm 0,0 km/h (0 Bft) W-NW 287 ° 0 min 0,000 mm 0,0 UV-I 0 W/m² 2,8 °C 4,8 °C 0,0 km/h (0 Bft)
14.10.2018 06:52 4,8 °C 88 % 1014,9 hPa 0,0 mm 0,0 km/h (0 Bft) W-NW 287 ° 0 min 0,000 mm 0,0 UV-I 0 W/m² 3,0 °C 4,8 °C 0,0 km/h (0 Bft)
14.10.2018 06:53 4,8 °C 87 % 1014,9 hPa 0,0 mm 0,0 km/h (0 Bft) W-NW 287 ° 0 min 0,000 mm 0,0 UV-I 0 W/m² 2,8 °C 4,8 °C 0,0 km/h (0 Bft)
14.10.2018 06:54 4,8 °C 86 % 1014,9 hPa 0,0 mm 0,0 km/h (0 Bft) W-NW 287 ° 0 min 0,000 mm 0,0 UV-I 0 W/m² 2,7 °C 4,8 °C 0,0 km/h (0 Bft)
14.10.2018 06:55 4,7 °C 86 % 1014,9 hPa 0,0 mm 0,0 km/h (0 Bft) W-NW 287 ° 0 min 0,000 mm 0,0 UV-I 0 W/m² 2,6 °C 4,7 °C 0,0 km/h (0 Bft)
14.10.2018 06:56 4,6 °C 87 % 1014,8 hPa 0,0 mm 0,0 km/h (0 Bft) W-NW 287 ° 0 min 0,000 mm 0,0 UV-I 0 W/m² 2,6 °C 4,6 °C 0,0 km/h (0 Bft)
14.10.2018 06:57 4,6 °C 87 % 1014,9 hPa 0,0 mm 0,0 km/h (0 Bft) W-NW 287 ° 0 min 0,000 mm 0,0 UV-I 0 W/m² 2,6 °C 4,6 °C 0,0 km/h (0 Bft)
14.10.2018 06:58 4,6 °C 87 % 1014,9 hPa 0,0 mm 0,0 km/h (0 Bft) W-NW 287 ° 0 min 0,000 mm 0,0 UV-I 0 W/m² 2,6 °C 4,6 °C 0,0 km/h (0 Bft)
14.10.2018 06:59 4,6 °C 88 % 1014,8 hPa 0,0 mm 0,0 km/h (0 Bft) W-NW 287 ° 0 min 0,000 mm 0,0 UV-I 0 W/m² 2,8 °C 4,6 °C 0,0 km/h (0 Bft)
14.10.2018 07:00 4,6 °C 88 % 1014,8 hPa 0,0 mm 2,2 km/h (1 Bft) W-NW 285 ° 0 min 0,000 mm 0,0 UV-I 0 W/m² 2,8 °C 4,6 °C 3,2 km/h (1 Bft)
14.10.2018 07:01 4,6 °C 88 % 1014,8 hPa 0,0 mm 1,2 km/h (1 Bft) SW 215 ° 0 min 0,000 mm 0,0 UV-I 0 W/m² 2,8 °C 4,6 °C 4,8 km/h (1 Bft)
14.10.2018 07:02 4,6 °C 88 % 1014,8 hPa 0,0 mm 0,6 km/h (0 Bft) SW 215 ° 0 min 0,000 mm 0,0 UV-I 0 W/m² 2,8 °C 4,6 °C 3,2 km/h (1 Bft)
14.10.2018 07:03 4,7 °C 88 % 1014,8 hPa 0,0 mm 2,5 km/h (1 Bft) SW 215 ° 0 min 0,000 mm 0,0 UV-I 0 W/m² 2,9 °C 4,7 °C 3,2 km/h (1 Bft)
14.10.2018 07:04 4,7 °C 87 % 1014,7 hPa 0,0 mm 1,8 km/h (1 Bft) SW 215 ° 0 min 0,000 mm 0,0 UV-I 0 W/m² 2,7 °C 4,7 °C 3,2 km/h (1 Bft)
14.10.2018 07:05 4,8 °C 88 % 1014,7 hPa 0,0 mm 0,0 km/h (0 Bft) SW 215 ° 0 min 0,000 mm 0,0 UV-I 0 W/m² 3,0 °C 4,8 °C 0,0 km/h (0 Bft)
14.10.2018 07:06 4,8 °C 87 % 1014,8 hPa 0,0 mm 0,0 km/h (0 Bft) SW 215 ° 0 min 0,000 mm 0,0 UV-I 0 W/m² 2,8 °C 4,8 °C 0,0 km/h (0 Bft)
14.10.2018 07:07 4,7 °C 87 % 1014,8 hPa 0,0 mm 1,6 km/h (1 Bft) SW 225 ° 0 min 0,000 mm 0,0 UV-I 0 W/m² 2,7 °C 4,7 °C 3,2 km/h (1 Bft)
14.10.2018 07:08 4,7 °C 87 % 1014,8 hPa 0,0 mm 0,0 km/h (0 Bft) SW 225 ° 0 min 0,000 mm 0,0 UV-I 0 W/m² 2,7 °C 4,7 °C 1,6 km/h (1 Bft)
14.10.2018 07:09 4,6 °C 87 % 1014,7 hPa 0,0 mm 0,0 km/h (0 Bft) N 0 ° 0 min 0,000 mm 0,0 UV-I 0 W/m² 2,6 °C 4,6 °C 0,0 km/h (0 Bft)
14.10.2018 07:10 4,6 °C 87 % 1014,7 hPa 0,0 mm 0,0 km/h (0 Bft) N 0 ° 0 min 0,000 mm 0,0 UV-I 0 W/m² 2,6 °C 4,6 °C 0,0 km/h (0 Bft)
14.10.2018 07:11 4,5 °C 88 % 1014,8 hPa 0,0 mm 0,0 km/h (0 Bft) N 0 ° 0 min 0,000 mm 0,0 UV-I 0 W/m² 2,7 °C 4,5 °C 0,0 km/h (0 Bft)
14.10.2018 07:12 4,5 °C 88 % 1014,7 hPa 0,0 mm 0,0 km/h (0 Bft) N 0 ° 0 min 0,000 mm 0,0 UV-I 0 W/m² 2,7 °C 4,5 °C 0,0 km/h (0 Bft)
14.10.2018 07:13 4,5 °C 88 % 1014,7 hPa 0,0 mm 0,0 km/h (0 Bft) N 0 ° 0 min 0,000 mm 0,0 UV-I 0 W/m² 2,7 °C 4,5 °C 0,0 km/h (0 Bft)
14.10.2018 07:15 4,4 °C 88 % 1014,7 hPa 0,0 mm 0,0 km/h (0 Bft) SW 215 ° 0 min 0,000 mm 0,0 UV-I 0 W/m² 2,6 °C 4,4 °C 0,0 km/h (0 Bft)
14.10.2018 07:16 4,4 °C 88 % 1014,7 hPa 0,0 mm 0,0 km/h (0 Bft) SW 215 ° 0 min 0,000 mm 0,0 UV-I 0 W/m² 2,6 °C 4,4 °C 0,0 km/h (0 Bft)
14.10.2018 07:17 4,4 °C 89 % 1014,7 hPa 0,0 mm 0,0 km/h (0 Bft) SW 215 ° 0 min 0,000 mm 0,0 UV-I 0 W/m² 2,7 °C 4,4 °C 0,0 km/h (0 Bft)
14.10.2018 07:18 4,3 °C 89 % 1014,7 hPa 0,0 mm 1,3 km/h (1 Bft) SW 214 ° 0 min 0,000 mm 0,0 UV-I 0 W/m² 2,7 °C 4,3 °C 3,2 km/h (1 Bft)
14.10.2018 07:19 4,4 °C 89 % 1014,7 hPa 0,0 mm 0,0 km/h (0 Bft) SW 214 ° 0 min 0,000 mm 0,0 UV-I 0 W/m² 2,7 °C 4,4 °C 0,0 km/h (0 Bft)
14.10.2018 07:20 4,4 °C 89 % 1014,8 hPa 0,0 mm 0,0 km/h (0 Bft) SW 214 ° 0 min 0,000 mm 0,0 UV-I 0 W/m² 2,7 °C 4,4 °C 0,0 km/h (0 Bft)
14.10.2018 07:21 4,4 °C 89 % 1014,8 hPa 0,0 mm 0,0 km/h (0 Bft) SW 214 ° 0 min 0,000 mm 0,0 UV-I 0 W/m² 2,7 °C 4,4 °C 0,0 km/h (0 Bft)
14.10.2018 07:22 4,4 °C 89 % 1014,7 hPa 0,0 mm 0,3 km/h (0 Bft) SW 214 ° 0 min 0,000 mm 0,0 UV-I 0 W/m² 2,7 °C 4,4 °C 1,6 km/h (1 Bft)
14.10.2018 07:23 4,5 °C 90 % 1014,8 hPa 0,0 mm 0,0 km/h (0 Bft) SW 214 ° 0 min 0,000 mm 0,0 UV-I 0 W/m² 3,0 °C 4,5 °C 0,0 km/h (0 Bft)
14.10.2018 07:24 4,6 °C 90 % 1014,7 hPa 0,0 mm 0,0 km/h (0 Bft) SW 214 ° 0 min 0,000 mm 0,0 UV-I 0 W/m² 3,1 °C 4,6 °C 0,0 km/h (0 Bft)
14.10.2018 07:25 4,7 °C 90 % 1014,6 hPa 0,0 mm 0,0 km/h (0 Bft) SW 214 ° 0 min 0,000 mm 0,0 UV-I 0 W/m² 3,2 °C 4,7 °C 0,0 km/h (0 Bft)
14.10.2018 07:26 4,9 °C 89 % 1014,6 hPa 0,0 mm 0,0 km/h (0 Bft) SW 214 ° 0 min 0,000 mm 0,0 UV-I 0 W/m² 3,2 °C 4,9 °C 0,0 km/h (0 Bft)
14.10.2018 07:27 5,1 °C 89 % 1014,7 hPa 0,0 mm 0,1 km/h (0 Bft) SW 214 ° 0 min 0,000 mm 0,0 UV-I 0 W/m² 3,4 °C 5,1 °C 1,6 km/h (1 Bft)
14.10.2018 07:28 5,3 °C 88 % 1014,7 hPa 0,0 mm 0,5 km/h (0 Bft) SW 214 ° 0 min 0,000 mm 0,0 UV-I 0 W/m² 3,5 °C 5,3 °C 1,6 km/h (1 Bft)
14.10.2018 07:29 5,4 °C 88 % 1014,7 hPa 0,0 mm 1,8 km/h (1 Bft) SW 214 ° 0 min 0,000 mm 0,0 UV-I 0 W/m² 3,6 °C 5,4 °C 3,2 km/h (1 Bft)
14.10.2018 07:30 5,6 °C 87 % 1014,7 hPa 0,0 mm 1,3 km/h (1 Bft) SW 214 ° 0 min 0,000 mm 0,0 UV-I 0 W/m² 3,6 °C 5,6 °C 3,2 km/h (1 Bft)
14.10.2018 07:31 5,7 °C 86 % 1014,7 hPa 0,0 mm 0,0 km/h (0 Bft) SW 214 ° 0 min 0,000 mm 0,0 UV-I 0 W/m² 3,5 °C 5,7 °C 0,0 km/h (0 Bft)
14.10.2018 07:32 5,8 °C 86 % 1014,7 hPa 0,0 mm 0,0 km/h (0 Bft) SW 214 ° 0 min 0,000 mm 0,0 UV-I 0 W/m² 3,6 °C 5,8 °C 0,0 km/h (0 Bft)
14.10.2018 07:33 5,9 °C 85 % 1014,7 hPa 0,0 mm 0,7 km/h (0 Bft) SW 214 ° 0 min 0,000 mm 0,0 UV-I 0 W/m² 3,6 °C 5,9 °C 3,2 km/h (1 Bft)
14.10.2018 07:34 6,2 °C 85 % 1014,6 hPa 0,0 mm 1,2 km/h (1 Bft) SW 214 ° 0 min 0,000 mm 0,0 UV-I 0 W/m² 3,9 °C 6,2 °C 1,6 km/h (1 Bft)
14.10.2018 07:35 6,4 °C 83 % 1014,6 hPa 0,0 mm 0,3 km/h (0 Bft) SW 214 ° 0 min 0,000 mm 0,0 UV-I 0 W/m² 3,7 °C 6,4 °C 1,6 km/h (1 Bft)
14.10.2018 07:36 6,4 °C 82 % 1014,6 hPa 0,0 mm 0,0 km/h (0 Bft) SW 214 ° 0 min 0,000 mm 0,0 UV-I 5 W/m² 3,6 °C 6,4 °C 0,0 km/h (0 Bft)
14.10.2018 07:37 6,5 °C 82 % 1014,5 hPa 0,0 mm 0,0 km/h (0 Bft) SW 214 ° 0 min 0,000 mm 0,0 UV-I 5 W/m² 3,7 °C 6,5 °C 0,0 km/h (0 Bft)
14.10.2018 07:38 6,7 °C 81 % 1014,6 hPa 0,0 mm 1,5 km/h (1 Bft) S-SW 197 ° 0 min 0,000 mm 0,0 UV-I 5 W/m² 3,7 °C 6,7 °C 4,8 km/h (1 Bft)
14.10.2018 07:39 7,1 °C 80 % 1014,6 hPa 0,0 mm 0,9 km/h (0 Bft) S-SW 197 ° 0 min 0,000 mm 0,0 UV-I 5 W/m² 3,9 °C 7,1 °C 3,2 km/h (1 Bft)
14.10.2018 07:40 7,5 °C 78 % 1014,6 hPa 0,0 mm 0,2 km/h (0 Bft) S-SW 197 ° 0 min 0,000 mm 0,0 UV-I 5 W/m² 3,9 °C 7,5 °C 1,6 km/h (1 Bft)
14.10.2018 07:41 8,1 °C 74 % 1014,5 hPa 0,0 mm 4,0 km/h (1 Bft) S-SW 197 ° 0 min 0,000 mm 0,0 UV-I 5 W/m² 3,8 °C 8,1 °C 6,4 km/h (2 Bft)
14.10.2018 07:42 8,4 °C 72 % 1014,5 hPa 0,0 mm 3,9 km/h (1 Bft) S-SW 197 ° 0 min 0,000 mm 0,0 UV-I 7 W/m² 3,7 °C 8,4 °C 6,4 km/h (2 Bft)
14.10.2018 07:43 8,8 °C 71 % 1014,5 hPa 0,0 mm 3,6 km/h (1 Bft) S-SW 196 ° 0 min 0,000 mm 0,0 UV-I 7 W/m² 3,8 °C 8,8 °C 6,4 km/h (2 Bft)
14.10.2018 07:44 9,3 °C 69 % 1014,5 hPa 0,0 mm 3,3 km/h (1 Bft) S-SW 196 ° 0 min 0,000 mm 0,0 UV-I 7 W/m² 3,9 °C 9,3 °C 4,8 km/h (1 Bft)
14.10.2018 07:45 9,6 °C 67 % 1014,5 hPa 0,0 mm 2,4 km/h (1 Bft) S-SW 196 ° 0 min 0,000 mm 0,0 UV-I 7 W/m² 3,8 °C 9,6 °C 3,2 km/h (1 Bft)
14.10.2018 07:46 9,8 °C 67 % 1014,5 hPa 0,0 mm 3,6 km/h (1 Bft) S-SW 196 ° 0 min 0,000 mm 0,0 UV-I 7 W/m² 4,0 °C 9,8 °C 6,4 km/h (2 Bft)
14.10.2018 07:47 9,9 °C 66 % 1014,5 hPa 0,0 mm 0,0 km/h (0 Bft) S-SW 196 ° 0 min 0,000 mm 0,0 UV-I 7 W/m² 3,9 °C 9,9 °C 0,0 km/h (0 Bft)
14.10.2018 07:48 9,8 °C 68 % 1014,5 hPa 0,0 mm 0,2 km/h (0 Bft) S-SW 196 ° 0 min 0,000 mm 0,0 UV-I 9 W/m² 4,2 °C 9,8 °C 1,6 km/h (1 Bft)
14.10.2018 07:49 9,3 °C 69 % 1014,5 hPa 0,0 mm 0,0 km/h (0 Bft) S-SW 196 ° 0 min 0,000 mm 0,0 UV-I 9 W/m² 3,9 °C 9,3 °C 0,0 km/h (0 Bft)
14.10.2018 07:50 8,8 °C 70 % 1014,5 hPa 0,0 mm 0,0 km/h (0 Bft) S-SW 196 ° 0 min 0,000 mm 0,0 UV-I 9 W/m² 3,6 °C 8,8 °C 0,0 km/h (0 Bft)
14.10.2018 07:51 8,4 °C 72 % 1014,5 hPa 0,0 mm 0,0 km/h (0 Bft) S-SW 196 ° 0 min 0,000 mm 0,0 UV-I 9 W/m² 3,7 °C 8,4 °C 0,0 km/h (0 Bft)
14.10.2018 07:52 8,0 °C 73 % 1014,5 hPa 0,0 mm 0,0 km/h (0 Bft) S-SW 196 ° 0 min 0,000 mm 0,0 UV-I 9 W/m² 3,5 °C 8,0 °C 0,0 km/h (0 Bft)
14.10.2018 07:53 7,5 °C 75 % 1014,5 hPa 0,0 mm 0,0 km/h (0 Bft) S-SW 196 ° 0 min 0,000 mm 0,0 UV-I 9 W/m² 3,4 °C 7,5 °C 0,0 km/h (0 Bft)
14.10.2018 07:54 7,1 °C 76 % 1014,5 hPa 0,0 mm 0,0 km/h (0 Bft) S-SW 196 ° 0 min 0,000 mm 0,0 UV-I 11 W/m² 3,2 °C 7,1 °C 0,0 km/h (0 Bft)
14.10.2018 07:55 6,8 °C 77 % 1014,6 hPa 0,0 mm 0,0 km/h (0 Bft) S-SW 196 ° 0 min 0,000 mm 0,0 UV-I 11 W/m² 3,1 °C 6,8 °C 0,0 km/h (0 Bft)
14.10.2018 07:56 6,5 °C 78 % 1014,6 hPa 0,0 mm 0,0 km/h (0 Bft) S-SW 196 ° 0 min 0,000 mm 0,0 UV-I 11 W/m² 2,9 °C 6,5 °C 0,0 km/h (0 Bft)
14.10.2018 07:57 6,3 °C 79 % 1014,6 hPa 0,0 mm 0,0 km/h (0 Bft) S-SW 196 ° 0 min 0,000 mm 0,0 UV-I 11 W/m² 2,9 °C 6,3 °C 0,0 km/h (0 Bft)
14.10.2018 07:58 6,2 °C 80 % 1014,6 hPa 0,0 mm 0,8 km/h (0 Bft) S-SW 196 ° 0 min 0,000 mm 0,0 UV-I 11 W/m² 3,0 °C 6,2 °C 3,2 km/h (1 Bft)
14.10.2018 07:59 6,3 °C 81 % 1014,6 hPa 0,0 mm 1,9 km/h (1 Bft) S-SW 196 ° 0 min 0,000 mm 0,0 UV-I 11 W/m² 3,3 °C 6,3 °C 3,2 km/h (1 Bft)
14.10.2018 08:00 6,8 °C 80 % 1014,6 hPa 0,0 mm 2,0 km/h (1 Bft) S-SW 196 ° 0 min 0,000 mm 0,0 UV-I 11 W/m² 3,6 °C 6,8 °C 3,2 km/h (1 Bft)
14.10.2018 08:01 7,1 °C 78 % 1014,6 hPa 0,0 mm 0,0 km/h (0 Bft) S-SW 196 ° 0 min 0,000 mm 0,0 UV-I 12 W/m² 3,5 °C 7,1 °C 0,0 km/h (0 Bft)
14.10.2018 08:02 7,1 °C 78 % 1014,5 hPa 0,0 mm 0,0 km/h (0 Bft) S-SW 196 ° 0 min 0,000 mm 0,0 UV-I 12 W/m² 3,5 °C 7,1 °C 0,0 km/h (0 Bft)
14.10.2018 08:03 6,9 °C 78 % 1014,6 hPa 0,0 mm 0,0 km/h (0 Bft) S-SW 196 ° 0 min 0,000 mm 0,0 UV-I 12 W/m² 3,3 °C 6,9 °C 0,0 km/h (0 Bft)
14.10.2018 08:04 6,7 °C 78 % 1014,6 hPa 0,0 mm 0,0 km/h (0 Bft) S-SW 196 ° 0 min 0,000 mm 0,0 UV-I 12 W/m² 3,1 °C 6,7 °C 0,0 km/h (0 Bft)
14.10.2018 08:05 6,3 °C 79 % 1014,6 hPa 0,0 mm 0,0 km/h (0 Bft) S-SW 196 ° 0 min 0,000 mm 0,0 UV-I 12 W/m² 2,9 °C 6,3 °C 0,0 km/h (0 Bft)
14.10.2018 08:06 6,2 °C 79 % 1014,6 hPa 0,0 mm 0,0 km/h (0 Bft) S-SW 196 ° 0 min 0,000 mm 0,0 UV-I 12 W/m² 2,8 °C 6,2 °C 0,0 km/h (0 Bft)
14.10.2018 08:07 5,8 °C 81 % 1014,6 hPa 0,0 mm 0,0 km/h (0 Bft) N 0 ° 0 min 0,000 mm 0,0 UV-I 12 W/m² 2,8 °C 5,8 °C 0,0 km/h (0 Bft)
14.10.2018 08:08 5,7 °C 82 % 1014,6 hPa 0,0 mm 0,0 km/h (0 Bft) N 0 ° 0 min 0,000 mm 0,0 UV-I 12 W/m² 2,9 °C 5,7 °C 0,0 km/h (0 Bft)
14.10.2018 08:09 5,7 °C 83 % 1014,6 hPa 0,0 mm 0,0 km/h (0 Bft) N 0 ° 0 min 0,000 mm 0,0 UV-I 12 W/m² 3,0 °C 5,7 °C 0,0 km/h (0 Bft)
14.10.2018 08:10 5,7 °C 84 % 1014,6 hPa 0,0 mm 0,0 km/h (0 Bft) N 0 ° 0 min 0,000 mm 0,0 UV-I 14 W/m² 3,2 °C 5,7 °C 0,0 km/h (0 Bft)
14.10.2018 08:11 5,6 °C 84 % 1014,6 hPa 0,0 mm 0,0 km/h (0 Bft) N 0 ° 0 min 0,000 mm 0,0 UV-I 14 W/m² 3,1 °C 5,6 °C 0,0 km/h (0 Bft)
14.10.2018 08:12 5,5 °C 84 % 1014,5 hPa 0,0 mm 0,0 km/h (0 Bft) N 0 ° 0 min 0,000 mm 0,0 UV-I 14 W/m² 3,0 °C 5,5 °C 0,0 km/h (0 Bft)
14.10.2018 08:13 5,5 °C 85 % 1014,6 hPa 0,0 mm 0,0 km/h (0 Bft) N 0 ° 0 min 0,000 mm 0,0 UV-I 14 W/m² 3,2 °C 5,5 °C 0,0 km/h (0 Bft)
14.10.2018 08:15 5,6 °C 85 % 1014,5 hPa 0,0 mm 0,0 km/h (0 Bft) S-SW 196 ° 0 min 0,000 mm 0,0 UV-I 14 W/m² 3,3 °C 5,6 °C 0,0 km/h (0 Bft)
14.10.2018 08:17 5,8 °C 85 % 1014,6 hPa 0,0 mm 0,0 km/h (0 Bft) S-SW 196 ° 0 min 0,000 mm 0,0 UV-I 14 W/m² 3,5 °C 5,8 °C 0,0 km/h (0 Bft)
14.10.2018 08:18 5,9 °C 85 % 1014,6 hPa 0,0 mm 0,0 km/h (0 Bft) S-SW 196 ° 0 min 0,000 mm 0,0 UV-I 14 W/m² 3,6 °C 5,9 °C 0,0 km/h (0 Bft)
14.10.2018 08:19 6,1 °C 85 % 1014,6 hPa 0,0 mm 0,0 km/h (0 Bft) S-SW 196 ° 0 min 0,000 mm 0,0 UV-I 14 W/m² 3,8 °C 6,1 °C 0,0 km/h (0 Bft)
14.10.2018 08:20 6,2 °C 85 % 1014,6 hPa 0,0 mm 0,0 km/h (0 Bft) S-SW 196 ° 0 min 0,000 mm 0,0 UV-I 16 W/m² 3,9 °C 6,2 °C 0,0 km/h (0 Bft)
14.10.2018 08:21 6,3 °C 84 % 1014,6 hPa 0,0 mm 0,0 km/h (0 Bft) S-SW 196 ° 0 min 0,000 mm 0,0 UV-I 16 W/m² 3,8 °C 6,3 °C 0,0 km/h (0 Bft)
14.10.2018 08:22 6,6 °C 83 % 1014,6 hPa 0,0 mm 0,0 km/h (0 Bft) S-SW 196 ° 0 min 0,000 mm 0,0 UV-I 16 W/m² 3,9 °C 6,6 °C 0,0 km/h (0 Bft)
14.10.2018 08:23 6,8 °C 82 % 1014,6 hPa 0,0 mm 0,0 km/h (0 Bft) S-SW 196 ° 0 min 0,000 mm 0,0 UV-I 16 W/m² 3,9 °C 6,8 °C 0,0 km/h (0 Bft)
14.10.2018 08:24 6,8 °C 82 % 1014,5 hPa 0,0 mm 0,0 km/h (0 Bft) S-SW 196 ° 0 min 0,000 mm 0,0 UV-I 16 W/m² 3,9 °C 6,8 °C 0,0 km/h (0 Bft)
14.10.2018 08:25 6,9 °C 81 % 1014,5 hPa 0,0 mm 0,0 km/h (0 Bft) S-SW 196 ° 0 min 0,000 mm 0,0 UV-I 16 W/m² 3,9 °C 6,9 °C 0,0 km/h (0 Bft)
14.10.2018 08:26 6,9 °C 81 % 1014,6 hPa 0,0 mm 0,0 km/h (0 Bft) S-SW 196 ° 0 min 0,000 mm 0,0 UV-I 16 W/m² 3,9 °C 6,9 °C 0,0 km/h (0 Bft)
14.10.2018 08:27 6,8 °C 81 % 1014,6 hPa 0,0 mm 0,0 km/h (0 Bft) S-SW 201 ° 0 min 0,000 mm 0,0 UV-I 16 W/m² 3,8 °C 6,8 °C 0,0 km/h (0 Bft)
14.10.2018 08:28 6,6 °C 82 % 1014,6 hPa 0,0 mm 0,0 km/h (0 Bft) S-SW 201 ° 0 min 0,000 mm 0,0 UV-I 16 W/m² 3,8 °C 6,6 °C 0,0 km/h (0 Bft)
14.10.2018 08:29 6,4 °C 82 % 1014,6 hPa 0,0 mm 0,0 km/h (0 Bft) S-SW 201 ° 0 min 0,000 mm 0,0 UV-I 16 W/m² 3,6 °C 6,4 °C 0,0 km/h (0 Bft)
14.10.2018 08:30 6,3 °C 82 % 1014,6 hPa 0,0 mm 0,0 km/h (0 Bft) S-SW 201 ° 0 min 0,000 mm 0,0 UV-I 16 W/m² 3,5 °C 6,3 °C 0,0 km/h (0 Bft)
14.10.2018 08:31 6,3 °C 83 % 1014,6 hPa 0,0 mm 0,0 km/h (0 Bft) S-SW 201 ° 0 min 0,000 mm 0,0 UV-I 18 W/m² 3,6 °C 6,3 °C 0,0 km/h (0 Bft)
14.10.2018 08:32 6,2 °C 83 % 1014,6 hPa 0,0 mm 0,0 km/h (0 Bft) S-SW 201 ° 0 min 0,000 mm 0,0 UV-I 18 W/m² 3,5 °C 6,2 °C 0,0 km/h (0 Bft)
14.10.2018 08:33 6,2 °C 83 % 1014,6 hPa 0,0 mm 0,0 km/h (0 Bft) S-SW 201 ° 0 min 0,000 mm 0,0 UV-I 18 W/m² 3,5 °C 6,2 °C 0,0 km/h (0 Bft)
14.10.2018 08:34 6,2 °C 83 % 1014,6 hPa 0,0 mm 0,0 km/h (0 Bft) S-SW 201 ° 0 min 0,000 mm 0,0 UV-I 18 W/m² 3,5 °C 6,2 °C 0,0 km/h (0 Bft)
14.10.2018 08:35 6,2 °C 83 % 1014,6 hPa 0,0 mm 0,0 km/h (0 Bft) S-SW 201 ° 0 min 0,000 mm 0,0 UV-I 18 W/m² 3,5 °C 6,2 °C 0,0 km/h (0 Bft)
14.10.2018 08:36 6,3 °C 83 % 1014,6 hPa 0,0 mm 0,0 km/h (0 Bft) S-SW 201 ° 0 min 0,000 mm 0,0 UV-I 18 W/m² 3,6 °C 6,3 °C 0,0 km/h (0 Bft)
14.10.2018 08:37 6,3 °C 83 % 1014,6 hPa 0,0 mm 0,0 km/h (0 Bft) S-SW 201 ° 0 min 0,000 mm 0,0 UV-I 18 W/m² 3,6 °C 6,3 °C 0,0 km/h (0 Bft)
14.10.2018 08:38 6,4 °C 82 % 1014,6 hPa 0,0 mm 0,0 km/h (0 Bft) S-SW 201 ° 0 min 0,000 mm 0,0 UV-I 18 W/m² 3,6 °C 6,4 °C 0,0 km/h (0 Bft)
14.10.2018 08:39 6,4 °C 82 % 1014,6 hPa 0,0 mm 0,0 km/h (0 Bft) S-SW 201 ° 0 min 0,000 mm 0,0 UV-I 18 W/m² 3,6 °C 6,4 °C 0,0 km/h (0 Bft)
14.10.2018 08:40 6,4 °C 82 % 1014,6 hPa 0,0 mm 0,0 km/h (0 Bft) S-SW 201 ° 0 min 0,000 mm 0,0 UV-I 18 W/m² 3,6 °C 6,4 °C 0,0 km/h (0 Bft)
14.10.2018 08:41 6,3 °C 83 % 1014,6 hPa 0,0 mm 0,0 km/h (0 Bft) S-SW 201 ° 0 min 0,000 mm 0,0 UV-I 18 W/m² 3,6 °C 6,3 °C 0,0 km/h (0 Bft)
14.10.2018 08:42 6,3 °C 83 % 1014,6 hPa 0,0 mm 0,0 km/h (0 Bft) S-SW 201 ° 0 min 0,000 mm 0,0 UV-I 18 W/m² 3,6 °C 6,3 °C 0,0 km/h (0 Bft)
14.10.2018 08:43 6,2 °C 83 % 1014,5 hPa 0,0 mm 0,0 km/h (0 Bft) S-SW 201 ° 0 min 0,000 mm 0,0 UV-I 19 W/m² 3,5 °C 6,2 °C 0,0 km/h (0 Bft)
14.10.2018 08:44 6,2 °C 84 % 1014,5 hPa 0,0 mm 0,0 km/h (0 Bft) S-SW 201 ° 0 min 0,000 mm 0,0 UV-I 19 W/m² 3,7 °C 6,2 °C 0,0 km/h (0 Bft)
14.10.2018 08:45 6,1 °C 84 % 1014,5 hPa 0,0 mm 0,0 km/h (0 Bft) S-SW 201 ° 0 min 0,000 mm 0,0 UV-I 19 W/m² 3,6 °C 6,1 °C 0,0 km/h (0 Bft)
14.10.2018 08:46 6,1 °C 84 % 1014,5 hPa 0,0 mm 0,0 km/h (0 Bft) S-SW 201 ° 0 min 0,000 mm 0,0 UV-I 19 W/m² 3,6 °C 6,1 °C 0,0 km/h (0 Bft)
14.10.2018 08:47 6,2 °C 85 % 1014,5 hPa 0,0 mm 0,0 km/h (0 Bft) S-SW 201 ° 0 min 0,000 mm 0,0 UV-I 19 W/m² 3,9 °C 6,2 °C 0,0 km/h (0 Bft)
14.10.2018 08:48 6,2 °C 85 % 1014,5 hPa 0,0 mm 0,0 km/h (0 Bft) S-SW 201 ° 0 min 0,000 mm 0,0 UV-I 19 W/m² 3,9 °C 6,2 °C 0,0 km/h (0 Bft)
14.10.2018 08:49 6,4 °C 85 % 1014,5 hPa 0,0 mm 0,0 km/h (0 Bft) S-SW 201 ° 0 min 0,000 mm 0,0 UV-I 19 W/m² 4,1 °C 6,4 °C 0,0 km/h (0 Bft)
14.10.2018 08:50 6,5 °C 85 % 1014,5 hPa 0,0 mm 0,0 km/h (0 Bft) S-SW 201 ° 0 min 0,000 mm 0,0 UV-I 19 W/m² 4,2 °C 6,5 °C 0,0 km/h (0 Bft)
14.10.2018 08:51 6,7 °C 84 % 1014,5 hPa 0,0 mm 0,0 km/h (0 Bft) S-SW 201 ° 0 min 0,000 mm 0,0 UV-I 19 W/m² 4,2 °C 6,7 °C 0,0 km/h (0 Bft)
14.10.2018 08:52 6,8 °C 84 % 1014,5 hPa 0,0 mm 0,0 km/h (0 Bft) S-SW 201 ° 0 min 0,000 mm 0,0 UV-I 19 W/m² 4,3 °C 6,8 °C 0,0 km/h (0 Bft)
14.10.2018 08:53 6,9 °C 83 % 1014,5 hPa 0,0 mm 0,0 km/h (0 Bft) S-SW 201 ° 0 min 0,000 mm 0,0 UV-I 19 W/m² 4,2 °C 6,9 °C 0,0 km/h (0 Bft)
14.10.2018 08:54 7,2 °C 82 % 1014,6 hPa 0,0 mm 0,0 km/h (0 Bft) S-SW 201 ° 0 min 0,000 mm 0,0 UV-I 21 W/m² 4,3 °C 7,2 °C 0,0 km/h (0 Bft)
14.10.2018 08:55 7,3 °C 82 % 1014,5 hPa 0,0 mm 0,0 km/h (0 Bft) S-SW 201 ° 0 min 0,000 mm 0,0 UV-I 21 W/m² 4,4 °C 7,3 °C 0,0 km/h (0 Bft)
14.10.2018 08:56 7,4 °C 81 % 1014,5 hPa 0,0 mm 0,0 km/h (0 Bft) S-SW 201 ° 0 min 0,000 mm 0,0 UV-I 21 W/m² 4,4 °C 7,4 °C 0,0 km/h (0 Bft)
14.10.2018 08:57 7,6 °C 80 % 1014,6 hPa 0,0 mm 0,0 km/h (0 Bft) S-SW 201 ° 0 min 0,000 mm 0,0 UV-I 21 W/m² 4,4 °C 7,6 °C 0,0 km/h (0 Bft)
14.10.2018 08:58 7,8 °C 79 % 1014,6 hPa 0,0 mm 0,0 km/h (0 Bft) S-SW 201 ° 0 min 0,000 mm 0,0 UV-I 21 W/m² 4,4 °C 7,8 °C 0,0 km/h (0 Bft)
14.10.2018 08:59 8,0 °C 78 % 1014,6 hPa 0,0 mm 0,0 km/h (0 Bft) S-SW 201 ° 0 min 0,000 mm 0,0 UV-I 21 W/m² 4,4 °C 8,0 °C 0,0 km/h (0 Bft)
14.10.2018 09:00 8,2 °C 78 % 1014,5 hPa 0,0 mm 0,0 km/h (0 Bft) S-SW 201 ° 0 min 0,000 mm 0,0 UV-I 21 W/m² 4,6 °C 8,2 °C 0,0 km/h (0 Bft)
14.10.2018 09:01 8,4 °C 77 % 1014,5 hPa 0,0 mm 0,0 km/h (0 Bft) S-SW 201 ° 0 min 0,000 mm 0,0 UV-I 21 W/m² 4,6 °C 8,4 °C 0,0 km/h (0 Bft)
14.10.2018 09:02 8,6 °C 76 % 1014,6 hPa 0,0 mm 0,0 km/h (0 Bft) S-SW 201 ° 0 min 0,000 mm 0,0 UV-I 21 W/m² 4,6 °C 8,6 °C 0,0 km/h (0 Bft)
14.10.2018 09:03 8,7 °C 75 % 1014,6 hPa 0,0 mm 0,0 km/h (0 Bft) S-SW 201 ° 0 min 0,000 mm 0,0 UV-I 21 W/m² 4,5 °C 8,7 °C 0,0 km/h (0 Bft)
14.10.2018 09:04 8,9 °C 75 % 1014,5 hPa 0,0 mm 1,6 km/h (1 Bft) S-SW 205 ° 0 min 0,000 mm 0,0 UV-I 21 W/m² 4,7 °C 8,9 °C 4,8 km/h (1 Bft)
14.10.2018 09:05 9,1 °C 74 % 1014,6 hPa 0,0 mm 2,3 km/h (1 Bft) S-SW 205 ° 0 min 0,000 mm 0,0 UV-I 21 W/m² 4,7 °C 9,1 °C 3,2 km/h (1 Bft)
14.10.2018 09:06 9,2 °C 73 % 1014,6 hPa 0,0 mm 0,1 km/h (0 Bft) S-SW 205 ° 0 min 0,000 mm 0,0 UV-I 23 W/m² 4,6 °C 9,2 °C 1,6 km/h (1 Bft)
14.10.2018 09:07 9,1 °C 73 % 1014,6 hPa 0,0 mm 0,0 km/h (0 Bft) S-SW 205 ° 0 min 0,000 mm 0,0 UV-I 23 W/m² 4,5 °C 9,1 °C 0,0 km/h (0 Bft)
14.10.2018 09:08 9,0 °C 74 % 1014,5 hPa 0,0 mm 0,0 km/h (0 Bft) S-SW 205 ° 0 min 0,000 mm 0,0 UV-I 23 W/m² 4,6 °C 9,0 °C 0,0 km/h (0 Bft)
14.10.2018 09:09 8,9 °C 75 % 1014,6 hPa 0,0 mm 0,0 km/h (0 Bft) S-SW 205 ° 0 min 0,000 mm 0,0 UV-I 23 W/m² 4,7 °C 8,9 °C 0,0 km/h (0 Bft)
14.10.2018 09:10 8,9 °C 76 % 1014,6 hPa 0,0 mm 0,3 km/h (0 Bft) S-SW 205 ° 0 min 0,000 mm 0,0 UV-I 23 W/m² 4,9 °C 8,9 °C 1,6 km/h (1 Bft)
14.10.2018 09:11 9,0 °C 75 % 1014,6 hPa 0,0 mm 0,0 km/h (0 Bft) S-SW 205 ° 0 min 0,000 mm 0,0 UV-I 23 W/m² 4,8 °C 9,0 °C 0,0 km/h (0 Bft)
14.10.2018 09:12 9,0 °C 77 % 1014,6 hPa 0,0 mm 0,0 km/h (0 Bft) S-SW 205 ° 0 min 0,000 mm 0,0 UV-I 23 W/m² 5,2 °C 9,0 °C 0,0 km/h (0 Bft)
14.10.2018 09:13 9,1 °C 75 % 1014,5 hPa 0,0 mm 0,0 km/h (0 Bft) S-SW 205 ° 0 min 0,000 mm 0,0 UV-I 23 W/m² 4,9 °C 9,1 °C 0,0 km/h (0 Bft)
14.10.2018 09:14 9,3 °C 74 % 1014,4 hPa 0,0 mm 0,2 km/h (0 Bft) S-SW 205 ° 0 min 0,000 mm 0,0 UV-I 23 W/m² 4,9 °C 9,3 °C 3,2 km/h (1 Bft)
14.10.2018 09:15 9,4 °C 74 % 1014,4 hPa 0,0 mm 1,0 km/h (0 Bft) S-SW 205 ° 0 min 0,000 mm 0,0 UV-I 23 W/m² 5,0 °C 9,4 °C 3,2 km/h (1 Bft)
14.10.2018 09:16 9,6 °C 73 % 1014,4 hPa 0,0 mm 0,0 km/h (0 Bft) S-SW 205 ° 0 min 0,000 mm 0,0 UV-I 23 W/m² 5,0 °C 9,6 °C 0,0 km/h (0 Bft)
14.10.2018 09:17 9,8 °C 72 % 1014,4 hPa 0,0 mm 0,0 km/h (0 Bft) S-SW 205 ° 0 min 0,000 mm 0,0 UV-I 23 W/m² 5,0 °C 9,8 °C 0,0 km/h (0 Bft)
14.10.2018 09:18 9,9 °C 72 % 1014,4 hPa 0,0 mm 0,0 km/h (0 Bft) S-SW 205 ° 0 min 0,000 mm 0,0 UV-I 23 W/m² 5,1 °C 9,9 °C 0,0 km/h (0 Bft)
14.10.2018 09:19 9,9 °C 74 % 1014,4 hPa 0,0 mm 0,0 km/h (0 Bft) S-SW 205 ° 0 min 0,000 mm 0,0 UV-I 23 W/m² 5,5 °C 9,9 °C 0,0 km/h (0 Bft)
14.10.2018 09:20 9,9 °C 74 % 1014,4 hPa 0,0 mm 0,0 km/h (0 Bft) S-SW 205 ° 0 min 0,000 mm 0,0 UV-I 23 W/m² 5,5 °C 9,9 °C 0,0 km/h (0 Bft)
14.10.2018 09:21 9,9 °C 74 % 1014,4 hPa 0,0 mm 0,0 km/h (0 Bft) S-SW 205 ° 0 min 0,000 mm 0,0 UV-I 23 W/m² 5,5 °C 9,9 °C 0,0 km/h (0 Bft)
14.10.2018 09:22 10,1 °C 73 % 1014,4 hPa 0,0 mm 0,0 km/h (0 Bft) S-SW 205 ° 0 min 0,000 mm 0,0 UV-I 25 W/m² 5,5 °C 10,1 °C 0,0 km/h (0 Bft)
14.10.2018 09:23 10,2 °C 72 % 1014,4 hPa 0,0 mm 1,7 km/h (1 Bft) S-SW 205 ° 0 min 0,000 mm 0,0 UV-I 25 W/m² 5,4 °C 10,2 °C 3,2 km/h (1 Bft)
14.10.2018 09:24 10,3 °C 71 % 1014,4 hPa 0,0 mm 1,5 km/h (1 Bft) S-SW 205 ° 0 min 0,000 mm 0,0 UV-I 25 W/m² 5,3 °C 10,3 °C 3,2 km/h (1 Bft)
14.10.2018 09:25 10,3 °C 71 % 1014,4 hPa 0,0 mm 2,0 km/h (1 Bft) S-SW 205 ° 0 min 0,000 mm 0,0 UV-I 25 W/m² 5,3 °C 10,3 °C 3,2 km/h (1 Bft)
14.10.2018 09:26 10,4 °C 71 % 1014,4 hPa 0,0 mm 2,0 km/h (1 Bft) S-SW 205 ° 0 min 0,000 mm 0,0 UV-I 25 W/m² 5,4 °C 10,4 °C 3,2 km/h (1 Bft)
14.10.2018 09:27 10,4 °C 70 % 1014,4 hPa 0,0 mm 1,3 km/h (1 Bft) S-SW 205 ° 0 min 0,000 mm 0,0 UV-I 25 W/m² 5,2 °C 10,4 °C 3,2 km/h (1 Bft)
14.10.2018 09:28 10,6 °C 69 % 1014,4 hPa 0,0 mm 0,0 km/h (0 Bft) S-SW 205 ° 0 min 0,000 mm 0,0 UV-I 25 W/m² 5,2 °C 10,6 °C 0,0 km/h (0 Bft)
14.10.2018 09:29 10,6 °C 69 % 1014,4 hPa 0,0 mm 0,0 km/h (0 Bft) S-SW 205 ° 0 min 0,000 mm 0,0 UV-I 25 W/m² 5,2 °C 10,6 °C 0,0 km/h (0 Bft)
14.10.2018 09:30 10,6 °C 71 % 1014,4 hPa 0,0 mm 0,0 km/h (0 Bft) S-SW 205 ° 0 min 0,000 mm 0,0 UV-I 25 W/m² 5,6 °C 10,6 °C 0,0 km/h (0 Bft)
14.10.2018 09:31 10,6 °C 71 % 1014,4 hPa 0,0 mm 0,1 km/h (0 Bft) S-SW 205 ° 0 min 0,000 mm 0,0 UV-I 25 W/m² 5,6 °C 10,6 °C 1,6 km/h (1 Bft)
14.10.2018 09:32 10,7 °C 71 % 1014,4 hPa 0,0 mm 1,7 km/h (1 Bft) S-SW 205 ° 0 min 0,000 mm 0,0 UV-I 25 W/m² 5,7 °C 10,7 °C 3,2 km/h (1 Bft)
14.10.2018 09:33 11,0 °C 71 % 1014,4 hPa 0,0 mm 2,3 km/h (1 Bft) S-SW 205 ° 0 min 0,000 mm 0,0 UV-I 25 W/m² 5,9 °C 11,0 °C 4,8 km/h (1 Bft)
14.10.2018 09:34 11,3 °C 69 % 1014,4 hPa 0,0 mm 0,7 km/h (0 Bft) S-SW 205 ° 0 min 0,000 mm 0,0 UV-I 25 W/m² 5,8 °C 11,3 °C 3,2 km/h (1 Bft)
14.10.2018 09:35 11,6 °C 69 % 1014,4 hPa 0,0 mm 0,0 km/h (0 Bft) S-SW 205 ° 0 min 0,000 mm 0,0 UV-I 26 W/m² 6,1 °C 11,6 °C 0,0 km/h (0 Bft)
14.10.2018 09:36 11,7 °C 70 % 1014,4 hPa 0,0 mm 0,0 km/h (0 Bft) S-SW 205 ° 0 min 0,000 mm 0,0 UV-I 26 W/m² 6,4 °C 11,7 °C 0,0 km/h (0 Bft)
14.10.2018 09:37 11,7 °C 69 % 1014,4 hPa 0,0 mm 0,0 km/h (0 Bft) S-SW 205 ° 0 min 0,000 mm 0,0 UV-I 26 W/m² 6,2 °C 11,7 °C 0,0 km/h (0 Bft)
14.10.2018 09:38 12,0 °C 67 % 1014,5 hPa 0,0 mm 0,0 km/h (0 Bft) S-SW 205 ° 0 min 0,000 mm 0,0 UV-I 26 W/m² 6,1 °C 12,0 °C 0,0 km/h (0 Bft)
14.10.2018 09:39 12,1 °C 69 % 1014,4 hPa 0,0 mm 0,0 km/h (0 Bft) S-SW 205 ° 0 min 0,000 mm 0,0 UV-I 26 W/m² 6,6 °C 12,1 °C 0,0 km/h (0 Bft)
14.10.2018 09:40 12,1 °C 66 % 1014,4 hPa 0,0 mm 1,7 km/h (1 Bft) S-SW 205 ° 0 min 0,000 mm 0,0 UV-I 26 W/m² 5,9 °C 12,1 °C 3,2 km/h (1 Bft)
14.10.2018 09:41 12,3 °C 64 % 1014,4 hPa 0,0 mm 2,3 km/h (1 Bft) S-SW 205 ° 0 min 0,000 mm 0,0 UV-I 26 W/m² 5,7 °C 12,3 °C 3,2 km/h (1 Bft)
14.10.2018 09:42 12,6 °C 62 % 1014,4 hPa 0,0 mm 2,7 km/h (1 Bft) S-SW 194 ° 0 min 0,000 mm 0,0 UV-I 26 W/m² 5,5 °C 12,6 °C 4,8 km/h (1 Bft)
14.10.2018 09:43 12,6 °C 64 % 1014,4 hPa 0,0 mm 2,1 km/h (1 Bft) S-SW 194 ° 0 min 0,000 mm 0,0 UV-I 26 W/m² 6,0 °C 12,6 °C 3,2 km/h (1 Bft)
14.10.2018 09:44 12,7 °C 61 % 1014,4 hPa 0,0 mm 0,7 km/h (0 Bft) S-SW 194 ° 0 min 0,000 mm 0,0 UV-I 26 W/m² 5,4 °C 12,7 °C 3,2 km/h (1 Bft)
14.10.2018 09:45 12,9 °C 60 % 1014,4 hPa 0,0 mm 0,3 km/h (0 Bft) S-SW 194 ° 0 min 0,000 mm 0,0 UV-I 26 W/m² 5,3 °C 12,9 °C 1,6 km/h (1 Bft)
14.10.2018 09:46 13,2 °C 61 % 1014,4 hPa 0,0 mm 2,9 km/h (1 Bft) S-SW 194 ° 0 min 0,000 mm 0,0 UV-I 28 W/m² 5,8 °C 13,2 °C 3,2 km/h (1 Bft)
14.10.2018 09:47 13,4 °C 59 % 1014,4 hPa 0,0 mm 3,0 km/h (1 Bft) S-SW 194 ° 0 min 0,000 mm 0,0 UV-I 28 W/m² 5,6 °C 13,4 °C 4,8 km/h (1 Bft)
14.10.2018 09:48 13,7 °C 59 % 1014,4 hPa 0,0 mm 2,3 km/h (1 Bft) S-SW 194 ° 0 min 0,000 mm 0,0 UV-I 28 W/m² 5,8 °C 13,7 °C 3,2 km/h (1 Bft)
14.10.2018 09:49 13,9 °C 59 % 1014,4 hPa 0,0 mm 2,4 km/h (1 Bft) S-SW 193 ° 0 min 0,000 mm 0,0 UV-I 28 W/m² 6,0 °C 13,9 °C 3,2 km/h (1 Bft)
14.10.2018 09:50 14,1 °C 61 % 1014,4 hPa 0,0 mm 1,4 km/h (1 Bft) S-SW 193 ° 0 min 0,000 mm 0,0 UV-I 28 W/m² 6,7 °C 14,1 °C 3,2 km/h (1 Bft)
14.10.2018 09:51 14,1 °C 61 % 1014,3 hPa 0,0 mm 1,6 km/h (1 Bft) S-SW 193 ° 0 min 0,000 mm 0,0 UV-I 28 W/m² 6,7 °C 14,1 °C 1,6 km/h (1 Bft)
14.10.2018 09:52 14,2 °C 60 % 1014,3 hPa 0,0 mm 3,2 km/h (1 Bft) S-SW 202 ° 0 min 0,000 mm 0,0 UV-I 28 W/m² 6,5 °C 14,2 °C 4,8 km/h (1 Bft)
14.10.2018 09:53 14,3 °C 59 % 1014,3 hPa 0,0 mm 1,6 km/h (1 Bft) S-SW 202 ° 0 min 0,000 mm 0,0 UV-I 28 W/m² 6,4 °C 14,3 °C 3,2 km/h (1 Bft)
14.10.2018 09:54 14,3 °C 60 % 1014,3 hPa 0,0 mm 4,8 km/h (1 Bft) S-SW 202 ° 0 min 0,000 mm 0,0 UV-I 28 W/m² 6,6 °C 14,3 °C 8,0 km/h (2 Bft)
14.10.2018 09:55 14,4 °C 57 % 1014,3 hPa 0,0 mm 3,2 km/h (1 Bft) S-SW 202 ° 0 min 0,000 mm 0,0 UV-I 28 W/m² 6,0 °C 14,4 °C 6,4 km/h (2 Bft)
14.10.2018 09:56 14,6 °C 54 % 1014,3 hPa 0,0 mm 1,6 km/h (1 Bft) S 180 ° 0 min 0,000 mm 0,0 UV-I 28 W/m² 5,4 °C 14,6 °C 3,2 km/h (1 Bft)
14.10.2018 09:57 14,8 °C 55 % 1014,3 hPa 0,0 mm 1,6 km/h (1 Bft) S 180 ° 0 min 0,000 mm 0,0 UV-I 28 W/m² 5,8 °C 14,8 °C 4,8 km/h (1 Bft)
14.10.2018 09:58 15,0 °C 54 % 1014,3 hPa 0,0 mm 1,6 km/h (1 Bft) S 180 ° 0 min 0,000 mm 0,0 UV-I 28 W/m² 5,8 °C 15,0 °C 3,2 km/h (1 Bft)
14.10.2018 10:00 15,0 °C 58 % 1014,3 hPa 0,0 mm 3,2 km/h (1 Bft) O 86 ° 0 min 0,000 mm 0,0 UV-I 28 W/m² 6,8 °C 15,0 °C 4,8 km/h (1 Bft)
14.10.2018 10:01 14,8 °C 59 % 1014,3 hPa 0,0 mm 2,7 km/h (1 Bft) O 86 ° 0 min 0,025 mm 0,0 UV-I 30 W/m² 6,9 °C 14,8 °C 4,8 km/h (1 Bft)
14.10.2018 10:02 14,9 °C 53 % 1014,3 hPa 0,0 mm 0,8 km/h (0 Bft) O 86 ° 0 min 0,000 mm 0,0 UV-I 30 W/m² 5,4 °C 14,9 °C 1,6 km/h (1 Bft)
14.10.2018 10:03 15,1 °C 53 % 1014,2 hPa 0,0 mm 0,0 km/h (0 Bft) O 86 ° 0 min 0,000 mm 0,0 UV-I 30 W/m² 5,6 °C 15,1 °C 0,0 km/h (0 Bft)
14.10.2018 10:04 15,0 °C 57 % 1014,2 hPa 0,0 mm 0,0 km/h (0 Bft) O 86 ° 0 min 0,000 mm 0,0 UV-I 30 W/m² 6,6 °C 15,0 °C 0,0 km/h (0 Bft)
14.10.2018 10:05 14,9 °C 56 % 1014,2 hPa 0,0 mm 0,0 km/h (0 Bft) O 86 ° 0 min 0,000 mm 0,0 UV-I 30 W/m² 6,2 °C 14,9 °C 0,0 km/h (0 Bft)
14.10.2018 10:06 14,7 °C 59 % 1014,2 hPa 0,0 mm 0,9 km/h (0 Bft) O-NO 74 ° 0 min 0,000 mm 0,0 UV-I 30 W/m² 6,8 °C 14,7 °C 3,2 km/h (1 Bft)
14.10.2018 10:07 14,7 °C 55 % 1014,2 hPa 0,0 mm 0,7 km/h (0 Bft) O-NO 74 ° 0 min 0,000 mm 0,0 UV-I 30 W/m² 5,8 °C 14,7 °C 1,6 km/h (1 Bft)
14.10.2018 10:08 14,8 °C 55 % 1014,2 hPa 0,0 mm 0,6 km/h (0 Bft) O-NO 74 ° 0 min 0,000 mm 0,0 UV-I 30 W/m² 5,8 °C 14,8 °C 1,6 km/h (1 Bft)
14.10.2018 10:09 14,9 °C 55 % 1014,3 hPa 0,0 mm 0,0 km/h (0 Bft) O-NO 74 ° 0 min 0,000 mm 0,0 UV-I 30 W/m² 5,9 °C 14,9 °C 0,0 km/h (0 Bft)
14.10.2018 10:10 15,1 °C 53 % 1014,2 hPa 0,0 mm 1,2 km/h (1 Bft) O-NO 74 ° 0 min 0,000 mm 0,0 UV-I 30 W/m² 5,6 °C 15,1 °C 3,2 km/h (1 Bft)
14.10.2018 10:11 15,3 °C 53 % 1014,2 hPa 0,0 mm 0,1 km/h (0 Bft) O-NO 74 ° 0 min 0,000 mm 0,0 UV-I 30 W/m² 5,8 °C 15,3 °C 1,6 km/h (1 Bft)
14.10.2018 10:12 15,4 °C 53 % 1014,2 hPa 0,0 mm 0,2 km/h (0 Bft) O-NO 74 ° 0 min 0,000 mm 0,0 UV-I 30 W/m² 5,9 °C 15,4 °C 3,2 km/h (1 Bft)
14.10.2018 10:13 15,4 °C 55 % 1014,2 hPa 0,0 mm 1,5 km/h (1 Bft) O-NO 74 ° 0 min 0,000 mm 0,0 UV-I 30 W/m² 6,4 °C 15,4 °C 3,2 km/h (1 Bft)
14.10.2018 10:14 15,3 °C 57 % 1014,2 hPa 0,0 mm 1,3 km/h (1 Bft) O-SO 116 ° 0 min 0,000 mm 0,0 UV-I 30 W/m² 6,8 °C 15,3 °C 4,8 km/h (1 Bft)
14.10.2018 10:15 15,1 °C 56 % 1014,1 hPa 0,0 mm 1,8 km/h (1 Bft) O-SO 116 ° 0 min 0,000 mm 0,0 UV-I 30 W/m² 6,4 °C 15,1 °C 4,8 km/h (1 Bft)
14.10.2018 10:16 14,9 °C 57 % 1014,1 hPa 0,0 mm 0,9 km/h (0 Bft) O-SO 116 ° 0 min 0,000 mm 0,0 UV-I 30 W/m² 6,5 °C 14,9 °C 3,2 km/h (1 Bft)
14.10.2018 10:17 14,8 °C 58 % 1014,1 hPa 0,0 mm 0,8 km/h (0 Bft) O-SO 116 ° 0 min 0,000 mm 0,0 UV-I 32 W/m² 6,6 °C 14,8 °C 3,2 km/h (1 Bft)
14.10.2018 10:18 14,8 °C 57 % 1014,1 hPa 0,0 mm 2,6 km/h (1 Bft) O-SO 113 ° 0 min 0,000 mm 0,0 UV-I 32 W/m² 6,4 °C 14,8 °C 4,8 km/h (1 Bft)
14.10.2018 10:19 15,0 °C 58 % 1014,1 hPa 0,0 mm 2,3 km/h (1 Bft) NO 43 ° 0 min 0,000 mm 0,0 UV-I 32 W/m² 6,8 °C 15,0 °C 6,4 km/h (2 Bft)
14.10.2018 10:20 15,1 °C 53 % 1014,1 hPa 0,0 mm 5,1 km/h (1 Bft) S 171 ° 0 min 0,000 mm 0,0 UV-I 32 W/m² 5,6 °C 15,1 °C 9,7 km/h (2 Bft)
14.10.2018 10:21 15,2 °C 54 % 1014,1 hPa 0,0 mm 0,1 km/h (0 Bft) S 171 ° 0 min 0,000 mm 0,0 UV-I 33 W/m² 6,0 °C 15,2 °C 1,6 km/h (1 Bft)
14.10.2018 10:22 15,3 °C 58 % 1014,0 hPa 0,0 mm 2,1 km/h (1 Bft) N-NO 23 ° 0 min 0,000 mm 0,0 UV-I 32 W/m² 7,1 °C 15,3 °C 6,4 km/h (2 Bft)
14.10.2018 10:23 15,3 °C 55 % 1014,0 hPa 0,0 mm 1,5 km/h (1 Bft) N-NO 23 ° 0 min 0,000 mm 0,0 UV-I 32 W/m² 6,3 °C 15,3 °C 3,2 km/h (1 Bft)
14.10.2018 10:24 15,4 °C 55 % 1014,0 hPa 0,0 mm 0,0 km/h (0 Bft) N-NO 23 ° 0 min 0,000 mm 0,0 UV-I 32 W/m² 6,4 °C 15,4 °C 0,0 km/h (0 Bft)
14.10.2018 10:25 15,6 °C 54 % 1014,0 hPa 0,0 mm 0,0 km/h (0 Bft) N-NO 23 ° 0 min 0,000 mm 0,0 UV-I 32 W/m² 6,3 °C 15,6 °C 0,0 km/h (0 Bft)
14.10.2018 10:26 15,6 °C 55 % 1014,0 hPa 0,0 mm 0,8 km/h (0 Bft) N-NO 23 ° 0 min 0,000 mm 0,0 UV-I 32 W/m² 6,6 °C 15,6 °C 3,2 km/h (1 Bft)
14.10.2018 10:27 15,6 °C 55 % 1014,0 hPa 0,0 mm 2,2 km/h (1 Bft) O 89 ° 0 min 0,000 mm 0,0 UV-I 32 W/m² 6,6 °C 15,6 °C 4,8 km/h (1 Bft)
14.10.2018 10:28 15,6 °C 54 % 1014,0 hPa 0,0 mm 0,1 km/h (0 Bft) O 89 ° 0 min 0,000 mm 0,0 UV-I 32 W/m² 6,3 °C 15,6 °C 1,6 km/h (1 Bft)
14.10.2018 10:29 15,6 °C 55 % 1014,0 hPa 0,0 mm 1,6 km/h (1 Bft) O 89 ° 0 min 0,000 mm 0,0 UV-I 32 W/m² 6,6 °C 15,6 °C 3,2 km/h (1 Bft)
14.10.2018 10:30 15,8 °C 53 % 1014,0 hPa 0,0 mm 0,3 km/h (0 Bft) O 89 ° 0 min 0,000 mm 0,0 UV-I 33 W/m² 6,2 °C 15,8 °C 1,6 km/h (1 Bft)
14.10.2018 10:31 15,9 °C 50 % 1014,0 hPa 0,0 mm 0,5 km/h (0 Bft) O 89 ° 0 min 0,000 mm 0,0 UV-I 33 W/m² 5,5 °C 15,9 °C 1,6 km/h (1 Bft)
14.10.2018 10:32 16,0 °C 51 % 1013,9 hPa 0,0 mm 0,0 km/h (0 Bft) O 89 ° 0 min 0,000 mm 0,0 UV-I 32 W/m² 5,9 °C 16,0 °C 0,0 km/h (0 Bft)
14.10.2018 10:33 16,1 °C 52 % 1014,0 hPa 0,0 mm 0,0 km/h (0 Bft) O 89 ° 0 min 0,000 mm 0,0 UV-I 32 W/m² 6,2 °C 16,1 °C 0,0 km/h (0 Bft)
14.10.2018 10:34 16,1 °C 51 % 1014,1 hPa 0,0 mm 2,2 km/h (1 Bft) O-SO 103 ° 0 min 0,000 mm 0,0 UV-I 33 W/m² 6,0 °C 16,1 °C 4,8 km/h (1 Bft)
14.10.2018 10:35 16,1 °C 51 % 1014,0 hPa 0,0 mm 0,0 km/h (0 Bft) O-SO 103 ° 0 min 0,000 mm 0,0 UV-I 35 W/m² 6,0 °C 16,1 °C 0,0 km/h (0 Bft)
14.10.2018 10:36 16,0 °C 54 % 1014,0 hPa 0,0 mm 2,2 km/h (1 Bft) NO 46 ° 0 min 0,000 mm 0,0 UV-I 35 W/m² 6,7 °C 16,0 °C 6,4 km/h (2 Bft)
14.10.2018 10:37 16,1 °C 52 % 1014,0 hPa 0,0 mm 0,6 km/h (0 Bft) NO 46 ° 0 min 0,000 mm 0,0 UV-I 33 W/m² 6,2 °C 16,1 °C 3,2 km/h (1 Bft)
14.10.2018 10:38 16,1 °C 52 % 1013,9 hPa 0,0 mm 0,2 km/h (0 Bft) O-SO 103 ° 0 min 0,000 mm 0,0 UV-I 33 W/m² 6,2 °C 16,1 °C 1,6 km/h (1 Bft)
14.10.2018 10:39 16,3 °C 51 % 1013,9 hPa 0,0 mm 3,4 km/h (1 Bft) O 97 ° 0 min 0,000 mm 0,0 UV-I 33 W/m² 6,1 °C 16,3 °C 6,4 km/h (2 Bft)
14.10.2018 10:40 16,4 °C 50 % 1014,0 hPa 0,0 mm 2,5 km/h (1 Bft) O-SO 121 ° 0 min 0,000 mm 0,0 UV-I 33 W/m² 6,0 °C 16,4 °C 6,4 km/h (2 Bft)
14.10.2018 10:41 16,6 °C 48 % 1014,0 hPa 0,0 mm 0,5 km/h (0 Bft) O-SO 121 ° 0 min 0,000 mm 0,0 UV-I 33 W/m² 5,5 °C 16,6 °C 3,2 km/h (1 Bft)
14.10.2018 10:42 16,6 °C 48 % 1013,9 hPa 0,0 mm 0,0 km/h (0 Bft) O-SO 121 ° 0 min 0,000 mm 0,0 UV-I 39 W/m² 5,5 °C 16,6 °C 0,0 km/h (0 Bft)
14.10.2018 10:43 16,7 °C 47 % 1013,9 hPa 0,0 mm 0,7 km/h (0 Bft) O-SO 121 ° 0 min 0,000 mm 0,0 UV-I 39 W/m² 5,3 °C 16,7 °C 3,2 km/h (1 Bft)
14.10.2018 10:44 16,8 °C 50 % 1013,9 hPa 0,0 mm 0,8 km/h (0 Bft) O-SO 112 ° 0 min 0,000 mm 0,0 UV-I 39 W/m² 6,3 °C 16,8 °C 1,6 km/h (1 Bft)
14.10.2018 10:45 16,8 °C 48 % 1013,9 hPa 0,0 mm 0,0 km/h (0 Bft) O-SO 112 ° 0 min 0,000 mm 0,0 UV-I 33 W/m² 5,7 °C 16,8 °C 0,0 km/h (0 Bft)
14.10.2018 10:46 16,8 °C 49 % 1013,8 hPa 0,0 mm 0,1 km/h (0 Bft) O-SO 112 ° 0 min 0,000 mm 0,0 UV-I 33 W/m² 6,0 °C 16,8 °C 1,6 km/h (1 Bft)
14.10.2018 10:47 16,8 °C 50 % 1013,8 hPa 0,0 mm 0,6 km/h (0 Bft) O-SO 112 ° 0 min 0,000 mm 0,0 UV-I 35 W/m² 6,3 °C 16,8 °C 3,2 km/h (1 Bft)
14.10.2018 10:48 16,7 °C 48 % 1013,7 hPa 0,0 mm 1,9 km/h (1 Bft) O-SO 117 ° 0 min 0,000 mm 0,0 UV-I 39 W/m² 5,6 °C 16,7 °C 3,2 km/h (1 Bft)
14.10.2018 10:49 16,7 °C 51 % 1013,8 hPa 0,0 mm 1,1 km/h (1 Bft) O 101 ° 0 min 0,000 mm 0,0 UV-I 40 W/m² 6,5 °C 16,7 °C 3,2 km/h (1 Bft)
14.10.2018 10:50 16,8 °C 48 % 1013,7 hPa 0,0 mm 0,5 km/h (0 Bft) O-SO 102 ° 0 min 0,000 mm 0,0 UV-I 39 W/m² 5,7 °C 16,8 °C 1,6 km/h (1 Bft)
14.10.2018 10:51 16,9 °C 48 % 1013,7 hPa 0,0 mm 0,1 km/h (0 Bft) O-SO 102 ° 0 min 0,000 mm 0,0 UV-I 47 W/m² 5,8 °C 16,9 °C 1,6 km/h (1 Bft)
14.10.2018 10:52 16,9 °C 49 % 1013,8 hPa 0,0 mm 0,2 km/h (0 Bft) O-SO 102 ° 0 min 0,000 mm 0,0 UV-I 53 W/m² 6,1 °C 16,9 °C 1,6 km/h (1 Bft)
14.10.2018 10:53 17,0 °C 49 % 1013,7 hPa 0,0 mm 0,0 km/h (0 Bft) O-SO 102 ° 0 min 0,000 mm 0,0 UV-I 53 W/m² 6,2 °C 17,0 °C 0,0 km/h (0 Bft)
14.10.2018 10:54 16,9 °C 47 % 1013,7 hPa 0,0 mm 0,4 km/h (0 Bft) O-SO 104 ° 0 min 0,000 mm 1,3 UV-I 69 W/m² 5,5 °C 16,9 °C 3,2 km/h (1 Bft)
14.10.2018 10:55 17,1 °C 47 % 1013,7 hPa 0,0 mm 1,7 km/h (1 Bft) O-SO 104 ° 0 min 0,000 mm 1,4 UV-I 77 W/m² 5,7 °C 17,1 °C 4,8 km/h (1 Bft)
14.10.2018 10:56 17,2 °C 47 % 1013,7 hPa 0,0 mm 0,0 km/h (0 Bft) O-SO 104 ° 0 min 0,000 mm 1,5 UV-I 77 W/m² 5,8 °C 17,2 °C 0,0 km/h (0 Bft)
14.10.2018 10:57 17,1 °C 50 % 1013,6 hPa 0,0 mm 0,5 km/h (0 Bft) O-SO 104 ° 0 min 0,000 mm 1,8 UV-I 432 W/m² 6,6 °C 17,1 °C 3,2 km/h (1 Bft)
14.10.2018 10:58 16,9 °C 49 % 1013,6 hPa 0,0 mm 0,8 km/h (0 Bft) O-SO 104 ° 0 min 0,000 mm 2,2 UV-I 425 W/m² 6,1 °C 16,9 °C 3,2 km/h (1 Bft)
14.10.2018 10:59 17,1 °C 48 % 1013,7 hPa 0,0 mm 1,3 km/h (1 Bft) O-SO 104 ° 0 min 0,000 mm 2,2 UV-I 420 W/m² 6,0 °C 17,1 °C 4,8 km/h (1 Bft)
14.10.2018 11:00 17,2 °C 47 % 1013,6 hPa 0,0 mm 0,0 km/h (0 Bft) O-SO 104 ° 0 min 0,000 mm 2,2 UV-I 455 W/m² 5,8 °C 17,2 °C 0,0 km/h (0 Bft)
14.10.2018 11:01 17,1 °C 48 % 1013,6 hPa 0,0 mm 0,3 km/h (0 Bft) O-SO 104 ° 0 min 0,051 mm 2,3 UV-I 462 W/m² 6,0 °C 17,1 °C 1,6 km/h (1 Bft)
14.10.2018 11:02 17,2 °C 47 % 1013,6 hPa 0,0 mm 0,3 km/h (0 Bft) O-SO 104 ° 0 min 0,000 mm 2,3 UV-I 466 W/m² 5,8 °C 17,2 °C 1,6 km/h (1 Bft)
14.10.2018 11:03 17,6 °C 45 % 1013,5 hPa 0,0 mm 0,5 km/h (0 Bft) O-SO 117 ° 0 min 0,000 mm 2,3 UV-I 468 W/m² 5,5 °C 17,6 °C 3,2 km/h (1 Bft)
14.10.2018 11:04 17,7 °C 47 % 1013,5 hPa 0,0 mm 3,2 km/h (1 Bft) NO 44 ° 0 min 0,000 mm 2,4 UV-I 469 W/m² 6,2 °C 17,7 °C 4,8 km/h (1 Bft)
14.10.2018 11:05 17,6 °C 49 % 1013,5 hPa 0,0 mm 0,3 km/h (0 Bft) NO 44 ° 0 min 0,000 mm 2,4 UV-I 454 W/m² 6,8 °C 17,6 °C 1,6 km/h (1 Bft)
14.10.2018 11:06 17,7 °C 45 % 1013,5 hPa 0,0 mm 0,0 km/h (0 Bft) NO 44 ° 0 min 0,000 mm 2,4 UV-I 418 W/m² 5,6 °C 17,7 °C 0,0 km/h (0 Bft)
14.10.2018 11:07 17,7 °C 45 % 1013,5 hPa 0,0 mm 0,3 km/h (0 Bft) NO 44 ° 0 min 0,000 mm 2,3 UV-I 390 W/m² 5,6 °C 17,7 °C 1,6 km/h (1 Bft)
14.10.2018 11:08 17,8 °C 44 % 1013,4 hPa 0,0 mm 0,9 km/h (0 Bft) O-SO 107 ° 0 min 0,000 mm 2,3 UV-I 341 W/m² 5,4 °C 17,8 °C 3,2 km/h (1 Bft)
14.10.2018 11:09 17,9 °C 46 % 1013,4 hPa 0,0 mm 0,5 km/h (0 Bft) O-SO 107 ° 0 min 0,000 mm 2,2 UV-I 329 W/m² 6,1 °C 17,9 °C 1,6 km/h (1 Bft)
14.10.2018 11:10 18,1 °C 43 % 1013,4 hPa 0,0 mm 1,1 km/h (1 Bft) O-SO 107 ° 0 min 0,000 mm 2,2 UV-I 283 W/m² 5,3 °C 18,1 °C 3,2 km/h (1 Bft)
14.10.2018 11:11 18,0 °C 44 % 1013,5 hPa 0,0 mm 0,5 km/h (0 Bft) O-SO 107 ° 0 min 0,000 mm 2,0 UV-I 229 W/m² 5,6 °C 18,0 °C 4,8 km/h (1 Bft)
14.10.2018 11:12 18,1 °C 43 % 1013,4 hPa 0,0 mm 5,1 km/h (1 Bft) O 87 ° 0 min 0,000 mm 1,9 UV-I 206 W/m² 5,3 °C 18,1 °C 11,3 km/h (2 Bft)
14.10.2018 11:13 18,4 °C 42 % 1013,4 hPa 0,0 mm 1,9 km/h (1 Bft) O-SO 102 ° 0 min 0,000 mm 1,9 UV-I 172 W/m² 5,3 °C 18,4 °C 4,8 km/h (1 Bft)
14.10.2018 11:14 18,5 °C 41 % 1013,3 hPa 0,0 mm 0,8 km/h (0 Bft) O-SO 102 ° 0 min 0,000 mm 1,8 UV-I 149 W/m² 5,0 °C 18,5 °C 3,2 km/h (1 Bft)
14.10.2018 11:15 18,4 °C 46 % 1013,4 hPa 0,0 mm 0,5 km/h (0 Bft) O-SO 102 ° 0 min 0,000 mm 1,8 UV-I 214 W/m² 6,6 °C 18,4 °C 1,6 km/h (1 Bft)
14.10.2018 11:16 18,2 °C 46 % 1013,3 hPa 0,0 mm 0,2 km/h (0 Bft) O-SO 102 ° 0 min 0,000 mm 1,9 UV-I 200 W/m² 6,4 °C 18,2 °C 1,6 km/h (1 Bft)
14.10.2018 11:17 18,1 °C 48 % 1013,3 hPa 0,0 mm 2,5 km/h (1 Bft) O-SO 102 ° 0 min 0,000 mm 1,9 UV-I 130 W/m² 6,9 °C 18,1 °C 4,8 km/h (1 Bft)
14.10.2018 11:18 18,2 °C 44 % 1013,3 hPa 0,0 mm 2,7 km/h (1 Bft) O 88 ° 0 min 0,000 mm 1,6 UV-I 56 W/m² 5,7 °C 18,2 °C 4,8 km/h (1 Bft)
14.10.2018 11:19 18,3 °C 44 % 1013,3 hPa 0,0 mm 1,5 km/h (1 Bft) O 88 ° 0 min 0,000 mm 0,0 UV-I 49 W/m² 5,8 °C 18,3 °C 3,2 km/h (1 Bft)
14.10.2018 11:20 18,3 °C 45 % 1013,3 hPa 0,0 mm 1,9 km/h (1 Bft) O 84 ° 0 min 0,000 mm 0,0 UV-I 44 W/m² 6,2 °C 18,3 °C 4,8 km/h (1 Bft)
14.10.2018 11:21 18,3 °C 45 % 1013,3 hPa 0,0 mm 0,3 km/h (0 Bft) O 84 ° 0 min 0,000 mm 0,0 UV-I 37 W/m² 6,2 °C 18,3 °C 1,6 km/h (1 Bft)
14.10.2018 11:22 18,2 °C 46 % 1013,3 hPa 0,0 mm 3,0 km/h (1 Bft) S-SW 196 ° 0 min 0,000 mm 0,0 UV-I 37 W/m² 6,4 °C 18,2 °C 6,4 km/h (2 Bft)
14.10.2018 11:23 18,3 °C 45 % 1013,3 hPa 0,0 mm 0,1 km/h (0 Bft) S-SW 196 ° 0 min 0,000 mm 0,0 UV-I 37 W/m² 6,2 °C 18,3 °C 1,6 km/h (1 Bft)
14.10.2018 11:24 18,3 °C 45 % 1013,3 hPa 0,0 mm 1,8 km/h (1 Bft) S-SO 149 ° 0 min 0,000 mm 0,0 UV-I 37 W/m² 6,2 °C 18,3 °C 4,8 km/h (1 Bft)
14.10.2018 11:25 18,3 °C 44 % 1013,3 hPa 0,0 mm 0,9 km/h (0 Bft) SO 146 ° 0 min 0,000 mm 0,0 UV-I 37 W/m² 5,8 °C 18,3 °C 1,6 km/h (1 Bft)
14.10.2018 11:26 18,3 °C 44 % 1013,3 hPa 0,0 mm 1,1 km/h (1 Bft) SO 146 ° 0 min 0,000 mm 0,0 UV-I 39 W/m² 5,8 °C 18,3 °C 1,6 km/h (1 Bft)
14.10.2018 11:27 18,3 °C 47 % 1013,2 hPa 0,0 mm 1,6 km/h (1 Bft) O-SO 112 ° 0 min 0,000 mm 0,0 UV-I 40 W/m² 6,8 °C 18,3 °C 3,2 km/h (1 Bft)
14.10.2018 11:28 18,2 °C 47 % 1013,2 hPa 0,0 mm 0,0 km/h (0 Bft) O-SO 112 ° 0 min 0,000 mm 0,0 UV-I 39 W/m² 6,7 °C 18,2 °C 1,6 km/h (1 Bft)
14.10.2018 11:29 18,1 °C 44 % 1013,2 hPa 0,0 mm 0,0 km/h (0 Bft) N 0 ° 0 min 0,000 mm 0,0 UV-I 37 W/m² 5,7 °C 18,1 °C 0,0 km/h (0 Bft)
14.10.2018 11:30 18,2 °C 44 % 1013,1 hPa 0,0 mm 0,0 km/h (0 Bft) N 0 ° 0 min 0,000 mm 0,0 UV-I 37 W/m² 5,7 °C 18,2 °C 0,0 km/h (0 Bft)
14.10.2018 11:31 18,3 °C 45 % 1013,1 hPa 0,0 mm 0,0 km/h (0 Bft) N 0 ° 0 min 0,000 mm 0,0 UV-I 37 W/m² 6,2 °C 18,3 °C 0,0 km/h (0 Bft)
14.10.2018 11:32 18,3 °C 45 % 1013,1 hPa 0,0 mm 0,0 km/h (0 Bft) N 0 ° 0 min 0,000 mm 0,0 UV-I 37 W/m² 6,2 °C 18,3 °C 0,0 km/h (0 Bft)
14.10.2018 11:33 18,3 °C 44 % 1013,1 hPa 0,0 mm 0,0 km/h (0 Bft) O-SO 112 ° 0 min 0,000 mm 0,0 UV-I 53 W/m² 5,8 °C 18,3 °C 1,6 km/h (1 Bft)
14.10.2018 11:35 18,3 °C 43 % 1013,0 hPa 0,0 mm 0,6 km/h (0 Bft) O 101 ° 0 min 0,000 mm 1,6 UV-I 93 W/m² 5,5 °C 18,3 °C 1,6 km/h (1 Bft)
14.10.2018 11:36 18,4 °C 43 % 1013,1 hPa 0,0 mm 2,2 km/h (1 Bft) O 94 ° 0 min 0,000 mm 1,7 UV-I 190 W/m² 5,6 °C 18,4 °C 4,8 km/h (1 Bft)
14.10.2018 11:37 18,5 °C 48 % 1013,0 hPa 0,0 mm 4,9 km/h (1 Bft) NO 48 ° 0 min 0,000 mm 2,3 UV-I 190 W/m² 7,3 °C 18,5 °C 8,0 km/h (2 Bft)
14.10.2018 11:38 18,4 °C 44 % 1013,0 hPa 0,0 mm 2,3 km/h (1 Bft) S-SO 162 ° 0 min 0,000 mm 2,7 UV-I 504 W/m² 5,9 °C 18,4 °C 6,4 km/h (2 Bft)
14.10.2018 11:39 18,6 °C 40 % 1013,0 hPa 0,0 mm 2,7 km/h (1 Bft) S 188 ° 0 min 0,000 mm 2,8 UV-I 513 W/m² 4,7 °C 18,6 °C 4,8 km/h (1 Bft)
14.10.2018 11:40 19,0 °C 40 % 1013,0 hPa 0,0 mm 3,5 km/h (1 Bft) N-NO 24 ° 0 min 0,000 mm 2,9 UV-I 526 W/m² 5,1 °C 19,0 °C 6,4 km/h (2 Bft)
14.10.2018 11:41 18,9 °C 44 % 1013,1 hPa 0,0 mm 0,9 km/h (0 Bft) N-NO 24 ° 0 min 0,000 mm 2,9 UV-I 526 W/m² 6,4 °C 18,9 °C 3,2 km/h (1 Bft)
14.10.2018 11:42 18,9 °C 41 % 1013,0 hPa 0,0 mm 0,2 km/h (0 Bft) N-NO 24 ° 0 min 0,000 mm 2,9 UV-I 526 W/m² 5,4 °C 18,9 °C 1,6 km/h (1 Bft)
14.10.2018 11:43 19,1 °C 46 % 1013,0 hPa 0,0 mm 0,1 km/h (0 Bft) N-NO 24 ° 0 min 0,000 mm 2,9 UV-I 527 W/m² 7,2 °C 19,1 °C 1,6 km/h (1 Bft)
14.10.2018 11:44 19,0 °C 45 % 1013,0 hPa 0,0 mm 1,6 km/h (1 Bft) N-NO 22 ° 0 min 0,000 mm 2,9 UV-I 529 W/m² 6,8 °C 19,0 °C 4,8 km/h (1 Bft)
14.10.2018 11:46 18,8 °C 44 % 1013,0 hPa 0,0 mm 0,0 km/h (0 Bft) O-SO 115 ° 0 min 0,000 mm 3,0 UV-I 533 W/m² 6,3 °C 18,8 °C 0,0 km/h (0 Bft)
14.10.2018 11:47 19,1 °C 45 % 1013,0 hPa 0,0 mm 2,5 km/h (1 Bft) N-NO 18 ° 0 min 0,000 mm 3,0 UV-I 533 W/m² 6,9 °C 19,1 °C 4,8 km/h (1 Bft)
14.10.2018 11:48 18,9 °C 43 % 1013,0 hPa 0,0 mm 0,1 km/h (0 Bft) N-NO 18 ° 0 min 0,000 mm 3,0 UV-I 533 W/m² 6,0 °C 18,9 °C 1,6 km/h (1 Bft)
14.10.2018 11:49 18,9 °C 43 % 1013,0 hPa 0,0 mm 0,0 km/h (0 Bft) O-NO 74 ° 0 min 0,000 mm 3,0 UV-I 538 W/m² 6,0 °C 18,9 °C 0,0 km/h (0 Bft)
14.10.2018 11:50 19,2 °C 40 % 1013,0 hPa 0,0 mm 0,1 km/h (0 Bft) O 82 ° 0 min 0,000 mm 3,0 UV-I 538 W/m² 5,3 °C 19,2 °C 1,6 km/h (1 Bft)
14.10.2018 11:51 19,3 °C 46 % 1013,0 hPa 0,0 mm 1,0 km/h (0 Bft) O 80 ° 0 min 0,000 mm 3,0 UV-I 538 W/m² 7,4 °C 19,3 °C 3,2 km/h (1 Bft)
14.10.2018 11:52 19,1 °C 46 % 1013,0 hPa 0,0 mm 0,4 km/h (0 Bft) O 80 ° 0 min 0,000 mm 3,0 UV-I 536 W/m² 7,2 °C 19,1 °C 3,2 km/h (1 Bft)
14.10.2018 11:53 19,0 °C 45 % 1013,0 hPa 0,0 mm 2,2 km/h (1 Bft) N 355 ° 0 min 0,000 mm 3,0 UV-I 538 W/m² 6,8 °C 19,0 °C 6,4 km/h (2 Bft)
14.10.2018 11:54 18,9 °C 44 % 1013,0 hPa 0,0 mm 3,0 km/h (1 Bft) O-SO 111 ° 0 min 0,000 mm 3,1 UV-I 540 W/m² 6,4 °C 18,9 °C 6,4 km/h (2 Bft)
14.10.2018 11:55 18,9 °C 44 % 1013,0 hPa 0,0 mm 2,2 km/h (1 Bft) O-SO 112 ° 0 min 0,000 mm 3,1 UV-I 541 W/m² 6,4 °C 18,9 °C 4,8 km/h (1 Bft)
14.10.2018 11:57 19,1 °C 43 % 1012,9 hPa 0,0 mm 2,5 km/h (1 Bft) SO 126 ° 0 min 0,000 mm 3,1 UV-I 541 W/m² 6,2 °C 19,1 °C 6,4 km/h (2 Bft)
14.10.2018 11:58 19,2 °C 45 % 1012,9 hPa 0,0 mm 0,0 km/h (0 Bft) SO 126 ° 0 min 0,000 mm 3,1 UV-I 543 W/m² 7,0 °C 19,2 °C 0,0 km/h (0 Bft)
14.10.2018 11:59 19,3 °C 44 % 1013,0 hPa 0,0 mm 0,0 km/h (0 Bft) O-SO 115 ° 0 min 0,000 mm 3,1 UV-I 545 W/m² 6,7 °C 19,3 °C 0,0 km/h (0 Bft)
14.10.2018 12:00 19,2 °C 41 % 1012,9 hPa 0,0 mm 0,2 km/h (0 Bft) O-SO 115 ° 0 min 0,000 mm 3,1 UV-I 545 W/m² 5,6 °C 19,2 °C 1,6 km/h (1 Bft)
14.10.2018 12:01 19,3 °C 44 % 1013,0 hPa 0,0 mm 0,0 km/h (0 Bft) O-SO 115 ° 0 min 0,203 mm 3,1 UV-I 547 W/m² 6,7 °C 19,3 °C 0,0 km/h (0 Bft)
14.10.2018 12:02 19,3 °C 42 % 1013,0 hPa 0,0 mm 0,4 km/h (0 Bft) O-SO 115 ° 0 min 0,000 mm 3,1 UV-I 547 W/m² 6,1 °C 19,3 °C 1,6 km/h (1 Bft)
14.10.2018 12:03 19,4 °C 47 % 1012,9 hPa 0,0 mm 1,9 km/h (1 Bft) O-SO 113 ° 0 min 0,000 mm 3,1 UV-I 548 W/m² 7,8 °C 19,4 °C 3,2 km/h (1 Bft)
14.10.2018 12:04 19,4 °C 41 % 1012,9 hPa 0,0 mm 2,5 km/h (1 Bft) SO 126 ° 0 min 0,000 mm 3,1 UV-I 550 W/m² 5,8 °C 19,4 °C 8,0 km/h (2 Bft)
14.10.2018 12:05 19,4 °C 44 % 1012,9 hPa 0,0 mm 2,0 km/h (1 Bft) O 86 ° 0 min 0,000 mm 3,1 UV-I 548 W/m² 6,8 °C 19,4 °C 4,8 km/h (1 Bft)
14.10.2018 12:06 19,3 °C 43 % 1012,9 hPa 0,0 mm 4,0 km/h (1 Bft) S-SO 152 ° 0 min 0,000 mm 3,2 UV-I 550 W/m² 6,4 °C 19,3 °C 8,0 km/h (2 Bft)
14.10.2018 12:07 19,4 °C 43 % 1012,9 hPa 0,0 mm 0,1 km/h (0 Bft) S-SO 152 ° 0 min 0,000 mm 3,2 UV-I 552 W/m² 6,5 °C 19,4 °C 1,6 km/h (1 Bft)
14.10.2018 12:08 19,6 °C 42 % 1012,8 hPa 0,0 mm 0,0 km/h (0 Bft) S-SO 152 ° 0 min 0,000 mm 3,2 UV-I 554 W/m² 6,3 °C 19,6 °C 0,0 km/h (0 Bft)
14.10.2018 12:09 19,7 °C 41 % 1012,8 hPa 0,0 mm 0,4 km/h (0 Bft) S-SO 152 ° 0 min 0,000 mm 3,2 UV-I 555 W/m² 6,1 °C 19,7 °C 1,6 km/h (1 Bft)
14.10.2018 12:10 19,9 °C 41 % 1012,8 hPa 0,0 mm 1,4 km/h (1 Bft) SO 137 ° 0 min 0,000 mm 3,2 UV-I 555 W/m² 6,3 °C 19,9 °C 3,2 km/h (1 Bft)
14.10.2018 12:11 19,8 °C 44 % 1012,8 hPa 0,0 mm 1,0 km/h (0 Bft) SO 138 ° 0 min 0,000 mm 3,2 UV-I 557 W/m² 7,2 °C 19,8 °C 3,2 km/h (1 Bft)
14.10.2018 12:12 20,1 °C 37 % 1012,8 hPa 0,0 mm 1,4 km/h (1 Bft) W 271 ° 0 min 0,000 mm 3,2 UV-I 557 W/m² 5,0 °C 20,1 °C 3,2 km/h (1 Bft)
14.10.2018 12:13 20,3 °C 38 % 1012,8 hPa 0,0 mm 0,5 km/h (0 Bft) S-SO 161 ° 0 min 0,000 mm 3,2 UV-I 557 W/m² 5,5 °C 20,3 °C 1,6 km/h (1 Bft)
14.10.2018 12:14 20,2 °C 40 % 1012,7 hPa 0,0 mm 0,0 km/h (0 Bft) S-SO 161 ° 0 min 0,000 mm 3,2 UV-I 559 W/m² 6,2 °C 20,2 °C 0,0 km/h (0 Bft)
14.10.2018 12:15 20,1 °C 39 % 1012,7 hPa 0,0 mm 0,0 km/h (0 Bft) S-SO 161 ° 0 min 0,000 mm 3,2 UV-I 561 W/m² 5,7 °C 20,1 °C 0,0 km/h (0 Bft)
14.10.2018 12:16 20,1 °C 39 % 1012,7 hPa 0,0 mm 0,0 km/h (0 Bft) S-SO 161 ° 0 min 0,000 mm 3,2 UV-I 561 W/m² 5,7 °C 20,1 °C 0,0 km/h (0 Bft)
14.10.2018 12:17 20,0 °C 41 % 1012,7 hPa 0,0 mm 3,2 km/h (1 Bft) N 360 ° 0 min 0,000 mm 3,3 UV-I 561 W/m² 6,3 °C 20,0 °C 8,0 km/h (2 Bft)
14.10.2018 12:18 20,1 °C 41 % 1012,7 hPa 0,0 mm 3,2 km/h (1 Bft) N-NO 22 ° 0 min 0,000 mm 3,3 UV-I 561 W/m² 6,4 °C 20,1 °C 6,4 km/h (2 Bft)
14.10.2018 12:19 20,2 °C 38 % 1012,7 hPa 0,0 mm 1,6 km/h (1 Bft) SO 135 ° 0 min 0,000 mm 3,3 UV-I 561 W/m² 5,4 °C 20,2 °C 3,2 km/h (1 Bft)
14.10.2018 12:20 20,1 °C 40 % 1012,7 hPa 0,0 mm 0,0 km/h (0 Bft) N 0 ° 0 min 0,000 mm 3,3 UV-I 561 W/m² 6,1 °C 20,1 °C 0,0 km/h (0 Bft)
14.10.2018 12:21 20,3 °C 36 % 1012,6 hPa 0,0 mm 4,8 km/h (1 Bft) SO 135 ° 0 min 0,000 mm 3,3 UV-I 561 W/m² 4,7 °C 20,3 °C 8,0 km/h (2 Bft)
14.10.2018 12:22 20,2 °C 45 % 1012,6 hPa 0,0 mm 3,2 km/h (1 Bft) O 90 ° 0 min 0,000 mm 3,3 UV-I 561 W/m² 7,9 °C 20,2 °C 6,4 km/h (2 Bft)
14.10.2018 12:23 20,1 °C 41 % 1012,6 hPa 0,0 mm 1,6 km/h (1 Bft) O 90 ° 0 min 0,000 mm 3,3 UV-I 563 W/m² 6,4 °C 20,1 °C 3,2 km/h (1 Bft)
14.10.2018 12:25 20,3 °C 41 % 1012,6 hPa 0,0 mm 2,1 km/h (1 Bft) O 89 ° 0 min 0,000 mm 3,3 UV-I 566 W/m² 6,6 °C 20,3 °C 4,8 km/h (1 Bft)
14.10.2018 12:27 20,4 °C 34 % 1012,5 hPa 0,0 mm 1,6 km/h (1 Bft) S-SW 212 ° 0 min 0,000 mm 3,3 UV-I 568 W/m² 4,0 °C 20,4 °C 4,8 km/h (1 Bft)
14.10.2018 12:28 20,6 °C 34 % 1012,5 hPa 0,0 mm 5,6 km/h (1 Bft) SO 139 ° 0 min 0,000 mm 3,3 UV-I 568 W/m² 4,2 °C 20,6 °C 14,5 km/h (3 Bft)
14.10.2018 12:29 20,7 °C 34 % 1012,5 hPa 0,0 mm 8,1 km/h (2 Bft) O 82 ° 0 min 0,000 mm 3,3 UV-I 566 W/m² 4,3 °C 20,7 °C 11,3 km/h (2 Bft)
14.10.2018 12:30 20,8 °C 36 % 1012,5 hPa 0,0 mm 4,7 km/h (1 Bft) O 84 ° 0 min 0,000 mm 3,3 UV-I 566 W/m² 5,2 °C 20,8 °C 6,4 km/h (2 Bft)
14.10.2018 12:32 20,3 °C 40 % 1012,5 hPa 0,0 mm 3,9 km/h (1 Bft) O 97 ° 0 min 0,000 mm 3,3 UV-I 570 W/m² 6,3 °C 20,3 °C 11,3 km/h (2 Bft)
14.10.2018 12:33 20,3 °C 37 % 1012,5 hPa 0,0 mm 5,6 km/h (1 Bft) O 82 ° 0 min 0,000 mm 3,3 UV-I 568 W/m² 5,1 °C 20,3 °C 9,7 km/h (2 Bft)
14.10.2018 12:34 20,4 °C 38 % 1012,5 hPa 0,0 mm 2,3 km/h (1 Bft) O 96 ° 0 min 0,000 mm 3,3 UV-I 568 W/m² 5,6 °C 20,4 °C 4,8 km/h (1 Bft)
14.10.2018 12:35 20,6 °C 37 % 1012,5 hPa 0,0 mm 1,2 km/h (1 Bft) W 270 ° 0 min 0,000 mm 3,3 UV-I 570 W/m² 5,4 °C 20,6 °C 4,8 km/h (1 Bft)
14.10.2018 12:36 20,9 °C 38 % 1012,5 hPa 0,0 mm 2,8 km/h (1 Bft) NO 36 ° 0 min 0,000 mm 3,3 UV-I 570 W/m² 6,0 °C 20,9 °C 6,4 km/h (2 Bft)
14.10.2018 12:37 20,9 °C 37 % 1012,4 hPa 0,0 mm 1,1 km/h (1 Bft) O-SO 114 ° 0 min 0,000 mm 3,3 UV-I 570 W/m² 5,7 °C 20,9 °C 3,2 km/h (1 Bft)
14.10.2018 12:38 20,9 °C 39 % 1012,4 hPa 0,0 mm 2,9 km/h (1 Bft) O-NO 65 ° 0 min 0,000 mm 3,3 UV-I 568 W/m² 6,4 °C 20,9 °C 6,4 km/h (2 Bft)
14.10.2018 12:39 20,8 °C 42 % 1012,3 hPa 0,0 mm 2,3 km/h (1 Bft) O-NO 61 ° 0 min 0,000 mm 3,3 UV-I 571 W/m² 7,4 °C 20,8 °C 6,4 km/h (2 Bft)
14.10.2018 12:40 20,3 °C 41 % 1012,3 hPa 0,0 mm 4,2 km/h (1 Bft) O 96 ° 0 min 0,000 mm 3,4 UV-I 571 W/m² 6,6 °C 20,3 °C 6,4 km/h (2 Bft)
14.10.2018 12:41 20,3 °C 41 % 1012,3 hPa 0,0 mm 4,8 km/h (1 Bft) O-SO 105 ° 0 min 0,000 mm 3,4 UV-I 571 W/m² 6,6 °C 20,3 °C 4,8 km/h (1 Bft)
14.10.2018 12:42 20,4 °C 40 % 1012,3 hPa 0,0 mm 3,2 km/h (1 Bft) NO 45 ° 0 min 0,000 mm 3,4 UV-I 570 W/m² 6,3 °C 20,4 °C 8,0 km/h (2 Bft)
14.10.2018 12:43 20,3 °C 43 % 1012,4 hPa 0,0 mm 3,2 km/h (1 Bft) O-NO 67 ° 0 min 0,000 mm 3,3 UV-I 571 W/m² 7,3 °C 20,3 °C 6,4 km/h (2 Bft)
14.10.2018 12:44 20,4 °C 39 % 1012,3 hPa 0,0 mm 4,8 km/h (1 Bft) N-NO 22 ° 0 min 0,000 mm 3,4 UV-I 571 W/m² 6,0 °C 20,4 °C 9,7 km/h (2 Bft)
14.10.2018 12:45 20,4 °C 40 % 1012,3 hPa 0,0 mm 1,6 km/h (1 Bft) O-NO 67 ° 0 min 0,000 mm 3,4 UV-I 573 W/m² 6,3 °C 20,4 °C 4,8 km/h (1 Bft)
14.10.2018 12:46 20,5 °C 44 % 1012,3 hPa 0,0 mm 1,6 km/h (1 Bft) O-SO 112 ° 0 min 0,000 mm 3,4 UV-I 573 W/m² 7,8 °C 20,5 °C 3,2 km/h (1 Bft)
14.10.2018 12:47 20,7 °C 36 % 1012,2 hPa 0,0 mm 1,6 km/h (1 Bft) N-NW 337 ° 0 min 0,000 mm 3,4 UV-I 575 W/m² 5,1 °C 20,7 °C 4,8 km/h (1 Bft)
14.10.2018 12:48 20,9 °C 36 % 1012,2 hPa 0,0 mm 3,2 km/h (1 Bft) O-SO 112 ° 0 min 0,000 mm 3,4 UV-I 573 W/m² 5,3 °C 20,9 °C 6,4 km/h (2 Bft)
14.10.2018 12:50 21,0 °C 37 % 1012,2 hPa 0,0 mm 1,1 km/h (1 Bft) N-NO 26 ° 0 min 0,000 mm 3,4 UV-I 573 W/m² 5,8 °C 21,0 °C 3,2 km/h (1 Bft)
14.10.2018 12:51 20,9 °C 39 % 1012,2 hPa 0,0 mm 4,6 km/h (1 Bft) N-NO 20 ° 0 min 0,000 mm 3,4 UV-I 575 W/m² 6,4 °C 20,9 °C 8,0 km/h (2 Bft)
14.10.2018 12:52 20,7 °C 42 % 1012,2 hPa 0,0 mm 2,6 km/h (1 Bft) O-SO 112 ° 0 min 0,000 mm 3,4 UV-I 575 W/m² 7,3 °C 20,7 °C 4,8 km/h (1 Bft)
14.10.2018 12:53 20,6 °C 39 % 1012,2 hPa 0,0 mm 2,7 km/h (1 Bft) O-SO 121 ° 0 min 0,000 mm 3,4 UV-I 575 W/m² 6,2 °C 20,6 °C 4,8 km/h (1 Bft)
14.10.2018 12:54 20,7 °C 37 % 1012,2 hPa 0,0 mm 3,4 km/h (1 Bft) W 264 ° 0 min 0,000 mm 3,4 UV-I 575 W/m² 5,5 °C 20,7 °C 6,4 km/h (2 Bft)
14.10.2018 12:55 20,8 °C 41 % 1012,2 hPa 0,0 mm 1,6 km/h (1 Bft) W 265 ° 0 min 0,000 mm 3,4 UV-I 573 W/m² 7,1 °C 20,8 °C 3,2 km/h (1 Bft)
14.10.2018 12:56 20,8 °C 39 % 1012,2 hPa 0,0 mm 0,8 km/h (0 Bft) W 265 ° 0 min 0,000 mm 3,4 UV-I 571 W/m² 6,3 °C 20,8 °C 1,6 km/h (1 Bft)
14.10.2018 12:57 20,8 °C 37 % 1012,1 hPa 0,0 mm 1,8 km/h (1 Bft) S 189 ° 0 min 0,000 mm 3,4 UV-I 573 W/m² 5,6 °C 20,8 °C 3,2 km/h (1 Bft)
14.10.2018 12:58 20,9 °C 41 % 1012,2 hPa 0,0 mm 1,5 km/h (1 Bft) S-SO 153 ° 0 min 0,000 mm 3,4 UV-I 575 W/m² 7,2 °C 20,9 °C 3,2 km/h (1 Bft)
14.10.2018 12:59 20,9 °C 44 % 1012,2 hPa 0,0 mm 5,0 km/h (1 Bft) O-SO 119 ° 0 min 0,000 mm 3,4 UV-I 577 W/m² 8,2 °C 20,9 °C 8,0 km/h (2 Bft)
14.10.2018 13:00 20,9 °C 40 % 1012,1 hPa 0,0 mm 0,6 km/h (0 Bft) O-SO 120 ° 0 min 0,000 mm 3,4 UV-I 577 W/m² 6,8 °C 20,9 °C 1,6 km/h (1 Bft)
14.10.2018 13:01 21,1 °C 36 % 1012,1 hPa 0,0 mm 2,3 km/h (1 Bft) W 279 ° 0 min 0,356 mm 3,4 UV-I 577 W/m² 5,4 °C 21,1 °C 4,8 km/h (1 Bft)
14.10.2018 13:02 21,3 °C 37 % 1012,1 hPa 0,0 mm 1,4 km/h (1 Bft) SW 230 ° 0 min 0,000 mm 3,4 UV-I 575 W/m² 6,0 °C 21,3 °C 3,2 km/h (1 Bft)
14.10.2018 13:03 21,6 °C 34 % 1012,1 hPa 0,0 mm 4,9 km/h (1 Bft) N-NW 345 ° 0 min 0,000 mm 3,4 UV-I 575 W/m² 5,1 °C 21,6 °C 9,7 km/h (2 Bft)
14.10.2018 13:04 21,6 °C 36 % 1012,1 hPa 0,0 mm 1,3 km/h (1 Bft) NO 40 ° 0 min 0,000 mm 3,4 UV-I 577 W/m² 5,9 °C 21,6 °C 4,8 km/h (1 Bft)
14.10.2018 13:05 21,6 °C 40 % 1012,1 hPa 0,0 mm 0,8 km/h (0 Bft) O-NO 69 ° 0 min 0,000 mm 3,4 UV-I 577 W/m² 7,4 °C 21,6 °C 3,2 km/h (1 Bft)
14.10.2018 13:06 21,4 °C 40 % 1012,0 hPa 0,0 mm 3,1 km/h (1 Bft) N-NW 331 ° 0 min 0,000 mm 3,4 UV-I 578 W/m² 7,2 °C 21,4 °C 6,4 km/h (2 Bft)
14.10.2018 13:07 21,4 °C 35 % 1012,0 hPa 0,0 mm 0,3 km/h (0 Bft) N-NW 333 ° 0 min 0,000 mm 3,4 UV-I 578 W/m² 5,3 °C 21,4 °C 1,6 km/h (1 Bft)
14.10.2018 13:08 21,4 °C 34 % 1012,0 hPa 0,0 mm 0,0 km/h (0 Bft) W-SW 248 ° 0 min 0,000 mm 3,4 UV-I 577 W/m² 4,9 °C 21,4 °C 0,0 km/h (0 Bft)
14.10.2018 13:09 21,6 °C 36 % 1012,1 hPa 0,0 mm 1,9 km/h (1 Bft) N-NW 331 ° 0 min 0,000 mm 3,4 UV-I 577 W/m² 5,9 °C 21,6 °C 6,4 km/h (2 Bft)
14.10.2018 13:10 21,5 °C 38 % 1012,0 hPa 0,0 mm 2,1 km/h (1 Bft) NO 35 ° 0 min 0,000 mm 3,4 UV-I 577 W/m² 6,6 °C 21,5 °C 4,8 km/h (1 Bft)
14.10.2018 13:11 21,2 °C 37 % 1012,0 hPa 0,0 mm 4,7 km/h (1 Bft) O 84 ° 0 min 0,000 mm 3,4 UV-I 578 W/m² 5,9 °C 21,2 °C 6,4 km/h (2 Bft)
14.10.2018 13:12 21,1 °C 39 % 1012,1 hPa 0,0 mm 3,5 km/h (1 Bft) O-NO 67 ° 0 min 0,000 mm 3,4 UV-I 580 W/m² 6,6 °C 21,1 °C 4,8 km/h (1 Bft)
14.10.2018 13:13 21,0 °C 40 % 1012,0 hPa 0,0 mm 3,5 km/h (1 Bft) O 80 ° 0 min 0,000 mm 3,4 UV-I 580 W/m² 6,9 °C 21,0 °C 8,0 km/h (2 Bft)
14.10.2018 13:14 20,8 °C 44 % 1012,0 hPa 0,0 mm 7,7 km/h (2 Bft) O 92 ° 0 min 0,000 mm 3,4 UV-I 578 W/m² 8,1 °C 20,8 °C 12,9 km/h (3 Bft)
14.10.2018 13:15 20,8 °C 34 % 1011,9 hPa 0,0 mm 2,5 km/h (1 Bft) NO 49 ° 0 min 0,000 mm 3,4 UV-I 577 W/m² 4,4 °C 20,8 °C 6,4 km/h (2 Bft)
14.10.2018 13:16 20,8 °C 38 % 1011,9 hPa 0,0 mm 2,9 km/h (1 Bft) O-SO 121 ° 0 min 0,000 mm 3,4 UV-I 575 W/m² 6,0 °C 20,8 °C 4,8 km/h (1 Bft)
14.10.2018 13:17 21,1 °C 35 % 1012,0 hPa 0,0 mm 3,3 km/h (1 Bft) N-NO 24 ° 0 min 0,000 mm 3,4 UV-I 577 W/m² 5,0 °C 21,1 °C 4,8 km/h (1 Bft)
14.10.2018 13:18 21,3 °C 37 % 1012,0 hPa 0,0 mm 1,1 km/h (1 Bft) N-NO 24 ° 0 min 0,000 mm 3,4 UV-I 577 W/m² 6,0 °C 21,3 °C 3,2 km/h (1 Bft)
14.10.2018 13:19 21,2 °C 38 % 1011,9 hPa 0,0 mm 0,5 km/h (0 Bft) N-NO 24 ° 0 min 0,000 mm 3,4 UV-I 575 W/m² 6,3 °C 21,2 °C 1,6 km/h (1 Bft)
14.10.2018 13:20 21,3 °C 38 % 1011,9 hPa 0,0 mm 0,6 km/h (0 Bft) N-NO 24 ° 0 min 0,000 mm 3,4 UV-I 573 W/m² 6,4 °C 21,3 °C 1,6 km/h (1 Bft)
14.10.2018 13:21 21,6 °C 35 % 1012,0 hPa 0,0 mm 1,1 km/h (1 Bft) NW 306 ° 0 min 0,000 mm 3,4 UV-I 573 W/m² 5,5 °C 21,6 °C 4,8 km/h (1 Bft)
14.10.2018 13:22 21,4 °C 38 % 1012,0 hPa 0,0 mm 1,8 km/h (1 Bft) O-NO 66 ° 0 min 0,000 mm 3,4 UV-I 573 W/m² 6,5 °C 21,4 °C 4,8 km/h (1 Bft)
14.10.2018 13:23 21,2 °C 37 % 1011,9 hPa 0,0 mm 3,4 km/h (1 Bft) O 84 ° 0 min 0,000 mm 3,4 UV-I 575 W/m² 5,9 °C 21,2 °C 6,4 km/h (2 Bft)
14.10.2018 13:24 21,2 °C 35 % 1011,9 hPa 0,0 mm 1,8 km/h (1 Bft) O 85 ° 0 min 0,000 mm 3,4 UV-I 573 W/m² 5,1 °C 21,2 °C 3,2 km/h (1 Bft)
14.10.2018 13:25 21,1 °C 37 % 1011,9 hPa 0,0 mm 1,7 km/h (1 Bft) O-SO 117 ° 0 min 0,000 mm 3,4 UV-I 571 W/m² 5,8 °C 21,1 °C 6,4 km/h (2 Bft)
14.10.2018 13:26 21,2 °C 34 % 1011,9 hPa 0,0 mm 4,2 km/h (1 Bft) SO 140 ° 0 min 0,000 mm 3,4 UV-I 571 W/m² 4,7 °C 21,2 °C 11,3 km/h (2 Bft)
14.10.2018 13:27 21,4 °C 34 % 1011,9 hPa 0,0 mm 1,6 km/h (1 Bft) S-SO 159 ° 0 min 0,000 mm 3,3 UV-I 570 W/m² 4,9 °C 21,4 °C 6,4 km/h (2 Bft)
14.10.2018 13:28 21,4 °C 42 % 1011,9 hPa 0,0 mm 2,3 km/h (1 Bft) O-NO 59 ° 0 min 0,000 mm 3,4 UV-I 571 W/m² 8,0 °C 21,4 °C 4,8 km/h (1 Bft)
14.10.2018 13:29 21,2 °C 39 % 1011,8 hPa 0,0 mm 1,5 km/h (1 Bft) O-NO 65 ° 0 min 0,000 mm 3,3 UV-I 570 W/m² 6,7 °C 21,2 °C 3,2 km/h (1 Bft)
14.10.2018 13:30 21,2 °C 36 % 1011,9 hPa 0,0 mm 0,9 km/h (0 Bft) O-NO 65 ° 0 min 0,000 mm 3,3 UV-I 570 W/m² 5,5 °C 21,2 °C 3,2 km/h (1 Bft)
14.10.2018 13:31 21,2 °C 37 % 1011,9 hPa 0,0 mm 1,3 km/h (1 Bft) O-SO 116 ° 0 min 0,000 mm 3,3 UV-I 570 W/m² 5,9 °C 21,2 °C 3,2 km/h (1 Bft)
14.10.2018 13:32 21,1 °C 36 % 1011,9 hPa 0,0 mm 3,2 km/h (1 Bft) O-SO 114 ° 0 min 0,000 mm 3,3 UV-I 568 W/m² 5,4 °C 21,1 °C 4,8 km/h (1 Bft)
14.10.2018 13:33 21,2 °C 37 % 1011,9 hPa 0,0 mm 3,5 km/h (1 Bft) SO 130 ° 0 min 0,000 mm 3,3 UV-I 568 W/m² 5,9 °C 21,2 °C 6,4 km/h (2 Bft)
14.10.2018 13:34 21,3 °C 39 % 1011,9 hPa 0,0 mm 0,2 km/h (0 Bft) SO 130 ° 0 min 0,000 mm 3,3 UV-I 566 W/m² 6,8 °C 21,3 °C 1,6 km/h (1 Bft)
14.10.2018 13:35 21,6 °C 36 % 1011,9 hPa 0,0 mm 1,5 km/h (1 Bft) SO 130 ° 0 min 0,000 mm 3,3 UV-I 564 W/m² 5,9 °C 21,6 °C 3,2 km/h (1 Bft)
14.10.2018 13:36 21,7 °C 35 % 1011,9 hPa 0,0 mm 2,6 km/h (1 Bft) SO 130 ° 0 min 0,000 mm 3,3 UV-I 566 W/m² 5,6 °C 21,7 °C 4,8 km/h (1 Bft)
14.10.2018 13:37 21,6 °C 38 % 1011,8 hPa 0,0 mm 0,1 km/h (0 Bft) SO 130 ° 0 min 0,000 mm 3,3 UV-I 566 W/m² 6,7 °C 21,6 °C 1,6 km/h (1 Bft)
14.10.2018 13:38 21,5 °C 37 % 1011,8 hPa 0,0 mm 0,0 km/h (0 Bft) SO 130 ° 0 min 0,000 mm 3,3 UV-I 566 W/m² 6,2 °C 21,5 °C 0,0 km/h (0 Bft)
14.10.2018 13:39 21,4 °C 34 % 1011,9 hPa 0,0 mm 3,6 km/h (1 Bft) O-NO 61 ° 0 min 0,000 mm 3,3 UV-I 566 W/m² 4,9 °C 21,4 °C 6,4 km/h (2 Bft)
14.10.2018 13:40 21,8 °C 32 % 1011,8 hPa 0,0 mm 1,8 km/h (1 Bft) O-NO 75 ° 0 min 0,000 mm 3,3 UV-I 564 W/m² 4,4 °C 21,8 °C 3,2 km/h (1 Bft)
14.10.2018 13:41 21,8 °C 32 % 1011,8 hPa 0,0 mm 0,0 km/h (0 Bft) O-NO 75 ° 0 min 0,000 mm 3,3 UV-I 563 W/m² 4,4 °C 21,8 °C 0,0 km/h (0 Bft)
14.10.2018 13:42 22,2 °C 30 % 1011,7 hPa 0,0 mm 4,8 km/h (1 Bft) W-SW 247 ° 0 min 0,000 mm 3,3 UV-I 561 W/m² 3,8 °C 22,2 °C 9,7 km/h (2 Bft)
14.10.2018 13:43 22,0 °C 34 % 1011,8 hPa 0,0 mm 1,6 km/h (1 Bft) N-NW 337 ° 0 min 0,000 mm 3,3 UV-I 561 W/m² 5,4 °C 22,0 °C 6,4 km/h (2 Bft)
14.10.2018 13:44 21,8 °C 32 % 1011,7 hPa 0,0 mm 6,4 km/h (2 Bft) O-NO 67 ° 0 min 0,000 mm 3,3 UV-I 561 W/m² 4,4 °C 21,8 °C 14,5 km/h (3 Bft)
14.10.2018 13:45 21,8 °C 35 % 1011,8 hPa 0,0 mm 3,2 km/h (1 Bft) O-NO 67 ° 0 min 0,000 mm 3,3 UV-I 563 W/m² 5,7 °C 21,8 °C 4,8 km/h (1 Bft)
14.10.2018 13:46 21,8 °C 33 % 1011,7 hPa 0,0 mm 1,6 km/h (1 Bft) W-NW 292 ° 0 min 0,000 mm 3,2 UV-I 561 W/m² 4,8 °C 21,8 °C 3,2 km/h (1 Bft)
14.10.2018 13:47 21,8 °C 36 % 1011,8 hPa 0,0 mm 1,6 km/h (1 Bft) S 180 ° 0 min 0,000 mm 3,2 UV-I 561 W/m² 6,1 °C 21,8 °C 3,2 km/h (1 Bft)
14.10.2018 13:48 21,7 °C 34 % 1011,7 hPa 0,0 mm 0,0 km/h (0 Bft) S 180 ° 0 min 0,000 mm 3,2 UV-I 559 W/m² 5,2 °C 21,7 °C 1,6 km/h (1 Bft)
14.10.2018 13:50 21,8 °C 33 % 1011,7 hPa 0,0 mm 0,1 km/h (0 Bft) W-NW 293 ° 0 min 0,000 mm 3,2 UV-I 557 W/m² 4,8 °C 21,8 °C 1,6 km/h (1 Bft)
14.10.2018 13:52 21,9 °C 34 % 1011,6 hPa 0,0 mm 0,9 km/h (0 Bft) W 279 ° 0 min 0,000 mm 3,2 UV-I 559 W/m² 5,3 °C 21,9 °C 4,8 km/h (1 Bft)
14.10.2018 13:53 21,7 °C 39 % 1011,6 hPa 0,0 mm 1,5 km/h (1 Bft) N 360 ° 0 min 0,000 mm 3,2 UV-I 559 W/m² 7,1 °C 21,7 °C 4,8 km/h (1 Bft)
14.10.2018 13:54 21,3 °C 39 % 1011,6 hPa 0,0 mm 6,4 km/h (2 Bft) O 98 ° 0 min 0,000 mm 3,2 UV-I 557 W/m² 6,8 °C 21,3 °C 12,9 km/h (3 Bft)
14.10.2018 13:55 21,2 °C 35 % 1011,6 hPa 0,0 mm 0,7 km/h (0 Bft) O 80 ° 0 min 0,000 mm 3,2 UV-I 555 W/m² 5,1 °C 21,2 °C 1,6 km/h (1 Bft)
14.10.2018 13:56 21,3 °C 35 % 1011,6 hPa 0,0 mm 0,2 km/h (0 Bft) O 80 ° 0 min 0,000 mm 3,2 UV-I 555 W/m² 5,2 °C 21,3 °C 1,6 km/h (1 Bft)
14.10.2018 13:57 21,3 °C 39 % 1011,6 hPa 0,0 mm 0,0 km/h (0 Bft) O 80 ° 0 min 0,000 mm 3,2 UV-I 554 W/m² 6,8 °C 21,3 °C 0,0 km/h (0 Bft)
14.10.2018 13:58 21,3 °C 39 % 1011,6 hPa 0,0 mm 0,8 km/h (0 Bft) O 79 ° 0 min 0,000 mm 3,2 UV-I 550 W/m² 6,8 °C 21,3 °C 3,2 km/h (1 Bft)
14.10.2018 13:59 20,9 °C 41 % 1011,6 hPa 0,0 mm 1,8 km/h (1 Bft) O-NO 78 ° 0 min 0,000 mm 3,2 UV-I 550 W/m² 7,2 °C 20,9 °C 3,2 km/h (1 Bft)
14.10.2018 14:00 20,8 °C 37 % 1011,6 hPa 0,0 mm 0,7 km/h (0 Bft) O-NO 78 ° 0 min 0,000 mm 3,1 UV-I 548 W/m² 5,6 °C 20,8 °C 1,6 km/h (1 Bft)
14.10.2018 14:01 20,9 °C 38 % 1011,6 hPa 0,0 mm 0,4 km/h (0 Bft) O 79 ° 0 min 0,356 mm 3,1 UV-I 548 W/m² 6,0 °C 20,9 °C 1,6 km/h (1 Bft)
14.10.2018 14:02 21,0 °C 36 % 1011,6 hPa 0,0 mm 1,1 km/h (1 Bft) O 79 ° 0 min 0,000 mm 3,1 UV-I 548 W/m² 5,4 °C 21,0 °C 1,6 km/h (1 Bft)
14.10.2018 14:03 21,2 °C 37 % 1011,6 hPa 0,0 mm 1,2 km/h (1 Bft) O 79 ° 0 min 0,000 mm 3,1 UV-I 548 W/m² 5,9 °C 21,2 °C 3,2 km/h (1 Bft)
14.10.2018 14:04 21,3 °C 35 % 1011,6 hPa 0,0 mm 0,3 km/h (0 Bft) S-SO 156 ° 0 min 0,000 mm 3,1 UV-I 547 W/m² 5,2 °C 21,3 °C 3,2 km/h (1 Bft)
14.10.2018 14:05 21,2 °C 43 % 1011,6 hPa 0,0 mm 0,7 km/h (0 Bft) O 96 ° 0 min 0,000 mm 3,1 UV-I 545 W/m² 8,1 °C 21,2 °C 3,2 km/h (1 Bft)
14.10.2018 14:06 21,2 °C 35 % 1011,6 hPa 0,0 mm 0,0 km/h (0 Bft) O 96 ° 0 min 0,000 mm 3,1 UV-I 543 W/m² 5,1 °C 21,2 °C 0,0 km/h (0 Bft)
14.10.2018 14:07 21,3 °C 35 % 1011,6 hPa 0,0 mm 0,0 km/h (0 Bft) O 96 ° 0 min 0,000 mm 3,1 UV-I 541 W/m² 5,2 °C 21,3 °C 0,0 km/h (0 Bft)
14.10.2018 14:08 21,6 °C 33 % 1011,5 hPa 0,0 mm 0,0 km/h (0 Bft) O 96 ° 0 min 0,000 mm 3,1 UV-I 541 W/m² 4,6 °C 21,6 °C 0,0 km/h (0 Bft)
14.10.2018 14:09 21,7 °C 33 % 1011,5 hPa 0,0 mm 3,0 km/h (1 Bft) O 96 ° 0 min 0,000 mm 3,1 UV-I 541 W/m² 4,7 °C 21,7 °C 3,2 km/h (1 Bft)
14.10.2018 14:10 21,6 °C 40 % 1011,5 hPa 0,0 mm 1,5 km/h (1 Bft) O 96 ° 0 min 0,000 mm 3,1 UV-I 540 W/m² 7,4 °C 21,6 °C 4,8 km/h (1 Bft)
14.10.2018 14:11 21,7 °C 33 % 1011,5 hPa 0,0 mm 0,3 km/h (0 Bft) O 96 ° 0 min 0,000 mm 3,1 UV-I 538 W/m² 4,7 °C 21,7 °C 1,6 km/h (1 Bft)
14.10.2018 14:12 21,8 °C 33 % 1011,5 hPa 0,0 mm 0,5 km/h (0 Bft) O 96 ° 0 min 0,000 mm 3,1 UV-I 538 W/m² 4,8 °C 21,8 °C 3,2 km/h (1 Bft)
14.10.2018 14:13 21,8 °C 34 % 1011,4 hPa 0,0 mm 1,0 km/h (0 Bft) O 96 ° 0 min 0,000 mm 3,1 UV-I 536 W/m² 5,2 °C 21,8 °C 3,2 km/h (1 Bft)
14.10.2018 14:14 21,7 °C 35 % 1011,4 hPa 0,0 mm 0,0 km/h (0 Bft) O 96 ° 0 min 0,000 mm 3,0 UV-I 536 W/m² 5,6 °C 21,7 °C 0,0 km/h (0 Bft)
14.10.2018 14:15 21,4 °C 35 % 1011,4 hPa 0,0 mm 0,5 km/h (0 Bft) N-NW 329 ° 0 min 0,000 mm 3,0 UV-I 536 W/m² 5,3 °C 21,4 °C 3,2 km/h (1 Bft)
14.10.2018 14:16 21,6 °C 34 % 1011,4 hPa 0,0 mm 2,3 km/h (1 Bft) S-SO 158 ° 0 min 0,000 mm 3,0 UV-I 534 W/m² 5,1 °C 21,6 °C 4,8 km/h (1 Bft)
14.10.2018 14:17 21,6 °C 35 % 1011,5 hPa 0,0 mm 0,2 km/h (0 Bft) S-SO 158 ° 0 min 0,000 mm 3,0 UV-I 533 W/m² 5,5 °C 21,6 °C 1,6 km/h (1 Bft)
14.10.2018 14:18 21,5 °C 35 % 1011,4 hPa 0,0 mm 0,4 km/h (0 Bft) SO 146 ° 0 min 0,000 mm 3,0 UV-I 534 W/m² 5,4 °C 21,5 °C 1,6 km/h (1 Bft)
14.10.2018 14:19 21,3 °C 44 % 1011,4 hPa 0,0 mm 0,6 km/h (0 Bft) SO 146 ° 0 min 0,000 mm 3,0 UV-I 531 W/m² 8,5 °C 21,3 °C 3,2 km/h (1 Bft)
14.10.2018 14:20 21,4 °C 37 % 1011,4 hPa 0,0 mm 0,9 km/h (0 Bft) SO 146 ° 0 min 0,000 mm 3,0 UV-I 527 W/m² 6,1 °C 21,4 °C 3,2 km/h (1 Bft)
14.10.2018 14:21 21,3 °C 38 % 1011,4 hPa 0,0 mm 2,2 km/h (1 Bft) SO 143 ° 0 min 0,000 mm 3,0 UV-I 529 W/m² 6,4 °C 21,3 °C 4,8 km/h (1 Bft)
14.10.2018 14:22 21,2 °C 38 % 1011,4 hPa 0,0 mm 4,3 km/h (1 Bft) N 355 ° 0 min 0,000 mm 3,0 UV-I 526 W/m² 6,3 °C 21,2 °C 9,7 km/h (2 Bft)
14.10.2018 14:23 21,2 °C 36 % 1011,4 hPa 0,0 mm 5,0 km/h (1 Bft) N-NO 22 ° 0 min 0,000 mm 2,9 UV-I 526 W/m² 5,5 °C 21,2 °C 11,3 km/h (2 Bft)
14.10.2018 14:24 21,2 °C 34 % 1011,4 hPa 0,0 mm 0,9 km/h (0 Bft) O-SO 111 ° 0 min 0,000 mm 2,9 UV-I 522 W/m² 4,7 °C 21,2 °C 1,6 km/h (1 Bft)
14.10.2018 14:25 21,3 °C 35 % 1011,4 hPa 0,0 mm 0,0 km/h (0 Bft) O-SO 111 ° 0 min 0,000 mm 2,9 UV-I 520 W/m² 5,2 °C 21,3 °C 0,0 km/h (0 Bft)
14.10.2018 14:26 21,3 °C 35 % 1011,4 hPa 0,0 mm 0,0 km/h (0 Bft) O-SO 111 ° 0 min 0,000 mm 2,9 UV-I 520 W/m² 5,2 °C 21,3 °C 0,0 km/h (0 Bft)
14.10.2018 14:27 21,3 °C 37 % 1011,4 hPa 0,0 mm 3,2 km/h (1 Bft) O-SO 112 ° 0 min 0,000 mm 2,9 UV-I 519 W/m² 6,0 °C 21,3 °C 6,4 km/h (2 Bft)
14.10.2018 14:28 21,3 °C 38 % 1011,3 hPa 0,0 mm 0,0 km/h (0 Bft) O-SO 112 ° 0 min 0,000 mm 2,9 UV-I 519 W/m² 6,4 °C 21,3 °C 3,2 km/h (1 Bft)
14.10.2018 14:29 21,7 °C 32 % 1011,4 hPa 0,0 mm 0,0 km/h (0 Bft) O-SO 112 ° 0 min 0,000 mm 2,9 UV-I 515 W/m² 4,3 °C 21,7 °C 1,6 km/h (1 Bft)
14.10.2018 14:30 22,2 °C 32 % 1011,4 hPa 0,0 mm 3,2 km/h (1 Bft) NW 315 ° 0 min 0,000 mm 2,9 UV-I 515 W/m² 4,7 °C 22,2 °C 6,4 km/h (2 Bft)
14.10.2018 14:31 22,3 °C 36 % 1011,3 hPa 0,0 mm 4,8 km/h (1 Bft) NW 315 ° 0 min 0,000 mm 2,9 UV-I 515 W/m² 6,5 °C 22,3 °C 6,4 km/h (2 Bft)
14.10.2018 14:32 22,2 °C 32 % 1011,4 hPa 0,0 mm 3,2 km/h (1 Bft) O-SO 112 ° 0 min 0,000 mm 2,8 UV-I 513 W/m² 4,7 °C 22,2 °C 6,4 km/h (2 Bft)
14.10.2018 14:33 22,1 °C 33 % 1011,3 hPa 0,0 mm 1,6 km/h (1 Bft) N 360 ° 0 min 0,000 mm 2,8 UV-I 512 W/m² 5,1 °C 22,1 °C 4,8 km/h (1 Bft)
14.10.2018 14:35 21,9 °C 35 % 1011,3 hPa 0,0 mm 3,6 km/h (1 Bft) O-SO 121 ° 0 min 0,000 mm 2,8 UV-I 508 W/m² 5,7 °C 21,9 °C 6,4 km/h (2 Bft)
14.10.2018 14:37 21,9 °C 38 % 1011,3 hPa 0,0 mm 1,2 km/h (1 Bft) SO 124 ° 0 min 0,000 mm 2,8 UV-I 508 W/m² 6,9 °C 21,9 °C 3,2 km/h (1 Bft)
14.10.2018 14:38 21,7 °C 35 % 1011,3 hPa 0,0 mm 1,5 km/h (1 Bft) S-SO 163 ° 0 min 0,000 mm 2,8 UV-I 506 W/m² 5,6 °C 21,7 °C 6,4 km/h (2 Bft)
14.10.2018 14:39 21,6 °C 35 % 1011,3 hPa 0,0 mm 1,2 km/h (1 Bft) S-SO 155 ° 0 min 0,000 mm 2,8 UV-I 504 W/m² 5,5 °C 21,6 °C 6,4 km/h (2 Bft)
14.10.2018 14:40 21,6 °C 33 % 1011,3 hPa 0,0 mm 1,1 km/h (1 Bft) O 82 ° 0 min 0,000 mm 2,8 UV-I 504 W/m² 4,6 °C 21,6 °C 4,8 km/h (1 Bft)
14.10.2018 14:41 21,6 °C 33 % 1011,3 hPa 0,0 mm 1,1 km/h (1 Bft) O 83 ° 0 min 0,000 mm 2,7 UV-I 503 W/m² 4,6 °C 21,6 °C 3,2 km/h (1 Bft)
14.10.2018 14:42 21,5 °C 34 % 1011,2 hPa 0,0 mm 1,2 km/h (1 Bft) O 83 ° 0 min 0,000 mm 2,7 UV-I 501 W/m² 5,0 °C 21,5 °C 3,2 km/h (1 Bft)
14.10.2018 14:43 21,4 °C 33 % 1011,2 hPa 0,0 mm 0,7 km/h (0 Bft) O-NO 65 ° 0 min 0,000 mm 2,7 UV-I 497 W/m² 4,5 °C 21,4 °C 3,2 km/h (1 Bft)
14.10.2018 14:44 21,4 °C 34 % 1011,2 hPa 0,0 mm 2,3 km/h (1 Bft) O-NO 74 ° 0 min 0,000 mm 2,7 UV-I 497 W/m² 4,9 °C 21,4 °C 3,2 km/h (1 Bft)
14.10.2018 14:45 21,4 °C 33 % 1011,2 hPa 0,0 mm 1,7 km/h (1 Bft) SO 146 ° 0 min 0,000 mm 2,7 UV-I 496 W/m² 4,5 °C 21,4 °C 4,8 km/h (1 Bft)
14.10.2018 14:46 21,3 °C 38 % 1011,2 hPa 0,0 mm 3,8 km/h (1 Bft) O 87 ° 0 min 0,000 mm 2,7 UV-I 496 W/m² 6,4 °C 21,3 °C 6,4 km/h (2 Bft)
14.10.2018 14:47 21,5 °C 35 % 1011,2 hPa 0,0 mm 2,6 km/h (1 Bft) O 86 ° 0 min 0,000 mm 2,7 UV-I 494 W/m² 5,4 °C 21,5 °C 6,4 km/h (2 Bft)
14.10.2018 14:48 21,6 °C 36 % 1011,2 hPa 0,0 mm 0,8 km/h (0 Bft) O 87 ° 0 min 0,000 mm 2,7 UV-I 492 W/m² 5,9 °C 21,6 °C 3,2 km/h (1 Bft)
14.10.2018 14:49 21,6 °C 37 % 1011,2 hPa 0,0 mm 0,1 km/h (0 Bft) O 86 ° 0 min 0,000 mm 2,7 UV-I 490 W/m² 6,3 °C 21,6 °C 1,6 km/h (1 Bft)
14.10.2018 14:50 21,5 °C 38 % 1011,2 hPa 0,0 mm 0,0 km/h (0 Bft) O 86 ° 0 min 0,000 mm 2,6 UV-I 489 W/m² 6,6 °C 21,5 °C 0,0 km/h (0 Bft)
14.10.2018 14:51 21,2 °C 39 % 1011,2 hPa 0,0 mm 0,0 km/h (0 Bft) O 86 ° 0 min 0,000 mm 2,6 UV-I 487 W/m² 6,7 °C 21,2 °C 0,0 km/h (0 Bft)
14.10.2018 14:52 21,2 °C 35 % 1011,2 hPa 0,0 mm 0,1 km/h (0 Bft) O-NO 71 ° 0 min 0,000 mm 2,6 UV-I 487 W/m² 5,1 °C 21,2 °C 1,6 km/h (1 Bft)
14.10.2018 14:53 21,2 °C 36 % 1011,2 hPa 0,0 mm 0,6 km/h (0 Bft) O-NO 71 ° 0 min 0,000 mm 2,6 UV-I 483 W/m² 5,5 °C 21,2 °C 3,2 km/h (1 Bft)
14.10.2018 14:54 21,3 °C 37 % 1011,2 hPa 0,0 mm 2,1 km/h (1 Bft) N-NO 17 ° 0 min 0,000 mm 2,6 UV-I 482 W/m² 6,0 °C 21,3 °C 3,2 km/h (1 Bft)
14.10.2018 14:55 21,3 °C 36 % 1011,2 hPa 0,0 mm 2,6 km/h (1 Bft) N-NO 13 ° 0 min 0,000 mm 2,6 UV-I 480 W/m² 5,6 °C 21,3 °C 4,8 km/h (1 Bft)
14.10.2018 14:56 21,5 °C 36 % 1011,2 hPa 0,0 mm 1,1 km/h (1 Bft) N 360 ° 0 min 0,000 mm 2,6 UV-I 480 W/m² 5,8 °C 21,5 °C 3,2 km/h (1 Bft)
14.10.2018 14:57 21,6 °C 35 % 1011,2 hPa 0,0 mm 2,8 km/h (1 Bft) S 180 ° 0 min 0,000 mm 2,6 UV-I 476 W/m² 5,5 °C 21,6 °C 4,8 km/h (1 Bft)
14.10.2018 14:58 21,6 °C 33 % 1011,2 hPa 0,0 mm 4,3 km/h (1 Bft) S-SO 165 ° 0 min 0,000 mm 2,5 UV-I 475 W/m² 4,6 °C 21,6 °C 9,7 km/h (2 Bft)
14.10.2018 14:59 21,9 °C 29 % 1011,2 hPa 0,0 mm 2,2 km/h (1 Bft) S 177 ° 0 min 0,000 mm 2,5 UV-I 473 W/m² 3,1 °C 21,9 °C 6,4 km/h (2 Bft)
14.10.2018 15:00 21,9 °C 31 % 1011,1 hPa 0,0 mm 0,1 km/h (0 Bft) S-SO 149 ° 0 min 0,000 mm 2,5 UV-I 471 W/m² 4,0 °C 21,9 °C 1,6 km/h (1 Bft)
14.10.2018 15:01 22,0 °C 31 % 1011,1 hPa 0,0 mm 0,5 km/h (0 Bft) S-SO 150 ° 0 min 0,330 mm 2,5 UV-I 471 W/m² 4,1 °C 22,0 °C 1,6 km/h (1 Bft)
14.10.2018 15:02 22,1 °C 36 % 1011,2 hPa 0,0 mm 0,0 km/h (0 Bft) S-SO 150 ° 0 min 0,000 mm 2,5 UV-I 469 W/m² 6,3 °C 22,1 °C 0,0 km/h (0 Bft)
14.10.2018 15:03 21,8 °C 33 % 1011,2 hPa 0,0 mm 2,3 km/h (1 Bft) N-NW 328 ° 0 min 0,000 mm 2,5 UV-I 466 W/m² 4,8 °C 21,8 °C 8,0 km/h (2 Bft)
14.10.2018 15:04 21,7 °C 32 % 1011,2 hPa 0,0 mm 2,1 km/h (1 Bft) O 98 ° 0 min 0,000 mm 2,4 UV-I 466 W/m² 4,3 °C 21,7 °C 4,8 km/h (1 Bft)
14.10.2018 15:05 21,6 °C 34 % 1011,2 hPa 0,0 mm 1,7 km/h (1 Bft) SO 128 ° 0 min 0,000 mm 2,4 UV-I 462 W/m² 5,1 °C 21,6 °C 3,2 km/h (1 Bft)
14.10.2018 15:06 21,6 °C 34 % 1011,2 hPa 0,0 mm 2,5 km/h (1 Bft) O 83 ° 0 min 0,000 mm 2,4 UV-I 462 W/m² 5,1 °C 21,6 °C 4,8 km/h (1 Bft)
14.10.2018 15:07 21,3 °C 37 % 1011,2 hPa 0,0 mm 1,1 km/h (1 Bft) O 83 ° 0 min 0,000 mm 2,4 UV-I 461 W/m² 6,0 °C 21,3 °C 3,2 km/h (1 Bft)
14.10.2018 15:08 21,2 °C 42 % 1011,2 hPa 0,0 mm 1,4 km/h (1 Bft) O 83 ° 0 min 0,000 mm 2,4 UV-I 459 W/m² 7,8 °C 21,2 °C 3,2 km/h (1 Bft)
14.10.2018 15:09 21,0 °C 40 % 1011,1 hPa 0,0 mm 1,4 km/h (1 Bft) SO 146 ° 0 min 0,000 mm 2,4 UV-I 455 W/m² 6,9 °C 21,0 °C 6,4 km/h (2 Bft)
14.10.2018 15:10 21,1 °C 34 % 1011,1 hPa 0,0 mm 1,2 km/h (1 Bft) S-SO 147 ° 0 min 0,000 mm 2,4 UV-I 454 W/m² 4,6 °C 21,1 °C 6,4 km/h (2 Bft)
14.10.2018 15:11 21,1 °C 37 % 1011,1 hPa 0,0 mm 0,0 km/h (0 Bft) S-SO 147 ° 0 min 0,000 mm 2,3 UV-I 450 W/m² 5,8 °C 21,1 °C 0,0 km/h (0 Bft)
14.10.2018 15:12 21,2 °C 34 % 1011,2 hPa 0,0 mm 0,0 km/h (0 Bft) S-SO 147 ° 0 min 0,000 mm 2,3 UV-I 450 W/m² 4,7 °C 21,2 °C 0,0 km/h (0 Bft)
14.10.2018 15:13 21,2 °C 36 % 1011,2 hPa 0,0 mm 0,0 km/h (0 Bft) S-SO 147 ° 0 min 0,000 mm 2,3 UV-I 446 W/m² 5,5 °C 21,2 °C 0,0 km/h (0 Bft)
14.10.2018 15:14 21,3 °C 37 % 1011,1 hPa 0,0 mm 0,3 km/h (0 Bft) S-SO 147 ° 0 min 0,000 mm 2,3 UV-I 445 W/m² 6,0 °C 21,3 °C 3,2 km/h (1 Bft)
14.10.2018 15:15 21,4 °C 34 % 1011,2 hPa 0,0 mm 0,9 km/h (0 Bft) S-SO 147 ° 0 min 0,000 mm 2,3 UV-I 443 W/m² 4,9 °C 21,4 °C 3,2 km/h (1 Bft)
14.10.2018 15:16 21,3 °C 38 % 1011,1 hPa 0,0 mm 0,0 km/h (0 Bft) S-SO 147 ° 0 min 0,000 mm 2,3 UV-I 441 W/m² 6,4 °C 21,3 °C 0,0 km/h (0 Bft)
14.10.2018 15:17 21,3 °C 38 % 1011,1 hPa 0,0 mm 0,0 km/h (0 Bft) S-SO 147 ° 0 min 0,000 mm 2,3 UV-I 441 W/m² 6,4 °C 21,3 °C 0,0 km/h (0 Bft)
14.10.2018 15:18 21,4 °C 33 % 1011,1 hPa 0,0 mm 0,0 km/h (0 Bft) S-SO 147 ° 0 min 0,000 mm 2,2 UV-I 439 W/m² 4,5 °C 21,4 °C 0,0 km/h (0 Bft)
14.10.2018 15:19 21,8 °C 32 % 1011,1 hPa 0,0 mm 3,4 km/h (1 Bft) W-NW 283 ° 0 min 0,000 mm 2,2 UV-I 438 W/m² 4,4 °C 21,8 °C 4,8 km/h (1 Bft)
14.10.2018 15:20 21,9 °C 30 % 1011,1 hPa 0,0 mm 7,8 km/h (2 Bft) W-NW 296 ° 0 min 0,000 mm 2,2 UV-I 434 W/m² 3,5 °C 21,9 °C 14,5 km/h (3 Bft)
14.10.2018 15:21 22,1 °C 31 % 1011,1 hPa 0,0 mm 2,9 km/h (1 Bft) W 276 ° 0 min 0,000 mm 2,2 UV-I 432 W/m² 4,2 °C 22,1 °C 6,4 km/h (2 Bft)
14.10.2018 15:22 22,1 °C 37 % 1011,1 hPa 0,0 mm 4,8 km/h (1 Bft) W-SW 248 ° 0 min 0,000 mm 2,2 UV-I 431 W/m² 6,7 °C 22,1 °C 6,4 km/h (2 Bft)
14.10.2018 15:23 21,9 °C 35 % 1011,1 hPa 0,0 mm 3,1 km/h (1 Bft) SW 232 ° 0 min 0,000 mm 2,2 UV-I 431 W/m² 5,7 °C 21,9 °C 4,8 km/h (1 Bft)
14.10.2018 15:24 22,0 °C 30 % 1011,1 hPa 0,0 mm 4,3 km/h (1 Bft) NW 306 ° 0 min 0,000 mm 2,2 UV-I 427 W/m² 3,6 °C 22,0 °C 8,0 km/h (2 Bft)
14.10.2018 15:25 22,1 °C 34 % 1011,0 hPa 0,0 mm 6,0 km/h (2 Bft) S 190 ° 0 min 0,000 mm 2,2 UV-I 427 W/m² 5,5 °C 22,1 °C 9,7 km/h (2 Bft)
14.10.2018 15:26 22,1 °C 34 % 1011,1 hPa 0,0 mm 0,8 km/h (0 Bft) S 190 ° 0 min 0,000 mm 2,2 UV-I 424 W/m² 5,5 °C 22,1 °C 1,6 km/h (1 Bft)
14.10.2018 15:27 22,2 °C 28 % 1011,1 hPa 0,0 mm 3,2 km/h (1 Bft) W-NW 292 ° 0 min 0,000 mm 2,1 UV-I 422 W/m² 2,8 °C 22,2 °C 9,7 km/h (2 Bft)
14.10.2018 15:28 22,3 °C 30 % 1011,0 hPa 0,0 mm 3,2 km/h (1 Bft) S-SW 202 ° 0 min 0,000 mm 2,1 UV-I 418 W/m² 3,9 °C 22,3 °C 6,4 km/h (2 Bft)
14.10.2018 15:29 22,3 °C 28 % 1011,0 hPa 0,0 mm 1,6 km/h (1 Bft) SW 225 ° 0 min 0,000 mm 2,1 UV-I 418 W/m² 2,9 °C 22,3 °C 4,8 km/h (1 Bft)
14.10.2018 15:30 22,2 °C 31 % 1011,1 hPa 0,0 mm 0,0 km/h (0 Bft) SW 225 ° 0 min 0,000 mm 2,1 UV-I 415 W/m² 4,3 °C 22,2 °C 3,2 km/h (1 Bft)
14.10.2018 15:31 21,8 °C 35 % 1011,1 hPa 0,0 mm 0,0 km/h (0 Bft) SW 225 ° 0 min 0,000 mm 2,1 UV-I 413 W/m² 5,7 °C 21,8 °C 1,6 km/h (1 Bft)
14.10.2018 15:32 21,8 °C 36 % 1011,1 hPa 0,0 mm 0,0 km/h (0 Bft) SW 225 ° 0 min 0,000 mm 2,1 UV-I 411 W/m² 6,1 °C 21,8 °C 1,6 km/h (1 Bft)
14.10.2018 15:33 21,7 °C 38 % 1011,1 hPa 0,0 mm 1,6 km/h (1 Bft) SW 225 ° 0 min 0,000 mm 2,0 UV-I 410 W/m² 6,8 °C 21,7 °C 3,2 km/h (1 Bft)
14.10.2018 15:35 21,4 °C 38 % 1011,0 hPa 0,0 mm 1,0 km/h (0 Bft) W-NW 288 ° 0 min 0,000 mm 2,0 UV-I 404 W/m² 6,5 °C 21,4 °C 3,2 km/h (1 Bft)
14.10.2018 15:37 21,6 °C 39 % 1011,0 hPa 0,0 mm 1,3 km/h (1 Bft) W-NW 295 ° 0 min 0,000 mm 2,0 UV-I 399 W/m² 7,0 °C 21,6 °C 4,8 km/h (1 Bft)
14.10.2018 15:38 21,4 °C 37 % 1011,1 hPa 0,0 mm 1,7 km/h (1 Bft) W 265 ° 0 min 0,000 mm 2,0 UV-I 397 W/m² 6,1 °C 21,4 °C 3,2 km/h (1 Bft)
14.10.2018 15:39 21,3 °C 34 % 1011,0 hPa 0,0 mm 0,0 km/h (0 Bft) W 265 ° 0 min 0,000 mm 1,9 UV-I 396 W/m² 4,8 °C 21,3 °C 0,0 km/h (0 Bft)
14.10.2018 15:40 21,3 °C 37 % 1011,0 hPa 0,0 mm 0,0 km/h (0 Bft) N 0 ° 0 min 0,000 mm 1,9 UV-I 394 W/m² 6,0 °C 21,3 °C 0,0 km/h (0 Bft)
14.10.2018 15:43 21,8 °C 32 % 1011,1 hPa 0,0 mm 1,8 km/h (1 Bft) W 263 ° 0 min 0,000 mm 1,9 UV-I 387 W/m² 4,4 °C 21,8 °C 4,8 km/h (1 Bft)
14.10.2018 15:44 21,9 °C 31 % 1011,1 hPa 0,0 mm 2,3 km/h (1 Bft) W 263 ° 0 min 0,000 mm 1,9 UV-I 383 W/m² 4,0 °C 21,9 °C 4,8 km/h (1 Bft)
14.10.2018 15:45 22,1 °C 30 % 1011,1 hPa 0,0 mm 1,3 km/h (1 Bft) W 263 ° 0 min 0,000 mm 1,8 UV-I 381 W/m² 3,7 °C 22,1 °C 3,2 km/h (1 Bft)
14.10.2018 15:47 21,7 °C 32 % 1011,1 hPa 0,0 mm 1,4 km/h (1 Bft) S-SW 211 ° 0 min 0,000 mm 1,8 UV-I 376 W/m² 4,3 °C 21,7 °C 9,7 km/h (2 Bft)
14.10.2018 15:48 21,6 °C 36 % 1011,1 hPa 0,0 mm 2,6 km/h (1 Bft) W 273 ° 0 min 0,000 mm 1,8 UV-I 374 W/m² 5,9 °C 21,6 °C 6,4 km/h (2 Bft)
14.10.2018 15:49 21,6 °C 32 % 1011,1 hPa 0,0 mm 1,1 km/h (1 Bft) W 275 ° 0 min 0,000 mm 1,8 UV-I 369 W/m² 4,2 °C 21,6 °C 4,8 km/h (1 Bft)
14.10.2018 15:50 21,8 °C 30 % 1011,1 hPa 0,0 mm 2,1 km/h (1 Bft) SW 227 ° 0 min 0,000 mm 1,8 UV-I 366 W/m² 3,5 °C 21,8 °C 6,4 km/h (2 Bft)
14.10.2018 15:51 21,8 °C 32 % 1011,1 hPa 0,0 mm 2,5 km/h (1 Bft) S-SW 195 ° 0 min 0,000 mm 1,7 UV-I 364 W/m² 4,4 °C 21,8 °C 8,0 km/h (2 Bft)
14.10.2018 15:52 21,9 °C 28 % 1011,1 hPa 0,0 mm 4,8 km/h (1 Bft) W 261 ° 0 min 0,000 mm 1,7 UV-I 364 W/m² 2,6 °C 21,9 °C 9,7 km/h (2 Bft)
14.10.2018 15:53 21,9 °C 33 % 1011,1 hPa 0,0 mm 2,6 km/h (1 Bft) S-SW 194 ° 0 min 0,000 mm 1,7 UV-I 362 W/m² 4,9 °C 21,9 °C 3,2 km/h (1 Bft)
14.10.2018 15:54 21,8 °C 36 % 1011,1 hPa 0,0 mm 1,6 km/h (1 Bft) W-SW 240 ° 0 min 0,000 mm 1,7 UV-I 359 W/m² 6,1 °C 21,8 °C 3,2 km/h (1 Bft)
14.10.2018 15:55 21,5 °C 34 % 1011,1 hPa 0,0 mm 0,5 km/h (0 Bft) SW 225 ° 0 min 0,000 mm 1,7 UV-I 357 W/m² 5,0 °C 21,5 °C 1,6 km/h (1 Bft)
14.10.2018 15:56 21,5 °C 32 % 1011,1 hPa 0,0 mm 2,5 km/h (1 Bft) W-SW 243 ° 0 min 0,000 mm 1,7 UV-I 353 W/m² 4,1 °C 21,5 °C 6,4 km/h (2 Bft)
14.10.2018 15:57 21,6 °C 33 % 1011,1 hPa 0,0 mm 1,7 km/h (1 Bft) W-SW 242 ° 0 min 0,000 mm 1,7 UV-I 352 W/m² 4,6 °C 21,6 °C 3,2 km/h (1 Bft)
14.10.2018 15:58 21,6 °C 33 % 1011,2 hPa 0,0 mm 0,3 km/h (0 Bft) W-SW 242 ° 0 min 0,000 mm 1,6 UV-I 350 W/m² 4,6 °C 21,6 °C 1,6 km/h (1 Bft)
14.10.2018 15:59 21,4 °C 35 % 1011,1 hPa 0,0 mm 1,9 km/h (1 Bft) SW 233 ° 0 min 0,000 mm 1,6 UV-I 348 W/m² 5,3 °C 21,4 °C 4,8 km/h (1 Bft)
14.10.2018 16:00 21,3 °C 35 % 1011,1 hPa 0,0 mm 0,7 km/h (0 Bft) W-NW 296 ° 0 min 0,000 mm 1,6 UV-I 346 W/m² 5,2 °C 21,3 °C 1,6 km/h (1 Bft)
14.10.2018 16:01 21,2 °C 39 % 1011,2 hPa 0,0 mm 2,1 km/h (1 Bft) S-SO 159 ° 0 min 0,279 mm 1,6 UV-I 341 W/m² 6,7 °C 21,2 °C 4,8 km/h (1 Bft)
14.10.2018 16:02 21,2 °C 35 % 1011,2 hPa 0,0 mm 1,9 km/h (1 Bft) S-SO 159 ° 0 min 0,000 mm 1,6 UV-I 338 W/m² 5,1 °C 21,2 °C 3,2 km/h (1 Bft)
14.10.2018 16:03 21,2 °C 35 % 1011,2 hPa 0,0 mm 0,8 km/h (0 Bft) N-NW 338 ° 0 min 0,000 mm 1,6 UV-I 338 W/m² 5,1 °C 21,2 °C 3,2 km/h (1 Bft)
14.10.2018 16:04 21,3 °C 35 % 1011,2 hPa 0,0 mm 4,3 km/h (1 Bft) S-SO 167 ° 0 min 0,000 mm 1,5 UV-I 336 W/m² 5,2 °C 21,3 °C 6,4 km/h (2 Bft)
14.10.2018 16:05 21,5 °C 32 % 1011,2 hPa 0,0 mm 2,1 km/h (1 Bft) W 279 ° 0 min 0,000 mm 1,5 UV-I 334 W/m² 4,1 °C 21,5 °C 4,8 km/h (1 Bft)
14.10.2018 16:06 21,6 °C 32 % 1011,2 hPa 0,0 mm 1,0 km/h (0 Bft) W-NW 292 ° 0 min 0,000 mm 1,5 UV-I 330 W/m² 4,2 °C 21,6 °C 3,2 km/h (1 Bft)
14.10.2018 16:07 21,8 °C 29 % 1011,2 hPa 0,0 mm 3,6 km/h (1 Bft) W 265 ° 0 min 0,000 mm 1,5 UV-I 327 W/m² 3,0 °C 21,8 °C 6,4 km/h (2 Bft)
14.10.2018 16:08 21,8 °C 33 % 1011,2 hPa 0,0 mm 2,3 km/h (1 Bft) W-SW 253 ° 0 min 0,000 mm 1,5 UV-I 325 W/m² 4,8 °C 21,8 °C 6,4 km/h (2 Bft)
14.10.2018 16:09 21,6 °C 35 % 1011,1 hPa 0,0 mm 0,3 km/h (0 Bft) W 281 ° 0 min 0,000 mm 1,5 UV-I 323 W/m² 5,5 °C 21,6 °C 4,8 km/h (1 Bft)
14.10.2018 16:10 21,3 °C 37 % 1011,1 hPa 0,0 mm 1,7 km/h (1 Bft) W-SW 244 ° 0 min 0,000 mm 1,4 UV-I 320 W/m² 6,0 °C 21,3 °C 3,2 km/h (1 Bft)
14.10.2018 16:11 21,2 °C 37 % 1011,1 hPa 0,0 mm 0,3 km/h (0 Bft) W-SW 244 ° 0 min 0,000 mm 1,4 UV-I 318 W/m² 5,9 °C 21,2 °C 1,6 km/h (1 Bft)
14.10.2018 16:12 21,2 °C 34 % 1011,1 hPa 0,0 mm 0,5 km/h (0 Bft) W-SW 244 ° 0 min 0,000 mm 1,4 UV-I 316 W/m² 4,7 °C 21,2 °C 3,2 km/h (1 Bft)
14.10.2018 16:13 21,1 °C 36 % 1011,2 hPa 0,0 mm 0,0 km/h (0 Bft) W-SW 244 ° 0 min 0,000 mm 1,4 UV-I 302 W/m² 5,4 °C 21,1 °C 0,0 km/h (0 Bft)
14.10.2018 16:14 21,2 °C 32 % 1011,2 hPa 0,0 mm 2,0 km/h (1 Bft) SO 136 ° 0 min 0,000 mm 1,2 UV-I 214 W/m² 3,8 °C 21,2 °C 4,8 km/h (1 Bft)
14.10.2018 16:15 20,9 °C 43 % 1011,1 hPa 0,0 mm 0,3 km/h (0 Bft) SO 136 ° 0 min 0,000 mm 1,1 UV-I 214 W/m² 7,8 °C 20,9 °C 3,2 km/h (1 Bft)
14.10.2018 16:16 20,9 °C 36 % 1011,2 hPa 0,0 mm 0,0 km/h (0 Bft) SO 136 ° 0 min 0,000 mm 1,0 UV-I 65 W/m² 5,3 °C 20,9 °C 0,0 km/h (0 Bft)
14.10.2018 16:17 20,9 °C 38 % 1011,2 hPa 0,0 mm 0,0 km/h (0 Bft) SO 136 ° 0 min 0,000 mm 0,0 UV-I 53 W/m² 6,0 °C 20,9 °C 0,0 km/h (0 Bft)
14.10.2018 16:18 20,8 °C 36 % 1011,2 hPa 0,0 mm 1,2 km/h (1 Bft) NW 307 ° 0 min 0,000 mm 0,0 UV-I 39 W/m² 5,2 °C 20,8 °C 3,2 km/h (1 Bft)
14.10.2018 16:19 20,8 °C 33 % 1011,1 hPa 0,0 mm 4,0 km/h (1 Bft) S-SW 212 ° 0 min 0,000 mm 0,0 UV-I 44 W/m² 3,9 °C 20,8 °C 4,8 km/h (1 Bft)
14.10.2018 16:20 21,0 °C 31 % 1011,1 hPa 0,0 mm 2,6 km/h (1 Bft) S-SW 200 ° 0 min 0,000 mm 0,0 UV-I 44 W/m² 3,2 °C 21,0 °C 4,8 km/h (1 Bft)
14.10.2018 16:21 21,2 °C 31 % 1011,1 hPa 0,0 mm 0,6 km/h (0 Bft) S-SW 207 ° 0 min 0,000 mm 0,0 UV-I 47 W/m² 3,4 °C 21,2 °C 1,6 km/h (1 Bft)
14.10.2018 16:22 21,2 °C 35 % 1011,1 hPa 0,0 mm 5,0 km/h (1 Bft) W-SW 244 ° 0 min 0,000 mm 0,0 UV-I 42 W/m² 5,1 °C 21,2 °C 11,3 km/h (2 Bft)
14.10.2018 16:23 21,1 °C 36 % 1011,1 hPa 0,0 mm 2,9 km/h (1 Bft) W 272 ° 0 min 0,000 mm 0,0 UV-I 42 W/m² 5,4 °C 21,1 °C 6,4 km/h (2 Bft)
14.10.2018 16:24 21,0 °C 36 % 1011,2 hPa 0,0 mm 2,0 km/h (1 Bft) W 281 ° 0 min 0,000 mm 0,0 UV-I 47 W/m² 5,4 °C 21,0 °C 3,2 km/h (1 Bft)
14.10.2018 16:25 20,7 °C 41 % 1011,1 hPa 0,0 mm 1,8 km/h (1 Bft) S 186 ° 0 min 0,000 mm 0,0 UV-I 42 W/m² 7,0 °C 20,7 °C 4,8 km/h (1 Bft)
14.10.2018 16:26 20,6 °C 35 % 1011,1 hPa 0,0 mm 3,3 km/h (1 Bft) S-SW 192 ° 0 min 0,000 mm 0,0 UV-I 40 W/m² 4,6 °C 20,6 °C 4,8 km/h (1 Bft)
14.10.2018 16:27 20,7 °C 33 % 1011,1 hPa 0,0 mm 4,0 km/h (1 Bft) NW 306 ° 0 min 0,000 mm 0,0 UV-I 33 W/m² 3,9 °C 20,7 °C 9,7 km/h (2 Bft)
14.10.2018 16:28 20,8 °C 31 % 1011,1 hPa 0,0 mm 4,7 km/h (1 Bft) W-NW 288 ° 0 min 0,000 mm 0,0 UV-I 30 W/m² 3,1 °C 20,8 °C 8,0 km/h (2 Bft)
14.10.2018 16:29 20,9 °C 32 % 1011,1 hPa 0,0 mm 4,8 km/h (1 Bft) W 272 ° 0 min 0,000 mm 0,0 UV-I 32 W/m² 3,6 °C 20,9 °C 6,4 km/h (2 Bft)
14.10.2018 16:30 21,1 °C 31 % 1011,0 hPa 0,0 mm 1,7 km/h (1 Bft) W-SW 243 ° 0 min 0,000 mm 0,0 UV-I 33 W/m² 3,3 °C 21,1 °C 3,2 km/h (1 Bft)
14.10.2018 16:31 21,2 °C 32 % 1011,1 hPa 0,0 mm 2,2 km/h (1 Bft) W-SW 239 ° 0 min 0,000 mm 0,0 UV-I 33 W/m² 3,8 °C 21,2 °C 4,8 km/h (1 Bft)
14.10.2018 16:32 21,2 °C 32 % 1011,1 hPa 0,0 mm 1,7 km/h (1 Bft) W 261 ° 0 min 0,000 mm 0,0 UV-I 39 W/m² 3,8 °C 21,2 °C 3,2 km/h (1 Bft)
14.10.2018 16:33 21,1 °C 34 % 1011,0 hPa 0,0 mm 5,2 km/h (1 Bft) W 273 ° 0 min 0,000 mm 0,9 UV-I 56 W/m² 4,6 °C 21,1 °C 11,3 km/h (2 Bft)
14.10.2018 16:34 21,0 °C 35 % 1011,1 hPa 0,0 mm 3,0 km/h (1 Bft) SW 235 ° 0 min 0,000 mm 0,0 UV-I 49 W/m² 5,0 °C 21,0 °C 4,8 km/h (1 Bft)
14.10.2018 16:35 20,8 °C 35 % 1011,1 hPa 0,0 mm 1,4 km/h (1 Bft) SW 235 ° 0 min 0,000 mm 0,0 UV-I 33 W/m² 4,8 °C 20,8 °C 3,2 km/h (1 Bft)
14.10.2018 16:36 20,8 °C 35 % 1011,1 hPa 0,0 mm 1,6 km/h (1 Bft) SW 235 ° 0 min 0,000 mm 0,0 UV-I 33 W/m² 4,8 °C 20,8 °C 1,6 km/h (1 Bft)
14.10.2018 16:37 20,4 °C 35 % 1011,1 hPa 0,0 mm 1,6 km/h (1 Bft) NW 315 ° 0 min 0,000 mm 0,0 UV-I 30 W/m² 4,4 °C 20,4 °C 4,8 km/h (1 Bft)
14.10.2018 16:38 20,3 °C 35 % 1011,1 hPa 0,0 mm 1,6 km/h (1 Bft) NW 315 ° 0 min 0,000 mm 0,0 UV-I 30 W/m² 4,3 °C 20,3 °C 4,8 km/h (1 Bft)
14.10.2018 16:39 20,4 °C 34 % 1011,1 hPa 0,0 mm 1,6 km/h (1 Bft) W-SW 247 ° 0 min 0,000 mm 0,0 UV-I 30 W/m² 4,0 °C 20,4 °C 3,2 km/h (1 Bft)
14.10.2018 16:40 20,4 °C 35 % 1011,0 hPa 0,0 mm 1,6 km/h (1 Bft) SW 225 ° 0 min 0,000 mm 0,0 UV-I 30 W/m² 4,4 °C 20,4 °C 3,2 km/h (1 Bft)
14.10.2018 16:41 20,5 °C 35 % 1011,1 hPa 0,0 mm 0,0 km/h (0 Bft) SW 225 ° 0 min 0,000 mm 0,0 UV-I 28 W/m² 4,5 °C 20,5 °C 3,2 km/h (1 Bft)
14.10.2018 16:42 20,5 °C 36 % 1011,0 hPa 0,0 mm 0,0 km/h (0 Bft) N 0 ° 0 min 0,000 mm 0,0 UV-I 28 W/m² 4,9 °C 20,5 °C 0,0 km/h (0 Bft)
14.10.2018 16:43 20,3 °C 38 % 1011,0 hPa 0,0 mm 0,0 km/h (0 Bft) N 0 ° 0 min 0,000 mm 0,0 UV-I 28 W/m² 5,5 °C 20,3 °C 0,0 km/h (0 Bft)
14.10.2018 16:45 19,9 °C 40 % 1011,1 hPa 0,0 mm 0,2 km/h (0 Bft) SW 219 ° 0 min 0,000 mm 0,0 UV-I 28 W/m² 5,9 °C 19,9 °C 1,6 km/h (1 Bft)
14.10.2018 16:47 19,7 °C 39 % 1011,1 hPa 0,0 mm 1,1 km/h (1 Bft) S-SW 196 ° 0 min 0,000 mm 0,0 UV-I 28 W/m² 5,4 °C 19,7 °C 4,8 km/h (1 Bft)
14.10.2018 16:48 19,7 °C 41 % 1011,1 hPa 0,0 mm 0,2 km/h (0 Bft) S-SW 196 ° 0 min 0,000 mm 0,0 UV-I 28 W/m² 6,1 °C 19,7 °C 1,6 km/h (1 Bft)
14.10.2018 16:49 19,7 °C 38 % 1011,1 hPa 0,0 mm 2,8 km/h (1 Bft) W 269 ° 0 min 0,000 mm 0,0 UV-I 26 W/m² 5,0 °C 19,7 °C 11,3 km/h (2 Bft)
14.10.2018 16:50 19,8 °C 34 % 1011,1 hPa 0,0 mm 1,5 km/h (1 Bft) W 269 ° 0 min 0,000 mm 0,0 UV-I 26 W/m² 3,5 °C 19,8 °C 6,4 km/h (2 Bft)
14.10.2018 16:51 19,9 °C 37 % 1011,0 hPa 0,0 mm 2,7 km/h (1 Bft) S-SO 150 ° 0 min 0,000 mm 0,0 UV-I 26 W/m² 4,8 °C 19,9 °C 6,4 km/h (2 Bft)
14.10.2018 16:52 20,1 °C 37 % 1011,1 hPa 0,0 mm 0,7 km/h (0 Bft) S-SO 151 ° 0 min 0,000 mm 0,0 UV-I 26 W/m² 5,0 °C 20,1 °C 1,6 km/h (1 Bft)
14.10.2018 16:53 20,1 °C 36 % 1011,1 hPa 0,0 mm 0,2 km/h (0 Bft) SO 146 ° 0 min 0,000 mm 0,0 UV-I 26 W/m² 4,6 °C 20,1 °C 1,6 km/h (1 Bft)
14.10.2018 16:54 20,2 °C 35 % 1011,1 hPa 0,0 mm 0,5 km/h (0 Bft) SO 146 ° 0 min 0,000 mm 0,0 UV-I 26 W/m² 4,2 °C 20,2 °C 1,6 km/h (1 Bft)
14.10.2018 16:55 20,1 °C 39 % 1011,0 hPa 0,0 mm 0,1 km/h (0 Bft) SO 146 ° 0 min 0,000 mm 0,0 UV-I 26 W/m² 5,7 °C 20,1 °C 1,6 km/h (1 Bft)
14.10.2018 16:56 20,0 °C 38 % 1011,1 hPa 0,0 mm 0,9 km/h (0 Bft) SO 146 ° 0 min 0,000 mm 0,0 UV-I 26 W/m² 5,2 °C 20,0 °C 3,2 km/h (1 Bft)
14.10.2018 16:57 19,8 °C 39 % 1011,0 hPa 0,0 mm 2,3 km/h (1 Bft) O 88 ° 0 min 0,000 mm 0,0 UV-I 26 W/m² 5,4 °C 19,8 °C 3,2 km/h (1 Bft)
14.10.2018 16:58 19,9 °C 35 % 1011,1 hPa 0,0 mm 0,3 km/h (0 Bft) O 88 ° 0 min 0,000 mm 0,0 UV-I 26 W/m² 4,0 °C 19,9 °C 1,6 km/h (1 Bft)
14.10.2018 16:59 19,9 °C 38 % 1011,1 hPa 0,0 mm 0,7 km/h (0 Bft) W-SW 254 ° 0 min 0,000 mm 0,0 UV-I 26 W/m² 5,2 °C 19,9 °C 3,2 km/h (1 Bft)
14.10.2018 17:00 19,9 °C 35 % 1011,1 hPa 0,0 mm 1,6 km/h (1 Bft) S 183 ° 0 min 0,000 mm 0,0 UV-I 26 W/m² 4,0 °C 19,9 °C 3,2 km/h (1 Bft)
14.10.2018 17:01 19,9 °C 35 % 1011,0 hPa 0,0 mm 3,2 km/h (1 Bft) S 183 ° 0 min 0,076 mm 0,0 UV-I 26 W/m² 4,0 °C 19,9 °C 3,2 km/h (1 Bft)
14.10.2018 17:02 19,9 °C 38 % 1011,1 hPa 0,0 mm 0,0 km/h (0 Bft) N 0 ° 0 min 0,000 mm 0,0 UV-I 25 W/m² 5,2 °C 19,9 °C 0,0 km/h (0 Bft)
14.10.2018 17:03 19,9 °C 41 % 1011,1 hPa 0,0 mm 0,0 km/h (0 Bft) S 180 ° 0 min 0,000 mm 0,0 UV-I 25 W/m² 6,3 °C 19,9 °C 3,2 km/h (1 Bft)
14.10.2018 17:04 19,8 °C 39 % 1011,1 hPa 0,0 mm 1,6 km/h (1 Bft) O-NO 67 ° 0 min 0,000 mm 0,0 UV-I 25 W/m² 5,4 °C 19,8 °C 6,4 km/h (2 Bft)
14.10.2018 17:05 19,8 °C 41 % 1011,0 hPa 0,0 mm 0,0 km/h (0 Bft) O-NO 67 ° 0 min 0,000 mm 0,0 UV-I 25 W/m² 6,2 °C 19,8 °C 1,6 km/h (1 Bft)
14.10.2018 17:06 19,7 °C 39 % 1011,1 hPa 0,0 mm 0,0 km/h (0 Bft) O-NO 67 ° 0 min 0,000 mm 0,0 UV-I 25 W/m² 5,4 °C 19,7 °C 1,6 km/h (1 Bft)
14.10.2018 17:07 19,5 °C 40 % 1011,0 hPa 0,0 mm 0,0 km/h (0 Bft) NO 45 ° 0 min 0,000 mm 0,0 UV-I 25 W/m² 5,5 °C 19,5 °C 3,2 km/h (1 Bft)
14.10.2018 17:08 19,4 °C 41 % 1011,0 hPa 0,0 mm 1,6 km/h (1 Bft) NO 45 ° 0 min 0,000 mm 0,0 UV-I 25 W/m² 5,8 °C 19,4 °C 3,2 km/h (1 Bft)
14.10.2018 17:10 19,3 °C 39 % 1011,0 hPa 0,0 mm 0,1 km/h (0 Bft) NO 38 ° 0 min 0,000 mm 0,0 UV-I 25 W/m² 5,0 °C 19,3 °C 1,6 km/h (1 Bft)
14.10.2018 17:12 19,3 °C 39 % 1011,0 hPa 0,0 mm 2,4 km/h (1 Bft) S 188 ° 0 min 0,000 mm 0,0 UV-I 25 W/m² 5,0 °C 19,3 °C 9,7 km/h (2 Bft)
14.10.2018 17:13 19,3 °C 39 % 1011,0 hPa 0,0 mm 5,4 km/h (1 Bft) SO 145 ° 0 min 0,000 mm 0,0 UV-I 23 W/m² 5,0 °C 19,3 °C 8,0 km/h (2 Bft)
14.10.2018 17:14 19,3 °C 37 % 1011,0 hPa 0,0 mm 1,3 km/h (1 Bft) O-SO 115 ° 0 min 0,000 mm 0,0 UV-I 23 W/m² 4,2 °C 19,3 °C 3,2 km/h (1 Bft)
14.10.2018 17:15 19,4 °C 37 % 1011,0 hPa 0,0 mm 0,0 km/h (0 Bft) N 0 ° 0 min 0,000 mm 0,0 UV-I 23 W/m² 4,3 °C 19,4 °C 0,0 km/h (0 Bft)
14.10.2018 17:17 19,2 °C 40 % 1011,0 hPa 0,0 mm 0,0 km/h (0 Bft) W 266 ° 0 min 0,000 mm 0,0 UV-I 23 W/m² 5,3 °C 19,2 °C 0,0 km/h (0 Bft)
14.10.2018 17:18 19,1 °C 40 % 1011,0 hPa 0,0 mm 0,0 km/h (0 Bft) W 266 ° 0 min 0,000 mm 0,0 UV-I 23 W/m² 5,2 °C 19,1 °C 0,0 km/h (0 Bft)
14.10.2018 17:19 19,1 °C 39 % 1011,0 hPa 0,0 mm 1,5 km/h (1 Bft) W 278 ° 0 min 0,000 mm 0,0 UV-I 25 W/m² 4,8 °C 19,1 °C 3,2 km/h (1 Bft)
14.10.2018 17:20 19,1 °C 39 % 1011,0 hPa 0,0 mm 0,9 km/h (0 Bft) W 278 ° 0 min 0,000 mm 0,0 UV-I 25 W/m² 4,8 °C 19,1 °C 3,2 km/h (1 Bft)
14.10.2018 17:22 18,9 °C 39 % 1011,0 hPa 0,0 mm 0,0 km/h (0 Bft) W 278 ° 0 min 0,000 mm 0,0 UV-I 25 W/m² 4,6 °C 18,9 °C 0,0 km/h (0 Bft)
14.10.2018 17:23 18,9 °C 40 % 1010,9 hPa 0,0 mm 0,0 km/h (0 Bft) W 278 ° 0 min 0,000 mm 0,0 UV-I 25 W/m² 5,0 °C 18,9 °C 0,0 km/h (0 Bft)
14.10.2018 17:24 18,9 °C 41 % 1011,0 hPa 0,0 mm 0,3 km/h (0 Bft) W 278 ° 0 min 0,000 mm 0,0 UV-I 23 W/m² 5,4 °C 18,9 °C 1,6 km/h (1 Bft)
14.10.2018 17:25 18,9 °C 41 % 1011,0 hPa 0,0 mm 1,6 km/h (1 Bft) W 270 ° 0 min 0,000 mm 0,0 UV-I 23 W/m² 5,4 °C 18,9 °C 1,6 km/h (1 Bft)
14.10.2018 17:27 18,7 °C 39 % 1010,9 hPa 0,0 mm 2,4 km/h (1 Bft) S-SW 202 ° 0 min 0,000 mm 0,0 UV-I 25 W/m² 4,5 °C 18,7 °C 3,2 km/h (1 Bft)
14.10.2018 17:28 18,8 °C 40 % 1010,9 hPa 0,0 mm 0,2 km/h (0 Bft) S-SW 202 ° 0 min 0,000 mm 0,0 UV-I 23 W/m² 4,9 °C 18,8 °C 1,6 km/h (1 Bft)
14.10.2018 17:29 18,7 °C 41 % 1010,9 hPa 0,0 mm 0,1 km/h (0 Bft) S-SW 202 ° 0 min 0,000 mm 0,0 UV-I 23 W/m² 5,2 °C 18,7 °C 1,6 km/h (1 Bft)
14.10.2018 17:30 18,7 °C 40 % 1010,9 hPa 0,0 mm 0,0 km/h (0 Bft) S-SW 202 ° 0 min 0,000 mm 0,0 UV-I 25 W/m² 4,8 °C 18,7 °C 0,0 km/h (0 Bft)
14.10.2018 17:32 18,7 °C 40 % 1010,9 hPa 0,0 mm 0,0 km/h (0 Bft) S-SW 202 ° 0 min 0,000 mm 0,0 UV-I 25 W/m² 4,8 °C 18,7 °C 0,0 km/h (0 Bft)
14.10.2018 17:33 18,6 °C 39 % 1010,9 hPa 0,0 mm 0,0 km/h (0 Bft) SO 135 ° 0 min 0,000 mm 0,0 UV-I 23 W/m² 4,4 °C 18,6 °C 1,6 km/h (1 Bft)
14.10.2018 17:34 18,6 °C 40 % 1011,0 hPa 0,0 mm 3,2 km/h (1 Bft) SO 135 ° 0 min 0,000 mm 0,0 UV-I 21 W/m² 4,7 °C 18,6 °C 6,4 km/h (2 Bft)
14.10.2018 17:35 18,4 °C 41 % 1010,9 hPa 0,0 mm 1,6 km/h (1 Bft) NO 45 ° 0 min 0,000 mm 0,0 UV-I 21 W/m² 4,9 °C 18,4 °C 3,2 km/h (1 Bft)
14.10.2018 17:36 18,3 °C 40 % 1010,9 hPa 0,0 mm 1,6 km/h (1 Bft) N-NO 22 ° 0 min 0,000 mm 0,0 UV-I 19 W/m² 4,5 °C 18,3 °C 3,2 km/h (1 Bft)
14.10.2018 17:37 18,3 °C 42 % 1010,9 hPa 0,0 mm 1,6 km/h (1 Bft) N-NO 22 ° 0 min 0,000 mm 0,0 UV-I 19 W/m² 5,2 °C 18,3 °C 3,2 km/h (1 Bft)
14.10.2018 17:38 18,3 °C 42 % 1010,9 hPa 0,0 mm 0,0 km/h (0 Bft) N-NO 22 ° 0 min 0,000 mm 0,0 UV-I 19 W/m² 5,2 °C 18,3 °C 1,6 km/h (1 Bft)
14.10.2018 17:39 18,4 °C 39 % 1010,9 hPa 0,0 mm 0,0 km/h (0 Bft) N-NO 22 ° 0 min 0,000 mm 0,0 UV-I 19 W/m² 4,2 °C 18,4 °C 1,6 km/h (1 Bft)
14.10.2018 17:41 18,4 °C 42 % 1010,9 hPa 0,0 mm 2,0 km/h (1 Bft) N-NO 23 ° 0 min 0,000 mm 0,0 UV-I 18 W/m² 5,3 °C 18,4 °C 4,8 km/h (1 Bft)
14.10.2018 17:42 18,4 °C 42 % 1010,9 hPa 0,0 mm 1,1 km/h (1 Bft) S-SW 194 ° 0 min 0,000 mm 0,0 UV-I 18 W/m² 5,3 °C 18,4 °C 3,2 km/h (1 Bft)
14.10.2018 17:43 18,4 °C 40 % 1010,9 hPa 0,0 mm 1,5 km/h (1 Bft) S 190 ° 0 min 0,000 mm 0,0 UV-I 18 W/m² 4,6 °C 18,4 °C 4,8 km/h (1 Bft)
14.10.2018 17:44 18,4 °C 40 % 1010,9 hPa 0,0 mm 0,0 km/h (0 Bft) S 190 ° 0 min 0,000 mm 0,0 UV-I 18 W/m² 4,6 °C 18,4 °C 0,0 km/h (0 Bft)
14.10.2018 17:45 18,3 °C 39 % 1010,9 hPa 0,0 mm 0,0 km/h (0 Bft) S 190 ° 0 min 0,000 mm 0,0 UV-I 18 W/m² 4,1 °C 18,3 °C 0,0 km/h (0 Bft)
14.10.2018 17:47 18,3 °C 40 % 1010,9 hPa 0,0 mm 0,9 km/h (0 Bft) N-NO 15 ° 0 min 0,000 mm 0,0 UV-I 16 W/m² 4,5 °C 18,3 °C 4,8 km/h (1 Bft)
14.10.2018 17:48 18,2 °C 40 % 1010,9 hPa 0,0 mm 0,1 km/h (0 Bft) N-NO 15 ° 0 min 0,000 mm 0,0 UV-I 16 W/m² 4,4 °C 18,2 °C 1,6 km/h (1 Bft)
14.10.2018 17:49 18,2 °C 42 % 1010,9 hPa 0,0 mm 1,4 km/h (1 Bft) N-NO 26 ° 0 min 0,000 mm 0,0 UV-I 16 W/m² 5,1 °C 18,2 °C 4,8 km/h (1 Bft)
14.10.2018 17:51 18,1 °C 42 % 1010,9 hPa 0,0 mm 6,7 km/h (2 Bft) NO 49 ° 0 min 0,000 mm 0,0 UV-I 16 W/m² 5,0 °C 18,1 °C 14,5 km/h (3 Bft)
14.10.2018 17:52 18,0 °C 42 % 1010,8 hPa 0,0 mm 3,2 km/h (1 Bft) O 90 ° 0 min 0,000 mm 0,0 UV-I 16 W/m² 4,9 °C 18,0 °C 6,4 km/h (2 Bft)
14.10.2018 17:53 18,1 °C 42 % 1010,9 hPa 0,0 mm 1,6 km/h (1 Bft) O-SO 112 ° 0 min 0,000 mm 0,0 UV-I 16 W/m² 5,0 °C 18,1 °C 4,8 km/h (1 Bft)
14.10.2018 17:54 18,1 °C 43 % 1010,9 hPa 0,0 mm 1,6 km/h (1 Bft) O-SO 112 ° 0 min 0,000 mm 0,0 UV-I 16 W/m² 5,3 °C 18,1 °C 4,8 km/h (1 Bft)
14.10.2018 17:55 18,1 °C 41 % 1010,9 hPa 0,0 mm 0,0 km/h (0 Bft) W-SW 247 ° 0 min 0,000 mm 0,0 UV-I 14 W/m² 4,6 °C 18,1 °C 1,6 km/h (1 Bft)
14.10.2018 17:56 18,1 °C 41 % 1010,9 hPa 0,0 mm 0,0 km/h (0 Bft) N 0 ° 0 min 0,000 mm 0,0 UV-I 14 W/m² 4,6 °C 18,1 °C 0,0 km/h (0 Bft)
14.10.2018 17:57 18,1 °C 40 % 1010,9 hPa 0,0 mm 0,0 km/h (0 Bft) NW 315 ° 0 min 0,000 mm 0,0 UV-I 14 W/m² 4,3 °C 18,1 °C 1,6 km/h (1 Bft)
14.10.2018 17:58 18,1 °C 42 % 1010,9 hPa 0,0 mm 0,0 km/h (0 Bft) NW 315 ° 0 min 0,000 mm 0,0 UV-I 14 W/m² 5,0 °C 18,1 °C 1,6 km/h (1 Bft)
14.10.2018 18:00 18,1 °C 39 % 1011,0 hPa 0,0 mm 0,0 km/h (0 Bft) S 186 ° 0 min 0,000 mm 0,0 UV-I 14 W/m² 3,9 °C 18,1 °C 0,0 km/h (0 Bft)
14.10.2018 18:02 18,2 °C 39 % 1011,0 hPa 0,0 mm 0,6 km/h (0 Bft) S 186 ° 0 min 0,026 mm 0,0 UV-I 12 W/m² 4,0 °C 18,2 °C 3,2 km/h (1 Bft)
14.10.2018 18:03 18,2 °C 39 % 1011,0 hPa 0,0 mm 0,0 km/h (0 Bft) S 191 ° 0 min 0,000 mm 0,0 UV-I 12 W/m² 4,0 °C 18,2 °C 0,0 km/h (0 Bft)
14.10.2018 18:04 18,1 °C 41 % 1011,0 hPa 0,0 mm 0,7 km/h (0 Bft) S 178 ° 0 min 0,000 mm 0,0 UV-I 12 W/m² 4,6 °C 18,1 °C 3,2 km/h (1 Bft)
14.10.2018 18:05 18,1 °C 41 % 1011,0 hPa 0,0 mm 1,5 km/h (1 Bft) O-NO 59 ° 0 min 0,000 mm 0,0 UV-I 12 W/m² 4,6 °C 18,1 °C 3,2 km/h (1 Bft)
14.10.2018 18:07 17,9 °C 40 % 1011,0 hPa 0,0 mm 0,4 km/h (0 Bft) O-NO 59 ° 0 min 0,000 mm 0,0 UV-I 12 W/m² 4,1 °C 17,9 °C 3,2 km/h (1 Bft)
14.10.2018 18:08 17,9 °C 41 % 1011,0 hPa 0,0 mm 0,0 km/h (0 Bft) O-NO 59 ° 0 min 0,000 mm 0,0 UV-I 12 W/m² 4,5 °C 17,9 °C 0,0 km/h (0 Bft)
14.10.2018 18:09 17,9 °C 43 % 1011,0 hPa 0,0 mm 0,3 km/h (0 Bft) O-NO 59 ° 0 min 0,000 mm 0,0 UV-I 11 W/m² 5,1 °C 17,9 °C 1,6 km/h (1 Bft)
14.10.2018 18:10 17,9 °C 40 % 1011,0 hPa 0,0 mm 1,6 km/h (1 Bft) O-NO 59 ° 0 min 0,000 mm 0,0 UV-I 11 W/m² 4,1 °C 17,9 °C 3,2 km/h (1 Bft)
14.10.2018 18:12 17,7 °C 41 % 1011,0 hPa 0,0 mm 0,3 km/h (0 Bft) O-NO 59 ° 0 min 0,000 mm 0,0 UV-I 11 W/m² 4,3 °C 17,7 °C 1,6 km/h (1 Bft)
14.10.2018 18:13 17,7 °C 40 % 1011,0 hPa 0,0 mm 0,4 km/h (0 Bft) O-NO 59 ° 0 min 0,000 mm 0,0 UV-I 11 W/m² 3,9 °C 17,7 °C 1,6 km/h (1 Bft)
14.10.2018 18:14 17,8 °C 40 % 1011,1 hPa 0,0 mm 0,1 km/h (0 Bft) O-NO 59 ° 0 min 0,000 mm 0,0 UV-I 9 W/m² 4,0 °C 17,8 °C 1,6 km/h (1 Bft)
14.10.2018 18:15 17,8 °C 42 % 1011,0 hPa 0,0 mm 0,0 km/h (0 Bft) O-NO 59 ° 0 min 0,000 mm 0,0 UV-I 9 W/m² 4,7 °C 17,8 °C 0,0 km/h (0 Bft)
14.10.2018 18:17 17,5 °C 43 % 1011,1 hPa 0,0 mm 1,3 km/h (1 Bft) O-NO 59 ° 0 min 0,000 mm 0,0 UV-I 9 W/m² 4,8 °C 17,5 °C 3,2 km/h (1 Bft)
14.10.2018 18:18 17,4 °C 42 % 1011,1 hPa 0,0 mm 1,3 km/h (1 Bft) O-NO 59 ° 0 min 0,000 mm 0,0 UV-I 9 W/m² 4,4 °C 17,4 °C 3,2 km/h (1 Bft)
14.10.2018 18:19 17,4 °C 41 % 1011,1 hPa 0,0 mm 0,0 km/h (0 Bft) O-NO 59 ° 0 min 0,000 mm 0,0 UV-I 7 W/m² 4,0 °C 17,4 °C 0,0 km/h (0 Bft)
14.10.2018 18:20 17,3 °C 43 % 1011,1 hPa 0,0 mm 1,4 km/h (1 Bft) O-NO 59 ° 0 min 0,000 mm 0,0 UV-I 7 W/m² 4,6 °C 17,3 °C 3,2 km/h (1 Bft)
14.10.2018 18:21 17,3 °C 42 % 1011,2 hPa 0,0 mm 0,2 km/h (0 Bft) O-NO 59 ° 0 min 0,000 mm 0,0 UV-I 7 W/m² 4,3 °C 17,3 °C 1,6 km/h (1 Bft)
14.10.2018 18:22 17,2 °C 44 % 1011,1 hPa 0,0 mm 1,0 km/h (0 Bft) O-NO 59 ° 0 min 0,000 mm 0,0 UV-I 7 W/m² 4,8 °C 17,2 °C 3,2 km/h (1 Bft)
14.10.2018 18:23 17,1 °C 42 % 1011,1 hPa 0,0 mm 0,0 km/h (0 Bft) O-NO 59 ° 0 min 0,000 mm 0,0 UV-I 7 W/m² 4,1 °C 17,1 °C 0,0 km/h (0 Bft)
14.10.2018 18:24 17,1 °C 43 % 1011,1 hPa 0,0 mm 0,6 km/h (0 Bft) O-NO 59 ° 0 min 0,000 mm 0,0 UV-I 7 W/m² 4,4 °C 17,1 °C 1,6 km/h (1 Bft)
14.10.2018 18:25 17,0 °C 42 % 1011,1 hPa 0,0 mm 0,0 km/h (0 Bft) O-NO 59 ° 0 min 0,000 mm 0,0 UV-I 5 W/m² 4,0 °C 17,0 °C 0,0 km/h (0 Bft)
14.10.2018 18:26 17,0 °C 42 % 1011,1 hPa 0,0 mm 0,2 km/h (0 Bft) O-NO 59 ° 0 min 0,000 mm 0,0 UV-I 5 W/m² 4,0 °C 17,0 °C 1,6 km/h (1 Bft)
14.10.2018 18:27 17,1 °C 40 % 1011,1 hPa 0,0 mm 0,3 km/h (0 Bft) O-NO 59 ° 0 min 0,000 mm 0,0 UV-I 5 W/m² 3,4 °C 17,1 °C 1,6 km/h (1 Bft)
14.10.2018 18:28 17,1 °C 42 % 1011,1 hPa 0,0 mm 0,0 km/h (0 Bft) O-NO 59 ° 0 min 0,000 mm 0,0 UV-I 5 W/m² 4,1 °C 17,1 °C 0,0 km/h (0 Bft)
14.10.2018 18:29 16,9 °C 42 % 1011,1 hPa 0,0 mm 0,0 km/h (0 Bft) O-NO 59 ° 0 min 0,000 mm 0,0 UV-I 5 W/m² 3,9 °C 16,9 °C 0,0 km/h (0 Bft)
14.10.2018 18:30 16,8 °C 46 % 1011,1 hPa 0,0 mm 1,3 km/h (1 Bft) O-NO 59 ° 0 min 0,000 mm 0,0 UV-I 5 W/m² 5,1 °C 16,8 °C 3,2 km/h (1 Bft)
14.10.2018 18:31 16,7 °C 43 % 1011,1 hPa 0,0 mm 0,0 km/h (0 Bft) O-NO 59 ° 0 min 0,000 mm 0,0 UV-I 0 W/m² 4,1 °C 16,7 °C 0,0 km/h (0 Bft)
14.10.2018 18:32 16,7 °C 42 % 1011,1 hPa 0,0 mm 0,0 km/h (0 Bft) O-NO 59 ° 0 min 0,000 mm 0,0 UV-I 0 W/m² 3,7 °C 16,7 °C 0,0 km/h (0 Bft)
14.10.2018 18:33 16,8 °C 43 % 1011,1 hPa 0,0 mm 0,0 km/h (0 Bft) O-NO 59 ° 0 min 0,000 mm 0,0 UV-I 0 W/m² 4,2 °C 16,8 °C 0,0 km/h (0 Bft)
14.10.2018 18:34 16,9 °C 42 % 1011,2 hPa 0,0 mm 0,0 km/h (0 Bft) O-NO 59 ° 0 min 0,000 mm 0,0 UV-I 0 W/m² 3,9 °C 16,9 °C 0,0 km/h (0 Bft)
14.10.2018 18:35 16,9 °C 43 % 1011,2 hPa 0,0 mm 1,7 km/h (1 Bft) S 186 ° 0 min 0,000 mm 0,0 UV-I 0 W/m² 4,2 °C 16,9 °C 3,2 km/h (1 Bft)
14.10.2018 18:36 17,1 °C 42 % 1011,2 hPa 0,0 mm 1,4 km/h (1 Bft) S 188 ° 0 min 0,000 mm 0,0 UV-I 0 W/m² 4,1 °C 17,1 °C 3,2 km/h (1 Bft)
14.10.2018 18:37 17,0 °C 42 % 1011,2 hPa 0,0 mm 1,5 km/h (1 Bft) SO 145 ° 0 min 0,000 mm 0,0 UV-I 0 W/m² 4,0 °C 17,0 °C 4,8 km/h (1 Bft)
14.10.2018 18:38 17,0 °C 43 % 1011,2 hPa 0,0 mm 4,4 km/h (1 Bft) W-SW 238 ° 0 min 0,000 mm 0,0 UV-I 0 W/m² 4,3 °C 17,0 °C 8,0 km/h (2 Bft)
14.10.2018 18:39 17,1 °C 39 % 1011,2 hPa 0,0 mm 2,5 km/h (1 Bft) S 186 ° 0 min 0,000 mm 0,0 UV-I 0 W/m² 3,0 °C 17,1 °C 4,8 km/h (1 Bft)
14.10.2018 18:40 17,2 °C 40 % 1011,3 hPa 0,0 mm 1,1 km/h (1 Bft) S 186 ° 0 min 0,000 mm 0,0 UV-I 0 W/m² 3,5 °C 17,2 °C 4,8 km/h (1 Bft)
14.10.2018 18:41 17,3 °C 42 % 1011,2 hPa 0,0 mm 0,9 km/h (0 Bft) S 186 ° 0 min 0,000 mm 0,0 UV-I 0 W/m² 4,3 °C 17,3 °C 3,2 km/h (1 Bft)
14.10.2018 18:42 17,3 °C 41 % 1011,2 hPa 0,0 mm 2,5 km/h (1 Bft) S 178 ° 0 min 0,000 mm 0,0 UV-I 0 W/m² 3,9 °C 17,3 °C 3,2 km/h (1 Bft)
14.10.2018 18:43 17,3 °C 41 % 1011,3 hPa 0,0 mm 0,3 km/h (0 Bft) S 178 ° 0 min 0,000 mm 0,0 UV-I 0 W/m² 3,9 °C 17,3 °C 1,6 km/h (1 Bft)
14.10.2018 18:44 17,3 °C 41 % 1011,3 hPa 0,0 mm 0,2 km/h (0 Bft) S 178 ° 0 min 0,000 mm 0,0 UV-I 0 W/m² 3,9 °C 17,3 °C 1,6 km/h (1 Bft)
14.10.2018 18:45 17,2 °C 43 % 1011,3 hPa 0,0 mm 0,0 km/h (0 Bft) S 179 ° 0 min 0,000 mm 0,0 UV-I 0 W/m² 4,5 °C 17,2 °C 0,0 km/h (0 Bft)
14.10.2018 18:46 17,2 °C 43 % 1011,3 hPa 0,0 mm 0,0 km/h (0 Bft) S 179 ° 0 min 0,000 mm 0,0 UV-I 0 W/m² 4,5 °C 17,2 °C 0,0 km/h (0 Bft)
14.10.2018 18:47 17,1 °C 41 % 1011,3 hPa 0,0 mm 0,0 km/h (0 Bft) N 0 ° 0 min 0,000 mm 0,0 UV-I 0 W/m² 3,7 °C 17,1 °C 0,0 km/h (0 Bft)
14.10.2018 18:48 17,0 °C 42 % 1011,3 hPa 0,0 mm 0,0 km/h (0 Bft) N 0 ° 0 min 0,000 mm 0,0 UV-I 0 W/m² 4,0 °C 17,0 °C 0,0 km/h (0 Bft)
14.10.2018 18:49 16,9 °C 42 % 1011,3 hPa 0,0 mm 0,0 km/h (0 Bft) N 0 ° 0 min 0,000 mm 0,0 UV-I 0 W/m² 3,9 °C 16,9 °C 0,0 km/h (0 Bft)
14.10.2018 18:50 17,0 °C 40 % 1011,3 hPa 0,0 mm 1,6 km/h (1 Bft) S 180 ° 0 min 0,000 mm 0,0 UV-I 0 W/m² 3,3 °C 17,0 °C 3,2 km/h (1 Bft)
14.10.2018 18:51 17,1 °C 41 % 1011,4 hPa 0,0 mm 1,6 km/h (1 Bft) S 180 ° 0 min 0,000 mm 0,0 UV-I 0 W/m² 3,7 °C 17,1 °C 3,2 km/h (1 Bft)
14.10.2018 18:52 17,2 °C 41 % 1011,4 hPa 0,0 mm 0,0 km/h (0 Bft) S 180 ° 0 min 0,000 mm 0,0 UV-I 0 W/m² 3,8 °C 17,2 °C 1,6 km/h (1 Bft)
14.10.2018 18:53 17,2 °C 41 % 1011,3 hPa 0,0 mm 0,0 km/h (0 Bft) S 180 ° 0 min 0,000 mm 0,0 UV-I 0 W/m² 3,8 °C 17,2 °C 1,6 km/h (1 Bft)
14.10.2018 18:55 16,9 °C 41 % 1011,4 hPa 0,0 mm 0,9 km/h (0 Bft) S 180 ° 0 min 0,000 mm 0,0 UV-I 0 W/m² 3,6 °C 16,9 °C 1,6 km/h (1 Bft)
14.10.2018 18:57 17,0 °C 42 % 1011,4 hPa 0,0 mm 1,2 km/h (1 Bft) S 180 ° 0 min 0,000 mm 0,0 UV-I 0 W/m² 4,0 °C 17,0 °C 3,2 km/h (1 Bft)
14.10.2018 18:58 16,9 °C 43 % 1011,4 hPa 0,0 mm 0,4 km/h (0 Bft) S 180 ° 0 min 0,000 mm 0,0 UV-I 0 W/m² 4,2 °C 16,9 °C 3,2 km/h (1 Bft)
14.10.2018 18:59 16,9 °C 42 % 1011,4 hPa 0,0 mm 0,3 km/h (0 Bft) S 180 ° 0 min 0,000 mm 0,0 UV-I 0 W/m² 3,9 °C 16,9 °C 1,6 km/h (1 Bft)
14.10.2018 19:00 16,9 °C 40 % 1011,4 hPa 0,0 mm 0,0 km/h (0 Bft) S 180 ° 0 min 0,025 mm 0,0 UV-I 0 W/m² 3,2 °C 16,9 °C 1,6 km/h (1 Bft)
14.10.2018 19:03 17,0 °C 43 % 1011,4 hPa 0,0 mm 0,9 km/h (0 Bft) S 180 ° 0 min 0,000 mm 0,0 UV-I 0 W/m² 4,3 °C 17,0 °C 1,6 km/h (1 Bft)
14.10.2018 19:04 16,9 °C 43 % 1011,4 hPa 0,0 mm 0,2 km/h (0 Bft) S 180 ° 0 min 0,000 mm 0,0 UV-I 0 W/m² 4,2 °C 16,9 °C 1,6 km/h (1 Bft)
14.10.2018 19:05 16,8 °C 42 % 1011,4 hPa 0,0 mm 0,5 km/h (0 Bft) S 180 ° 0 min 0,000 mm 0,0 UV-I 0 W/m² 3,8 °C 16,8 °C 1,6 km/h (1 Bft)
14.10.2018 19:07 16,7 °C 43 % 1011,5 hPa 0,0 mm 0,4 km/h (0 Bft) S 180 ° 0 min 0,000 mm 0,0 UV-I 0 W/m² 4,1 °C 16,7 °C 1,6 km/h (1 Bft)
14.10.2018 19:08 16,6 °C 44 % 1011,5 hPa 0,0 mm 1,2 km/h (1 Bft) S 180 ° 0 min 0,000 mm 0,0 UV-I 0 W/m² 4,3 °C 16,6 °C 3,2 km/h (1 Bft)
14.10.2018 19:09 16,6 °C 42 % 1011,5 hPa 0,0 mm 0,7 km/h (0 Bft) S 180 ° 0 min 0,000 mm 0,0 UV-I 0 W/m² 3,6 °C 16,6 °C 3,2 km/h (1 Bft)
14.10.2018 19:10 16,6 °C 43 % 1011,5 hPa 0,0 mm 0,0 km/h (0 Bft) S 180 ° 0 min 0,000 mm 0,0 UV-I 0 W/m² 4,0 °C 16,6 °C 3,2 km/h (1 Bft)
14.10.2018 19:12 16,6 °C 42 % 1011,5 hPa 0,0 mm 2,1 km/h (1 Bft) S 180 ° 0 min 0,000 mm 0,0 UV-I 0 W/m² 3,6 °C 16,6 °C 3,2 km/h (1 Bft)
14.10.2018 19:13 16,7 °C 42 % 1011,5 hPa 0,0 mm 1,8 km/h (1 Bft) S 180 ° 0 min 0,000 mm 0,0 UV-I 0 W/m² 3,7 °C 16,7 °C 3,2 km/h (1 Bft)
14.10.2018 19:14 16,7 °C 41 % 1011,5 hPa 0,0 mm 2,8 km/h (1 Bft) S 180 ° 0 min 0,000 mm 0,0 UV-I 0 W/m² 3,4 °C 16,7 °C 4,8 km/h (1 Bft)
14.10.2018 19:15 16,7 °C 43 % 1011,5 hPa 0,0 mm 2,7 km/h (1 Bft) SW 215 ° 0 min 0,000 mm 0,0 UV-I 0 W/m² 4,1 °C 16,7 °C 6,4 km/h (2 Bft)
14.10.2018 19:17 16,8 °C 41 % 1011,5 hPa 0,0 mm 2,9 km/h (1 Bft) S-SW 213 ° 0 min 0,000 mm 0,0 UV-I 0 W/m² 3,5 °C 16,8 °C 6,4 km/h (2 Bft)
14.10.2018 19:18 16,8 °C 42 % 1011,5 hPa 0,0 mm 3,9 km/h (1 Bft) S-SW 198 ° 0 min 0,000 mm 0,0 UV-I 0 W/m² 3,8 °C 16,8 °C 6,4 km/h (2 Bft)
14.10.2018 19:19 16,8 °C 42 % 1011,6 hPa 0,0 mm 3,5 km/h (1 Bft) S-SW 198 ° 0 min 0,000 mm 0,0 UV-I 0 W/m² 3,8 °C 16,8 °C 4,8 km/h (1 Bft)
14.10.2018 19:20 16,8 °C 42 % 1011,5 hPa 0,0 mm 4,0 km/h (1 Bft) S-SW 192 ° 0 min 0,000 mm 0,0 UV-I 0 W/m² 3,8 °C 16,8 °C 6,4 km/h (2 Bft)
14.10.2018 19:21 16,9 °C 42 % 1011,5 hPa 0,0 mm 4,7 km/h (1 Bft) S-SW 194 ° 0 min 0,000 mm 0,0 UV-I 0 W/m² 3,9 °C 16,9 °C 8,0 km/h (2 Bft)
14.10.2018 19:22 16,9 °C 42 % 1011,5 hPa 0,0 mm 4,4 km/h (1 Bft) S-SW 197 ° 0 min 0,000 mm 0,0 UV-I 0 W/m² 3,9 °C 16,9 °C 8,0 km/h (2 Bft)
14.10.2018 19:23 16,9 °C 41 % 1011,5 hPa 0,0 mm 2,8 km/h (1 Bft) S-SW 193 ° 0 min 0,000 mm 0,0 UV-I 0 W/m² 3,6 °C 16,9 °C 4,8 km/h (1 Bft)
14.10.2018 19:24 16,9 °C 43 % 1011,5 hPa 0,0 mm 2,1 km/h (1 Bft) S-SW 193 ° 0 min 0,000 mm 0,0 UV-I 0 W/m² 4,2 °C 16,9 °C 4,8 km/h (1 Bft)
14.10.2018 19:25 16,7 °C 43 % 1011,5 hPa 0,0 mm 2,9 km/h (1 Bft) S-SW 193 ° 0 min 0,000 mm 0,0 UV-I 0 W/m² 4,1 °C 16,7 °C 4,8 km/h (1 Bft)
14.10.2018 19:26 16,6 °C 43 % 1011,6 hPa 0,0 mm 3,2 km/h (1 Bft) S-SW 192 ° 0 min 0,000 mm 0,0 UV-I 0 W/m² 4,0 °C 16,6 °C 6,4 km/h (2 Bft)
14.10.2018 19:27 16,6 °C 43 % 1011,6 hPa 0,0 mm 3,7 km/h (1 Bft) S-SW 193 ° 0 min 0,000 mm 0,0 UV-I 0 W/m² 4,0 °C 16,6 °C 4,8 km/h (1 Bft)
14.10.2018 19:28 16,4 °C 42 % 1011,7 hPa 0,0 mm 5,0 km/h (1 Bft) S-SO 155 ° 0 min 0,000 mm 0,0 UV-I 0 W/m² 3,5 °C 16,4 °C 9,7 km/h (2 Bft)
14.10.2018 19:29 16,6 °C 41 % 1011,7 hPa 0,0 mm 6,6 km/h (2 Bft) W-SW 244 ° 0 min 0,000 mm 0,0 UV-I 0 W/m² 3,3 °C 16,6 °C 11,3 km/h (2 Bft)
14.10.2018 19:30 16,7 °C 41 % 1011,7 hPa 0,0 mm 3,3 km/h (1 Bft) S-SW 202 ° 0 min 0,000 mm 0,0 UV-I 0 W/m² 3,4 °C 16,7 °C 6,4 km/h (2 Bft)
14.10.2018 19:31 16,8 °C 42 % 1011,7 hPa 0,0 mm 4,5 km/h (1 Bft) S-SW 203 ° 0 min 0,000 mm 0,0 UV-I 0 W/m² 3,8 °C 16,8 °C 8,0 km/h (2 Bft)
14.10.2018 19:32 16,8 °C 42 % 1011,6 hPa 0,0 mm 1,9 km/h (1 Bft) S-SW 203 ° 0 min 0,000 mm 0,0 UV-I 0 W/m² 3,8 °C 16,8 °C 4,8 km/h (1 Bft)
14.10.2018 19:33 16,8 °C 41 % 1011,7 hPa 0,0 mm 1,1 km/h (1 Bft) S-SW 203 ° 0 min 0,000 mm 0,0 UV-I 0 W/m² 3,5 °C 16,8 °C 3,2 km/h (1 Bft)
14.10.2018 19:34 16,9 °C 41 % 1011,7 hPa 0,0 mm 1,3 km/h (1 Bft) S-SW 203 ° 0 min 0,000 mm 0,0 UV-I 0 W/m² 3,6 °C 16,9 °C 3,2 km/h (1 Bft)
14.10.2018 19:35 16,9 °C 41 % 1011,8 hPa 0,0 mm 0,6 km/h (0 Bft) S-SW 203 ° 0 min 0,000 mm 0,0 UV-I 0 W/m² 3,6 °C 16,9 °C 1,6 km/h (1 Bft)
14.10.2018 19:36 16,9 °C 40 % 1011,7 hPa 0,0 mm 1,6 km/h (1 Bft) S-SW 203 ° 0 min 0,000 mm 0,0 UV-I 0 W/m² 3,2 °C 16,9 °C 1,6 km/h (1 Bft)
14.10.2018 19:37 16,9 °C 41 % 1011,8 hPa 0,0 mm 0,0 km/h (0 Bft) S-SW 202 ° 0 min 0,000 mm 0,0 UV-I 0 W/m² 3,6 °C 16,9 °C 1,6 km/h (1 Bft)
14.10.2018 19:38 16,8 °C 42 % 1011,7 hPa 0,0 mm 0,0 km/h (0 Bft) N 0 ° 0 min 0,000 mm 0,0 UV-I 0 W/m² 3,8 °C 16,8 °C 0,0 km/h (0 Bft)
14.10.2018 19:39 16,8 °C 42 % 1011,7 hPa 0,0 mm 1,6 km/h (1 Bft) S-SW 202 ° 0 min 0,000 mm 0,0 UV-I 0 W/m² 3,8 °C 16,8 °C 4,8 km/h (1 Bft)
14.10.2018 19:40 16,8 °C 41 % 1011,8 hPa 0,0 mm 3,2 km/h (1 Bft) S-SW 202 ° 0 min 0,000 mm 0,0 UV-I 0 W/m² 3,5 °C 16,8 °C 6,4 km/h (2 Bft)
14.10.2018 19:41 16,8 °C 42 % 1011,8 hPa 0,0 mm 0,0 km/h (0 Bft) N 0 ° 0 min 0,000 mm 0,0 UV-I 0 W/m² 3,8 °C 16,8 °C 0,0 km/h (0 Bft)
14.10.2018 19:42 16,8 °C 43 % 1011,8 hPa 0,0 mm 3,2 km/h (1 Bft) S-SW 202 ° 0 min 0,000 mm 0,0 UV-I 0 W/m² 4,2 °C 16,8 °C 4,8 km/h (1 Bft)
14.10.2018 19:43 16,7 °C 42 % 1011,8 hPa 0,0 mm 1,6 km/h (1 Bft) S-SW 202 ° 0 min 0,000 mm 0,0 UV-I 0 W/m² 3,7 °C 16,7 °C 3,2 km/h (1 Bft)
14.10.2018 19:44 16,6 °C 43 % 1011,8 hPa 0,0 mm 0,0 km/h (0 Bft) S-SW 202 ° 0 min 0,000 mm 0,0 UV-I 0 W/m² 4,0 °C 16,6 °C 1,6 km/h (1 Bft)
14.10.2018 19:45 16,6 °C 43 % 1011,8 hPa 0,0 mm 1,6 km/h (1 Bft) S-SW 202 ° 0 min 0,000 mm 0,0 UV-I 0 W/m² 4,0 °C 16,6 °C 3,2 km/h (1 Bft)
14.10.2018 19:46 16,6 °C 42 % 1011,8 hPa 0,0 mm 3,2 km/h (1 Bft) S-SW 202 ° 0 min 0,000 mm 0,0 UV-I 0 W/m² 3,6 °C 16,6 °C 3,2 km/h (1 Bft)
14.10.2018 19:47 16,6 °C 44 % 1011,8 hPa 0,0 mm 1,6 km/h (1 Bft) S-SW 202 ° 0 min 0,000 mm 0,0 UV-I 0 W/m² 4,3 °C 16,6 °C 3,2 km/h (1 Bft)
14.10.2018 19:48 16,4 °C 44 % 1011,8 hPa 0,0 mm 1,6 km/h (1 Bft) S-SW 202 ° 0 min 0,000 mm 0,0 UV-I 0 W/m² 4,1 °C 16,4 °C 3,2 km/h (1 Bft)
14.10.2018 19:49 16,3 °C 44 % 1011,8 hPa 0,0 mm 1,6 km/h (1 Bft) S-SW 202 ° 0 min 0,000 mm 0,0 UV-I 0 W/m² 4,0 °C 16,3 °C 3,2 km/h (1 Bft)
14.10.2018 19:50 16,2 °C 44 % 1011,8 hPa 0,0 mm 0,0 km/h (0 Bft) N 0 ° 0 min 0,000 mm 0,0 UV-I 0 W/m² 3,9 °C 16,2 °C 0,0 km/h (0 Bft)
14.10.2018 19:51 16,1 °C 44 % 1011,8 hPa 0,0 mm 0,0 km/h (0 Bft) N 0 ° 0 min 0,000 mm 0,0 UV-I 0 W/m² 3,8 °C 16,1 °C 0,0 km/h (0 Bft)
14.10.2018 19:52 16,0 °C 45 % 1011,8 hPa 0,0 mm 0,0 km/h (0 Bft) S-SW 202 ° 0 min 0,000 mm 0,0 UV-I 0 W/m² 4,1 °C 16,0 °C 1,6 km/h (1 Bft)
14.10.2018 19:53 15,9 °C 45 % 1011,8 hPa 0,0 mm 0,0 km/h (0 Bft) S-SW 202 ° 0 min 0,000 mm 0,0 UV-I 0 W/m² 4,0 °C 15,9 °C 1,6 km/h (1 Bft)
14.10.2018 19:54 15,8 °C 45 % 1011,8 hPa 0,0 mm 1,6 km/h (1 Bft) S-SW 202 ° 0 min 0,000 mm 0,0 UV-I 0 W/m² 3,9 °C 15,8 °C 3,2 km/h (1 Bft)
14.10.2018 19:56 15,8 °C 45 % 1011,8 hPa 0,0 mm 0,0 km/h (0 Bft) S-SW 194 ° 0 min 0,000 mm 0,0 UV-I 0 W/m² 3,9 °C 15,8 °C 0,0 km/h (0 Bft)
14.10.2018 19:57 15,8 °C 45 % 1011,9 hPa 0,0 mm 0,0 km/h (0 Bft) S-SW 194 ° 0 min 0,000 mm 0,0 UV-I 0 W/m² 3,9 °C 15,8 °C 0,0 km/h (0 Bft)
14.10.2018 19:58 15,8 °C 44 % 1011,8 hPa 0,0 mm 0,0 km/h (0 Bft) S-SW 194 ° 0 min 0,000 mm 0,0 UV-I 0 W/m² 3,6 °C 15,8 °C 0,0 km/h (0 Bft)
14.10.2018 19:59 15,9 °C 44 % 1011,8 hPa 0,0 mm 0,0 km/h (0 Bft) S-SW 194 ° 0 min 0,000 mm 0,0 UV-I 0 W/m² 3,7 °C 15,9 °C 0,0 km/h (0 Bft)
14.10.2018 20:00 15,9 °C 45 % 1011,8 hPa 0,0 mm 0,0 km/h (0 Bft) S-SW 194 ° 0 min 0,000 mm 0,0 UV-I 0 W/m² 4,0 °C 15,9 °C 0,0 km/h (0 Bft)
14.10.2018 20:01 15,9 °C 45 % 1011,9 hPa 0,0 mm 1,6 km/h (1 Bft) SW 225 ° 0 min 0,051 mm 0,0 UV-I 0 W/m² 4,0 °C 15,9 °C 3,2 km/h (1 Bft)
14.10.2018 20:02 15,9 °C 44 % 1011,8 hPa 0,0 mm 1,1 km/h (1 Bft) SW 225 ° 0 min 0,000 mm 0,0 UV-I 0 W/m² 3,7 °C 15,9 °C 3,2 km/h (1 Bft)
14.10.2018 20:03 15,9 °C 45 % 1011,8 hPa 0,0 mm 1,2 km/h (1 Bft) SW 225 ° 0 min 0,000 mm 0,0 UV-I 0 W/m² 4,0 °C 15,9 °C 1,6 km/h (1 Bft)
14.10.2018 20:04 15,9 °C 45 % 1011,8 hPa 0,0 mm 0,4 km/h (0 Bft) SW 225 ° 0 min 0,000 mm 0,0 UV-I 0 W/m² 4,0 °C 15,9 °C 1,6 km/h (1 Bft)
14.10.2018 20:05 15,9 °C 45 % 1011,8 hPa 0,0 mm 0,0 km/h (0 Bft) SW 225 ° 0 min 0,000 mm 0,0 UV-I 0 W/m² 4,0 °C 15,9 °C 0,0 km/h (0 Bft)
14.10.2018 20:06 15,9 °C 45 % 1011,8 hPa 0,0 mm 0,0 km/h (0 Bft) SW 225 ° 0 min 0,000 mm 0,0 UV-I 0 W/m² 4,0 °C 15,9 °C 0,0 km/h (0 Bft)
14.10.2018 20:07 15,9 °C 45 % 1011,8 hPa 0,0 mm 0,7 km/h (0 Bft) SW 225 ° 0 min 0,000 mm 0,0 UV-I 0 W/m² 4,0 °C 15,9 °C 3,2 km/h (1 Bft)
14.10.2018 20:08 15,9 °C 45 % 1011,9 hPa 0,0 mm 1,1 km/h (1 Bft) SW 225 ° 0 min 0,000 mm 0,0 UV-I 0 W/m² 4,0 °C 15,9 °C 4,8 km/h (1 Bft)
14.10.2018 20:09 15,9 °C 45 % 1011,9 hPa 0,0 mm 2,3 km/h (1 Bft) W-SW 249 ° 0 min 0,000 mm 0,0 UV-I 0 W/m² 4,0 °C 15,9 °C 4,8 km/h (1 Bft)
14.10.2018 20:10 16,0 °C 44 % 1011,9 hPa 0,0 mm 0,6 km/h (0 Bft) W-SW 248 ° 0 min 0,000 mm 0,0 UV-I 0 W/m² 3,8 °C 16,0 °C 3,2 km/h (1 Bft)
14.10.2018 20:11 16,0 °C 44 % 1011,9 hPa 0,0 mm 0,7 km/h (0 Bft) W-SW 248 ° 0 min 0,000 mm 0,0 UV-I 0 W/m² 3,8 °C 16,0 °C 3,2 km/h (1 Bft)
14.10.2018 20:12 16,1 °C 45 % 1011,9 hPa 0,0 mm 0,3 km/h (0 Bft) W-SW 248 ° 0 min 0,000 mm 0,0 UV-I 0 W/m² 4,2 °C 16,1 °C 1,6 km/h (1 Bft)
14.10.2018 20:13 16,0 °C 46 % 1012,0 hPa 0,0 mm 0,4 km/h (0 Bft) W-SW 248 ° 0 min 0,000 mm 0,0 UV-I 0 W/m² 4,4 °C 16,0 °C 1,6 km/h (1 Bft)
14.10.2018 20:14 15,9 °C 45 % 1011,9 hPa 0,0 mm 0,1 km/h (0 Bft) W-SW 248 ° 0 min 0,000 mm 0,0 UV-I 0 W/m² 4,0 °C 15,9 °C 1,6 km/h (1 Bft)
14.10.2018 20:15 15,9 °C 46 % 1012,0 hPa 0,0 mm 0,0 km/h (0 Bft) W-SW 248 ° 0 min 0,000 mm 0,0 UV-I 0 W/m² 4,3 °C 15,9 °C 0,0 km/h (0 Bft)
14.10.2018 20:16 15,8 °C 45 % 1011,9 hPa 0,0 mm 0,0 km/h (0 Bft) W-SW 248 ° 0 min 0,000 mm 0,0 UV-I 0 W/m² 3,9 °C 15,8 °C 0,0 km/h (0 Bft)
14.10.2018 20:17 15,8 °C 45 % 1011,9 hPa 0,0 mm 0,0 km/h (0 Bft) W-SW 248 ° 0 min 0,000 mm 0,0 UV-I 0 W/m² 3,9 °C 15,8 °C 0,0 km/h (0 Bft)
14.10.2018 20:18 15,8 °C 46 % 1012,0 hPa 0,0 mm 0,0 km/h (0 Bft) W-SW 248 ° 0 min 0,000 mm 0,0 UV-I 0 W/m² 4,2 °C 15,8 °C 0,0 km/h (0 Bft)
14.10.2018 20:19 15,8 °C 46 % 1011,9 hPa 0,0 mm 1,3 km/h (1 Bft) W-SW 257 ° 0 min 0,000 mm 0,0 UV-I 0 W/m² 4,2 °C 15,8 °C 6,4 km/h (2 Bft)
14.10.2018 20:20 15,7 °C 46 % 1012,0 hPa 0,0 mm 2,8 km/h (1 Bft) SW 227 ° 0 min 0,000 mm 0,0 UV-I 0 W/m² 4,1 °C 15,7 °C 4,8 km/h (1 Bft)
14.10.2018 20:21 15,7 °C 47 % 1012,0 hPa 0,0 mm 1,3 km/h (1 Bft) SW 225 ° 0 min 0,000 mm 0,0 UV-I 0 W/m² 4,4 °C 15,7 °C 3,2 km/h (1 Bft)
14.10.2018 20:22 15,7 °C 46 % 1012,0 hPa 0,0 mm 0,0 km/h (0 Bft) SW 225 ° 0 min 0,000 mm 0,0 UV-I 0 W/m² 4,1 °C 15,7 °C 0,0 km/h (0 Bft)
14.10.2018 20:23 15,6 °C 47 % 1012,0 hPa 0,0 mm 0,0 km/h (0 Bft) SW 225 ° 0 min 0,000 mm 0,0 UV-I 0 W/m² 4,3 °C 15,6 °C 0,0 km/h (0 Bft)
14.10.2018 20:24 15,4 °C 47 % 1012,0 hPa 0,0 mm 0,0 km/h (0 Bft) SW 225 ° 0 min 0,000 mm 0,0 UV-I 0 W/m² 4,1 °C 15,4 °C 0,0 km/h (0 Bft)
14.10.2018 20:25 15,3 °C 47 % 1012,0 hPa 0,0 mm 0,0 km/h (0 Bft) SW 225 ° 0 min 0,000 mm 0,0 UV-I 0 W/m² 4,1 °C 15,3 °C 0,0 km/h (0 Bft)
14.10.2018 20:26 15,2 °C 47 % 1012,0 hPa 0,0 mm 0,5 km/h (0 Bft) SW 225 ° 0 min 0,000 mm 0,0 UV-I 0 W/m² 4,0 °C 15,2 °C 1,6 km/h (1 Bft)
14.10.2018 20:27 15,3 °C 47 % 1012,0 hPa 0,0 mm 0,9 km/h (0 Bft) SW 225 ° 0 min 0,000 mm 0,0 UV-I 0 W/m² 4,1 °C 15,3 °C 3,2 km/h (1 Bft)
14.10.2018 20:28 15,3 °C 48 % 1012,0 hPa 0,0 mm 0,1 km/h (0 Bft) SW 225 ° 0 min 0,000 mm 0,0 UV-I 0 W/m² 4,4 °C 15,3 °C 1,6 km/h (1 Bft)
14.10.2018 20:29 15,4 °C 46 % 1012,0 hPa 0,0 mm 0,1 km/h (0 Bft) SW 225 ° 0 min 0,000 mm 0,0 UV-I 0 W/m² 3,8 °C 15,4 °C 1,6 km/h (1 Bft)
14.10.2018 20:30 15,4 °C 47 % 1012,0 hPa 0,0 mm 0,0 km/h (0 Bft) SW 225 ° 0 min 0,000 mm 0,0 UV-I 0 W/m² 4,1 °C 15,4 °C 0,0 km/h (0 Bft)
14.10.2018 20:31 15,6 °C 47 % 1012,0 hPa 0,0 mm 1,3 km/h (1 Bft) SW 225 ° 0 min 0,000 mm 0,0 UV-I 0 W/m² 4,3 °C 15,6 °C 3,2 km/h (1 Bft)
14.10.2018 20:32 15,6 °C 46 % 1012,0 hPa 0,0 mm 0,7 km/h (0 Bft) SW 225 ° 0 min 0,000 mm 0,0 UV-I 0 W/m² 4,0 °C 15,6 °C 1,6 km/h (1 Bft)
14.10.2018 20:33 15,7 °C 45 % 1012,0 hPa 0,0 mm 0,9 km/h (0 Bft) SW 225 ° 0 min 0,000 mm 0,0 UV-I 0 W/m² 3,8 °C 15,7 °C 3,2 km/h (1 Bft)
14.10.2018 20:34 15,8 °C 46 % 1012,0 hPa 0,0 mm 0,5 km/h (0 Bft) SW 225 ° 0 min 0,000 mm 0,0 UV-I 0 W/m² 4,2 °C 15,8 °C 3,2 km/h (1 Bft)
14.10.2018 20:35 15,8 °C 46 % 1012,0 hPa 0,0 mm 1,5 km/h (1 Bft) SW 225 ° 0 min 0,000 mm 0,0 UV-I 0 W/m² 4,2 °C 15,8 °C 3,2 km/h (1 Bft)
14.10.2018 20:36 15,8 °C 46 % 1011,9 hPa 0,0 mm 0,9 km/h (0 Bft) SW 225 ° 0 min 0,000 mm 0,0 UV-I 0 W/m² 4,2 °C 15,8 °C 1,6 km/h (1 Bft)
14.10.2018 20:37 15,9 °C 45 % 1012,0 hPa 0,0 mm 0,7 km/h (0 Bft) SW 225 ° 0 min 0,000 mm 0,0 UV-I 0 W/m² 4,0 °C 15,9 °C 3,2 km/h (1 Bft)
14.10.2018 20:38 16,0 °C 44 % 1012,0 hPa 0,0 mm 1,5 km/h (1 Bft) SW 214 ° 0 min 0,000 mm 0,0 UV-I 0 W/m² 3,8 °C 16,0 °C 4,8 km/h (1 Bft)
14.10.2018 20:39 16,0 °C 45 % 1012,0 hPa 0,0 mm 0,2 km/h (0 Bft) SW 214 ° 0 min 0,000 mm 0,0 UV-I 0 W/m² 4,1 °C 16,0 °C 1,6 km/h (1 Bft)
14.10.2018 20:40 16,1 °C 45 % 1012,0 hPa 0,0 mm 1,5 km/h (1 Bft) SW 214 ° 0 min 0,000 mm 0,0 UV-I 0 W/m² 4,2 °C 16,1 °C 3,2 km/h (1 Bft)
14.10.2018 20:41 16,1 °C 44 % 1012,0 hPa 0,0 mm 1,3 km/h (1 Bft) SW 214 ° 0 min 0,000 mm 0,0 UV-I 0 W/m² 3,8 °C 16,1 °C 3,2 km/h (1 Bft)
14.10.2018 20:42 16,1 °C 44 % 1012,0 hPa 0,0 mm 1,2 km/h (1 Bft) SW 214 ° 0 min 0,000 mm 0,0 UV-I 0 W/m² 3,8 °C 16,1 °C 3,2 km/h (1 Bft)
14.10.2018 20:43 16,2 °C 44 % 1012,0 hPa 0,0 mm 1,1 km/h (1 Bft) SW 214 ° 0 min 0,000 mm 0,0 UV-I 0 W/m² 3,9 °C 16,2 °C 3,2 km/h (1 Bft)
14.10.2018 20:44 16,2 °C 43 % 1012,0 hPa 0,0 mm 1,3 km/h (1 Bft) SW 214 ° 0 min 0,000 mm 0,0 UV-I 0 W/m² 3,6 °C 16,2 °C 3,2 km/h (1 Bft)
14.10.2018 20:45 16,2 °C 43 % 1012,0 hPa 0,0 mm 1,9 km/h (1 Bft) SW 214 ° 0 min 0,000 mm 0,0 UV-I 0 W/m² 3,6 °C 16,2 °C 3,2 km/h (1 Bft)
14.10.2018 20:46 16,2 °C 44 % 1012,0 hPa 0,0 mm 1,2 km/h (1 Bft) SW 214 ° 0 min 0,000 mm 0,0 UV-I 0 W/m² 3,9 °C 16,2 °C 3,2 km/h (1 Bft)
14.10.2018 20:47 16,2 °C 45 % 1012,0 hPa 0,0 mm 0,3 km/h (0 Bft) SW 214 ° 0 min 0,000 mm 0,0 UV-I 0 W/m² 4,3 °C 16,2 °C 3,2 km/h (1 Bft)
14.10.2018 20:48 16,2 °C 44 % 1012,0 hPa 0,0 mm 1,3 km/h (1 Bft) SW 214 ° 0 min 0,000 mm 0,0 UV-I 0 W/m² 3,9 °C 16,2 °C 1,6 km/h (1 Bft)
14.10.2018 20:49 16,1 °C 45 % 1012,0 hPa 0,0 mm 1,7 km/h (1 Bft) SW 214 ° 0 min 0,000 mm 0,0 UV-I 0 W/m² 4,2 °C 16,1 °C 3,2 km/h (1 Bft)
14.10.2018 20:50 16,1 °C 44 % 1012,0 hPa 0,0 mm 1,5 km/h (1 Bft) SW 214 ° 0 min 0,000 mm 0,0 UV-I 0 W/m² 3,8 °C 16,1 °C 3,2 km/h (1 Bft)
14.10.2018 20:51 16,1 °C 44 % 1012,0 hPa 0,0 mm 1,9 km/h (1 Bft) SW 214 ° 0 min 0,000 mm 0,0 UV-I 0 W/m² 3,8 °C 16,1 °C 3,2 km/h (1 Bft)
14.10.2018 20:52 16,1 °C 44 % 1012,1 hPa 0,0 mm 2,6 km/h (1 Bft) SW 214 ° 0 min 0,000 mm 0,0 UV-I 0 W/m² 3,8 °C 16,1 °C 4,8 km/h (1 Bft)
14.10.2018 20:53 16,0 °C 45 % 1012,1 hPa 0,0 mm 2,7 km/h (1 Bft) SW 214 ° 0 min 0,000 mm 0,0 UV-I 0 W/m² 4,1 °C 16,0 °C 3,2 km/h (1 Bft)
14.10.2018 20:54 16,1 °C 44 % 1012,1 hPa 0,0 mm 4,5 km/h (1 Bft) S-SO 162 ° 0 min 0,000 mm 0,0 UV-I 0 W/m² 3,8 °C 16,1 °C 8,0 km/h (2 Bft)
14.10.2018 20:55 16,1 °C 44 % 1012,1 hPa 0,0 mm 3,2 km/h (1 Bft) S-SO 162 ° 0 min 0,000 mm 0,0 UV-I 0 W/m² 3,8 °C 16,1 °C 6,4 km/h (2 Bft)
14.10.2018 20:56 16,1 °C 43 % 1012,1 hPa 0,0 mm 2,5 km/h (1 Bft) S-SO 162 ° 0 min 0,000 mm 0,0 UV-I 0 W/m² 3,5 °C 16,1 °C 6,4 km/h (2 Bft)
14.10.2018 20:57 16,1 °C 43 % 1012,1 hPa 0,0 mm 2,6 km/h (1 Bft) S-SO 161 ° 0 min 0,000 mm 0,0 UV-I 0 W/m² 3,5 °C 16,1 °C 3,2 km/h (1 Bft)
14.10.2018 20:58 16,2 °C 43 % 1012,1 hPa 0,0 mm 3,3 km/h (1 Bft) S-SO 161 ° 0 min 0,000 mm 0,0 UV-I 0 W/m² 3,6 °C 16,2 °C 6,4 km/h (2 Bft)
14.10.2018 20:59 16,1 °C 44 % 1012,1 hPa 0,0 mm 1,9 km/h (1 Bft) S-SO 161 ° 0 min 0,000 mm 0,0 UV-I 0 W/m² 3,8 °C 16,1 °C 3,2 km/h (1 Bft)
14.10.2018 21:00 16,2 °C 44 % 1012,1 hPa 0,0 mm 1,4 km/h (1 Bft) S-SO 167 ° 0 min 0,000 mm 0,0 UV-I 0 W/m² 3,9 °C 16,2 °C 6,4 km/h (2 Bft)
14.10.2018 21:01 16,0 °C 45 % 1012,2 hPa 0,0 mm 3,7 km/h (1 Bft) S 184 ° 0 min 0,051 mm 0,0 UV-I 0 W/m² 4,1 °C 16,0 °C 4,8 km/h (1 Bft)
14.10.2018 21:02 15,8 °C 47 % 1012,1 hPa 0,0 mm 3,0 km/h (1 Bft) S 184 ° 0 min 0,000 mm 0,0 UV-I 0 W/m² 4,5 °C 15,8 °C 4,8 km/h (1 Bft)
14.10.2018 21:03 15,6 °C 46 % 1012,1 hPa 0,0 mm 0,9 km/h (0 Bft) S 184 ° 0 min 0,000 mm 0,0 UV-I 0 W/m² 4,0 °C 15,6 °C 3,2 km/h (1 Bft)
14.10.2018 21:04 15,4 °C 48 % 1012,1 hPa 0,0 mm 1,4 km/h (1 Bft) S 184 ° 0 min 0,000 mm 0,0 UV-I 0 W/m² 4,4 °C 15,4 °C 3,2 km/h (1 Bft)
14.10.2018 21:05 15,4 °C 48 % 1012,0 hPa 0,0 mm 3,3 km/h (1 Bft) S 184 ° 0 min 0,000 mm 0,0 UV-I 0 W/m² 4,4 °C 15,4 °C 4,8 km/h (1 Bft)
14.10.2018 21:06 15,4 °C 47 % 1012,1 hPa 0,0 mm 2,6 km/h (1 Bft) S 184 ° 0 min 0,000 mm 0,0 UV-I 0 W/m² 4,1 °C 15,4 °C 4,8 km/h (1 Bft)
14.10.2018 21:07 15,4 °C 47 % 1012,1 hPa 0,0 mm 1,1 km/h (1 Bft) S 184 ° 0 min 0,000 mm 0,0 UV-I 0 W/m² 4,1 °C 15,4 °C 3,2 km/h (1 Bft)
14.10.2018 21:08 15,4 °C 47 % 1012,1 hPa 0,0 mm 0,0 km/h (0 Bft) S 184 ° 0 min 0,000 mm 0,0 UV-I 0 W/m² 4,1 °C 15,4 °C 0,0 km/h (0 Bft)
14.10.2018 21:09 15,2 °C 49 % 1012,1 hPa 0,0 mm 2,3 km/h (1 Bft) S 184 ° 0 min 0,000 mm 0,0 UV-I 0 W/m² 4,6 °C 15,2 °C 4,8 km/h (1 Bft)
14.10.2018 21:10 15,1 °C 50 % 1012,1 hPa 0,0 mm 2,9 km/h (1 Bft) S 184 ° 0 min 0,000 mm 0,0 UV-I 0 W/m² 4,8 °C 15,1 °C 4,8 km/h (1 Bft)
14.10.2018 21:11 15,0 °C 48 % 1012,1 hPa 0,0 mm 2,1 km/h (1 Bft) S 184 ° 0 min 0,000 mm 0,0 UV-I 0 W/m² 4,1 °C 15,0 °C 3,2 km/h (1 Bft)
14.10.2018 21:12 14,9 °C 48 % 1012,1 hPa 0,0 mm 1,5 km/h (1 Bft) S 184 ° 0 min 0,000 mm 0,0 UV-I 0 W/m² 4,0 °C 14,9 °C 4,8 km/h (1 Bft)
14.10.2018 21:13 14,9 °C 49 % 1012,1 hPa 0,0 mm 1,5 km/h (1 Bft) S 184 ° 0 min 0,000 mm 0,0 UV-I 0 W/m² 4,3 °C 14,9 °C 4,8 km/h (1 Bft)
14.10.2018 21:14 14,8 °C 49 % 1012,1 hPa 0,0 mm 3,4 km/h (1 Bft) S 184 ° 0 min 0,000 mm 0,0 UV-I 0 W/m² 4,2 °C 14,8 °C 4,8 km/h (1 Bft)
14.10.2018 21:15 14,7 °C 49 % 1012,1 hPa 0,0 mm 3,6 km/h (1 Bft) S 184 ° 0 min 0,000 mm 0,0 UV-I 0 W/m² 4,1 °C 14,7 °C 6,4 km/h (2 Bft)
14.10.2018 21:16 14,6 °C 50 % 1012,1 hPa 0,0 mm 4,6 km/h (1 Bft) S 184 ° 0 min 0,000 mm 0,0 UV-I 0 W/m² 4,3 °C 14,6 °C 6,4 km/h (2 Bft)
14.10.2018 21:17 14,6 °C 50 % 1012,1 hPa 0,0 mm 4,7 km/h (1 Bft) S 184 ° 0 min 0,000 mm 0,0 UV-I 0 W/m² 4,3 °C 14,6 °C 6,4 km/h (2 Bft)
14.10.2018 21:18 14,5 °C 50 % 1012,0 hPa 0,0 mm 6,4 km/h (2 Bft) S 184 ° 0 min 0,000 mm 0,0 UV-I 0 W/m² 4,2 °C 14,5 °C 8,0 km/h (2 Bft)
14.10.2018 21:19 14,4 °C 51 % 1012,0 hPa 0,0 mm 2,7 km/h (1 Bft) S 184 ° 0 min 0,000 mm 0,0 UV-I 0 W/m² 4,4 °C 14,4 °C 4,8 km/h (1 Bft)
14.10.2018 21:20 14,5 °C 49 % 1012,0 hPa 0,0 mm 3,8 km/h (1 Bft) S 184 ° 0 min 0,000 mm 0,0 UV-I 0 W/m² 3,9 °C 14,5 °C 6,4 km/h (2 Bft)
14.10.2018 21:21 14,5 °C 49 % 1012,0 hPa 0,0 mm 4,2 km/h (1 Bft) S 184 ° 0 min 0,000 mm 0,0 UV-I 0 W/m² 3,9 °C 14,5 °C 8,0 km/h (2 Bft)
14.10.2018 21:22 14,4 °C 50 % 1012,0 hPa 0,0 mm 4,8 km/h (1 Bft) S-SW 192 ° 0 min 0,000 mm 0,0 UV-I 0 W/m² 4,1 °C 14,4 °C 8,0 km/h (2 Bft)
14.10.2018 21:23 14,5 °C 49 % 1012,0 hPa 0,0 mm 5,1 km/h (1 Bft) S 171 ° 0 min 0,000 mm 0,0 UV-I 0 W/m² 3,9 °C 14,5 °C 9,7 km/h (2 Bft)
14.10.2018 21:24 14,8 °C 47 % 1012,1 hPa 0,0 mm 4,8 km/h (1 Bft) S-SW 197 ° 0 min 0,000 mm 0,0 UV-I 0 W/m² 3,6 °C 14,8 °C 8,0 km/h (2 Bft)
14.10.2018 21:25 14,9 °C 47 % 1012,1 hPa 0,0 mm 5,9 km/h (2 Bft) S-SO 158 ° 0 min 0,000 mm 0,0 UV-I 0 W/m² 3,7 °C 14,9 °C 11,3 km/h (2 Bft)
14.10.2018 21:26 15,0 °C 49 % 1012,0 hPa 0,0 mm 3,0 km/h (1 Bft) S 184 ° 0 min 0,000 mm 0,0 UV-I 0 W/m² 4,4 °C 15,0 °C 6,4 km/h (2 Bft)
14.10.2018 21:27 15,1 °C 47 % 1012,0 hPa 0,0 mm 2,1 km/h (1 Bft) S 184 ° 0 min 0,000 mm 0,0 UV-I 0 W/m² 3,9 °C 15,1 °C 3,2 km/h (1 Bft)
14.10.2018 21:28 15,1 °C 48 % 1012,0 hPa 0,0 mm 5,4 km/h (1 Bft) S 187 ° 0 min 0,000 mm 0,0 UV-I 0 W/m² 4,2 °C 15,1 °C 8,0 km/h (2 Bft)
14.10.2018 21:29 15,1 °C 48 % 1012,0 hPa 0,0 mm 4,5 km/h (1 Bft) S 187 ° 0 min 0,000 mm 0,0 UV-I 0 W/m² 4,2 °C 15,1 °C 6,4 km/h (2 Bft)
14.10.2018 21:30 14,9 °C 49 % 1012,0 hPa 0,0 mm 3,6 km/h (1 Bft) S 187 ° 0 min 0,000 mm 0,0 UV-I 0 W/m² 4,3 °C 14,9 °C 4,8 km/h (1 Bft)
14.10.2018 21:31 14,9 °C 48 % 1012,0 hPa 0,0 mm 4,0 km/h (1 Bft) S 188 ° 0 min 0,000 mm 0,0 UV-I 0 W/m² 4,0 °C 14,9 °C 6,4 km/h (2 Bft)
14.10.2018 21:32 14,9 °C 48 % 1012,1 hPa 0,0 mm 4,3 km/h (1 Bft) S 189 ° 0 min 0,000 mm 0,0 UV-I 0 W/m² 4,0 °C 14,9 °C 6,4 km/h (2 Bft)
14.10.2018 21:33 14,9 °C 48 % 1012,0 hPa 0,0 mm 4,0 km/h (1 Bft) S 189 ° 0 min 0,000 mm 0,0 UV-I 0 W/m² 4,0 °C 14,9 °C 6,4 km/h (2 Bft)
14.10.2018 21:34 14,9 °C 48 % 1012,0 hPa 0,0 mm 4,1 km/h (1 Bft) S 181 ° 0 min 0,000 mm 0,0 UV-I 0 W/m² 4,0 °C 14,9 °C 6,4 km/h (2 Bft)
14.10.2018 21:35 14,9 °C 49 % 1012,0 hPa 0,0 mm 1,3 km/h (1 Bft) S 181 ° 0 min 0,000 mm 0,0 UV-I 0 W/m² 4,3 °C 14,9 °C 3,2 km/h (1 Bft)
14.10.2018 21:36 14,8 °C 49 % 1012,1 hPa 0,0 mm 1,8 km/h (1 Bft) S 181 ° 0 min 0,000 mm 0,0 UV-I 0 W/m² 4,2 °C 14,8 °C 3,2 km/h (1 Bft)
14.10.2018 21:37 14,9 °C 48 % 1012,1 hPa 0,0 mm 1,2 km/h (1 Bft) S 181 ° 0 min 0,000 mm 0,0 UV-I 0 W/m² 4,0 °C 14,9 °C 3,2 km/h (1 Bft)
14.10.2018 21:38 15,0 °C 48 % 1012,1 hPa 0,0 mm 1,5 km/h (1 Bft) S 181 ° 0 min 0,000 mm 0,0 UV-I 0 W/m² 4,1 °C 15,0 °C 3,2 km/h (1 Bft)
14.10.2018 21:39 14,9 °C 48 % 1012,0 hPa 0,0 mm 2,0 km/h (1 Bft) S 181 ° 0 min 0,000 mm 0,0 UV-I 0 W/m² 4,0 °C 14,9 °C 3,2 km/h (1 Bft)
14.10.2018 21:40 14,9 °C 48 % 1012,1 hPa 0,0 mm 1,7 km/h (1 Bft) S 181 ° 0 min 0,000 mm 0,0 UV-I 0 W/m² 4,0 °C 14,9 °C 4,8 km/h (1 Bft)
14.10.2018 21:41 15,0 °C 48 % 1012,0 hPa 0,0 mm 4,7 km/h (1 Bft) S 181 ° 0 min 0,000 mm 0,0 UV-I 0 W/m² 4,1 °C 15,0 °C 8,0 km/h (2 Bft)
14.10.2018 21:42 14,9 °C 49 % 1012,1 hPa 0,0 mm 2,4 km/h (1 Bft) S 181 ° 0 min 0,000 mm 0,0 UV-I 0 W/m² 4,3 °C 14,9 °C 4,8 km/h (1 Bft)
14.10.2018 21:43 14,9 °C 49 % 1012,1 hPa 0,0 mm 0,1 km/h (0 Bft) S 181 ° 0 min 0,000 mm 0,0 UV-I 0 W/m² 4,3 °C 14,9 °C 1,6 km/h (1 Bft)
14.10.2018 21:44 14,9 °C 48 % 1012,1 hPa 0,0 mm 1,7 km/h (1 Bft) S 181 ° 0 min 0,000 mm 0,0 UV-I 0 W/m² 4,0 °C 14,9 °C 3,2 km/h (1 Bft)
14.10.2018 21:45 14,9 °C 47 % 1012,1 hPa 0,0 mm 1,1 km/h (1 Bft) S 181 ° 0 min 0,000 mm 0,0 UV-I 0 W/m² 3,7 °C 14,9 °C 4,8 km/h (1 Bft)
14.10.2018 21:46 14,9 °C 48 % 1012,1 hPa 0,0 mm 2,4 km/h (1 Bft) S 181 ° 0 min 0,000 mm 0,0 UV-I 0 W/m² 4,0 °C 14,9 °C 3,2 km/h (1 Bft)
14.10.2018 21:47 15,1 °C 46 % 1012,1 hPa 0,0 mm 1,6 km/h (1 Bft) S 181 ° 0 min 0,000 mm 0,0 UV-I 0 W/m² 3,6 °C 15,1 °C 3,2 km/h (1 Bft)
14.10.2018 21:48 15,2 °C 47 % 1012,1 hPa 0,0 mm 0,4 km/h (0 Bft) S 181 ° 0 min 0,000 mm 0,0 UV-I 0 W/m² 4,0 °C 15,2 °C 3,2 km/h (1 Bft)
14.10.2018 21:49 15,3 °C 46 % 1012,1 hPa 0,0 mm 0,0 km/h (0 Bft) S 181 ° 0 min 0,000 mm 0,0 UV-I 0 W/m² 3,8 °C 15,3 °C 0,0 km/h (0 Bft)
14.10.2018 21:50 15,3 °C 46 % 1012,1 hPa 0,0 mm 0,0 km/h (0 Bft) S 181 ° 0 min 0,000 mm 0,0 UV-I 0 W/m² 3,8 °C 15,3 °C 0,0 km/h (0 Bft)
14.10.2018 21:51 15,3 °C 47 % 1012,1 hPa 0,0 mm 0,8 km/h (0 Bft) S 181 ° 0 min 0,000 mm 0,0 UV-I 0 W/m² 4,1 °C 15,3 °C 3,2 km/h (1 Bft)
14.10.2018 21:52 15,1 °C 49 % 1012,2 hPa 0,0 mm 1,9 km/h (1 Bft) S 181 ° 0 min 0,000 mm 0,0 UV-I 0 W/m² 4,5 °C 15,1 °C 3,2 km/h (1 Bft)
14.10.2018 21:53 14,8 °C 49 % 1012,2 hPa 0,0 mm 0,1 km/h (0 Bft) S 181 ° 0 min 0,000 mm 0,0 UV-I 0 W/m² 4,2 °C 14,8 °C 1,6 km/h (1 Bft)
14.10.2018 21:54 14,7 °C 50 % 1012,2 hPa 0,0 mm 0,0 km/h (0 Bft) S 181 ° 0 min 0,000 mm 0,0 UV-I 0 W/m² 4,4 °C 14,7 °C 0,0 km/h (0 Bft)
14.10.2018 21:55 14,4 °C 50 % 1012,2 hPa 0,0 mm 1,2 km/h (1 Bft) S 181 ° 0 min 0,000 mm 0,0 UV-I 0 W/m² 4,1 °C 14,4 °C 3,2 km/h (1 Bft)
14.10.2018 21:56 14,1 °C 52 % 1012,2 hPa 0,0 mm 2,9 km/h (1 Bft) S 181 ° 0 min 0,000 mm 0,0 UV-I 0 W/m² 4,4 °C 14,1 °C 3,2 km/h (1 Bft)
14.10.2018 21:57 13,9 °C 52 % 1012,2 hPa 0,0 mm 0,2 km/h (0 Bft) S 181 ° 0 min 0,000 mm 0,0 UV-I 0 W/m² 4,2 °C 13,9 °C 1,6 km/h (1 Bft)
14.10.2018 21:58 13,8 °C 52 % 1012,1 hPa 0,0 mm 1,2 km/h (1 Bft) S 181 ° 0 min 0,000 mm 0,0 UV-I 0 W/m² 4,1 °C 13,8 °C 3,2 km/h (1 Bft)
14.10.2018 21:59 13,8 °C 51 % 1012,2 hPa 0,0 mm 1,9 km/h (1 Bft) S 181 ° 0 min 0,000 mm 0,0 UV-I 0 W/m² 3,8 °C 13,8 °C 3,2 km/h (1 Bft)
14.10.2018 22:00 13,9 °C 51 % 1012,2 hPa 0,0 mm 0,9 km/h (0 Bft) S 181 ° 0 min 0,051 mm 0,0 UV-I 0 W/m² 3,9 °C 13,9 °C 3,2 km/h (1 Bft)
14.10.2018 22:01 14,1 °C 50 % 1012,2 hPa 0,0 mm 4,0 km/h (1 Bft) S 181 ° 0 min 0,000 mm 0,0 UV-I 0 W/m² 3,8 °C 14,1 °C 6,4 km/h (2 Bft)
14.10.2018 22:02 14,2 °C 50 % 1012,2 hPa 0,0 mm 4,2 km/h (1 Bft) S 181 ° 0 min 0,000 mm 0,0 UV-I 0 W/m² 3,9 °C 14,2 °C 6,4 km/h (2 Bft)
14.10.2018 22:03 14,2 °C 50 % 1012,2 hPa 0,0 mm 3,3 km/h (1 Bft) S 181 ° 0 min 0,000 mm 0,0 UV-I 0 W/m² 3,9 °C 14,2 °C 4,8 km/h (1 Bft)
14.10.2018 22:04 14,2 °C 51 % 1012,2 hPa 0,0 mm 3,6 km/h (1 Bft) S 181 ° 0 min 0,000 mm 0,0 UV-I 0 W/m² 4,2 °C 14,2 °C 4,8 km/h (1 Bft)
14.10.2018 22:05 14,2 °C 50 % 1012,2 hPa 0,0 mm 4,4 km/h (1 Bft) S 181 ° 0 min 0,000 mm 0,0 UV-I 0 W/m² 3,9 °C 14,2 °C 4,8 km/h (1 Bft)
14.10.2018 22:06 14,2 °C 50 % 1012,2 hPa 0,0 mm 2,7 km/h (1 Bft) S 181 ° 0 min 0,000 mm 0,0 UV-I 0 W/m² 3,9 °C 14,2 °C 4,8 km/h (1 Bft)
14.10.2018 22:07 14,1 °C 51 % 1012,2 hPa 0,0 mm 3,1 km/h (1 Bft) S 181 ° 0 min 0,000 mm 0,0 UV-I 0 W/m² 4,1 °C 14,1 °C 6,4 km/h (2 Bft)
14.10.2018 22:08 14,1 °C 49 % 1012,2 hPa 0,0 mm 4,9 km/h (1 Bft) S 181 ° 0 min 0,000 mm 0,0 UV-I 0 W/m² 3,6 °C 14,1 °C 6,4 km/h (2 Bft)
14.10.2018 22:09 14,1 °C 49 % 1012,2 hPa 0,0 mm 3,3 km/h (1 Bft) S 181 ° 0 min 0,000 mm 0,0 UV-I 0 W/m² 3,6 °C 14,1 °C 4,8 km/h (1 Bft)
14.10.2018 22:10 14,1 °C 49 % 1012,1 hPa 0,0 mm 2,7 km/h (1 Bft) S 181 ° 0 min 0,000 mm 0,0 UV-I 0 W/m² 3,6 °C 14,1 °C 4,8 km/h (1 Bft)
14.10.2018 22:11 14,2 °C 49 % 1012,2 hPa 0,0 mm 4,0 km/h (1 Bft) S 181 ° 0 min 0,000 mm 0,0 UV-I 0 W/m² 3,6 °C 14,2 °C 4,8 km/h (1 Bft)
14.10.2018 22:12 14,2 °C 49 % 1012,1 hPa 0,0 mm 3,4 km/h (1 Bft) S 181 ° 0 min 0,000 mm 0,0 UV-I 0 W/m² 3,6 °C 14,2 °C 6,4 km/h (2 Bft)
14.10.2018 22:13 14,3 °C 50 % 1012,1 hPa 0,0 mm 3,6 km/h (1 Bft) S 181 ° 0 min 0,000 mm 0,0 UV-I 0 W/m² 4,0 °C 14,3 °C 4,8 km/h (1 Bft)
14.10.2018 22:14 14,3 °C 49 % 1012,1 hPa 0,0 mm 3,9 km/h (1 Bft) S 181 ° 0 min 0,000 mm 0,0 UV-I 0 W/m² 3,7 °C 14,3 °C 4,8 km/h (1 Bft)
14.10.2018 22:15 14,3 °C 49 % 1012,2 hPa 0,0 mm 4,6 km/h (1 Bft) S 181 ° 0 min 0,000 mm 0,0 UV-I 0 W/m² 3,7 °C 14,3 °C 4,8 km/h (1 Bft)
14.10.2018 22:16 14,3 °C 48 % 1012,2 hPa 0,0 mm 4,4 km/h (1 Bft) S 181 ° 0 min 0,000 mm 0,0 UV-I 0 W/m² 3,4 °C 14,3 °C 4,8 km/h (1 Bft)
14.10.2018 22:17 14,3 °C 48 % 1012,2 hPa 0,0 mm 3,5 km/h (1 Bft) S 181 ° 0 min 0,000 mm 0,0 UV-I 0 W/m² 3,4 °C 14,3 °C 4,8 km/h (1 Bft)
14.10.2018 22:18 14,3 °C 49 % 1012,2 hPa 0,0 mm 3,6 km/h (1 Bft) S 181 ° 0 min 0,000 mm 0,0 UV-I 0 W/m² 3,7 °C 14,3 °C 6,4 km/h (2 Bft)
14.10.2018 22:19 14,0 °C 52 % 1012,2 hPa 0,0 mm 1,7 km/h (1 Bft) S 181 ° 0 min 0,000 mm 0,0 UV-I 0 W/m² 4,3 °C 14,0 °C 3,2 km/h (1 Bft)
14.10.2018 22:20 13,7 °C 54 % 1012,2 hPa 0,0 mm 1,0 km/h (0 Bft) S 181 ° 0 min 0,000 mm 0,0 UV-I 0 W/m² 4,6 °C 13,7 °C 3,2 km/h (1 Bft)
14.10.2018 22:21 13,4 °C 55 % 1012,2 hPa 0,0 mm 2,8 km/h (1 Bft) S 181 ° 0 min 0,000 mm 0,0 UV-I 0 W/m² 4,5 °C 13,4 °C 3,2 km/h (1 Bft)
14.10.2018 22:22 13,2 °C 54 % 1012,1 hPa 0,0 mm 2,7 km/h (1 Bft) S 181 ° 0 min 0,000 mm 0,0 UV-I 0 W/m² 4,1 °C 13,2 °C 4,8 km/h (1 Bft)
14.10.2018 22:23 13,2 °C 52 % 1012,2 hPa 0,0 mm 1,1 km/h (1 Bft) S 181 ° 0 min 0,000 mm 0,0 UV-I 0 W/m² 3,6 °C 13,2 °C 3,2 km/h (1 Bft)
14.10.2018 22:24 13,1 °C 54 % 1012,2 hPa 0,0 mm 0,7 km/h (0 Bft) S 181 ° 0 min 0,000 mm 0,0 UV-I 0 W/m² 4,0 °C 13,1 °C 1,6 km/h (1 Bft)
14.10.2018 22:25 12,9 °C 55 % 1012,2 hPa 0,0 mm 0,0 km/h (0 Bft) S 181 ° 0 min 0,000 mm 0,0 UV-I 0 W/m² 4,1 °C 12,9 °C 0,0 km/h (0 Bft)
14.10.2018 22:26 12,8 °C 54 % 1012,2 hPa 0,0 mm 2,2 km/h (1 Bft) S 181 ° 0 min 0,000 mm 0,0 UV-I 0 W/m² 3,7 °C 12,8 °C 4,8 km/h (1 Bft)
14.10.2018 22:27 12,8 °C 53 % 1012,2 hPa 0,0 mm 0,2 km/h (0 Bft) S 181 ° 0 min 0,000 mm 0,0 UV-I 0 W/m² 3,5 °C 12,8 °C 1,6 km/h (1 Bft)
14.10.2018 22:28 12,9 °C 56 % 1012,2 hPa 0,0 mm 1,2 km/h (1 Bft) S 181 ° 0 min 0,000 mm 0,0 UV-I 0 W/m² 4,3 °C 12,9 °C 3,2 km/h (1 Bft)
14.10.2018 22:29 12,9 °C 56 % 1012,2 hPa 0,0 mm 1,9 km/h (1 Bft) S 181 ° 0 min 0,000 mm 0,0 UV-I 0 W/m² 4,3 °C 12,9 °C 3,2 km/h (1 Bft)
14.10.2018 22:30 12,8 °C 56 % 1012,2 hPa 0,0 mm 0,6 km/h (0 Bft) S 181 ° 0 min 0,000 mm 0,0 UV-I 0 W/m² 4,2 °C 12,8 °C 1,6 km/h (1 Bft)
14.10.2018 22:31 12,9 °C 53 % 1012,2 hPa 0,0 mm 0,0 km/h (0 Bft) S 181 ° 0 min 0,000 mm 0,0 UV-I 0 W/m² 3,6 °C 12,9 °C 0,0 km/h (0 Bft)
14.10.2018 22:32 13,1 °C 53 % 1012,2 hPa 0,0 mm 1,1 km/h (1 Bft) S 181 ° 0 min 0,000 mm 0,0 UV-I 0 W/m² 3,7 °C 13,1 °C 3,2 km/h (1 Bft)
14.10.2018 22:33 13,3 °C 53 % 1012,2 hPa 0,0 mm 3,6 km/h (1 Bft) S 182 ° 0 min 0,000 mm 0,0 UV-I 0 W/m² 3,9 °C 13,3 °C 6,4 km/h (2 Bft)
14.10.2018 22:34 13,2 °C 54 % 1012,2 hPa 0,0 mm 4,6 km/h (1 Bft) S 182 ° 0 min 0,000 mm 0,0 UV-I 0 W/m² 4,1 °C 13,2 °C 6,4 km/h (2 Bft)
14.10.2018 22:35 13,1 °C 54 % 1012,3 hPa 0,0 mm 3,5 km/h (1 Bft) S 182 ° 0 min 0,000 mm 0,0 UV-I 0 W/m² 4,0 °C 13,1 °C 4,8 km/h (1 Bft)
14.10.2018 22:36 12,8 °C 55 % 1012,3 hPa 0,0 mm 3,5 km/h (1 Bft) S 182 ° 0 min 0,000 mm 0,0 UV-I 0 W/m² 4,0 °C 12,8 °C 4,8 km/h (1 Bft)
14.10.2018 22:37 12,6 °C 57 % 1012,2 hPa 0,0 mm 4,6 km/h (1 Bft) S 182 ° 0 min 0,000 mm 0,0 UV-I 0 W/m² 4,3 °C 12,6 °C 6,4 km/h (2 Bft)
14.10.2018 22:38 12,4 °C 57 % 1012,2 hPa 0,0 mm 3,0 km/h (1 Bft) S 182 ° 0 min 0,000 mm 0,0 UV-I 0 W/m² 4,1 °C 12,4 °C 6,4 km/h (2 Bft)
14.10.2018 22:39 12,4 °C 57 % 1012,2 hPa 0,0 mm 0,7 km/h (0 Bft) S 182 ° 0 min 0,000 mm 0,0 UV-I 0 W/m² 4,1 °C 12,4 °C 3,2 km/h (1 Bft)
14.10.2018 22:40 12,4 °C 57 % 1012,2 hPa 0,0 mm 4,0 km/h (1 Bft) S 182 ° 0 min 0,000 mm 0,0 UV-I 0 W/m² 4,1 °C 12,4 °C 4,8 km/h (1 Bft)
14.10.2018 22:41 12,4 °C 57 % 1012,2 hPa 0,0 mm 5,6 km/h (1 Bft) S 190 ° 0 min 0,000 mm 0,0 UV-I 0 W/m² 4,1 °C 12,4 °C 6,4 km/h (2 Bft)
14.10.2018 22:42 12,4 °C 56 % 1012,2 hPa 0,0 mm 5,7 km/h (1 Bft) S-SW 192 ° 0 min 0,000 mm 0,0 UV-I 0 W/m² 3,9 °C 12,4 °C 8,0 km/h (2 Bft)
14.10.2018 22:43 12,4 °C 56 % 1012,1 hPa 0,0 mm 3,8 km/h (1 Bft) S-SW 192 ° 0 min 0,000 mm 0,0 UV-I 0 W/m² 3,9 °C 12,4 °C 4,8 km/h (1 Bft)
14.10.2018 22:44 12,4 °C 55 % 1012,1 hPa 0,0 mm 2,9 km/h (1 Bft) S-SW 192 ° 0 min 0,000 mm 0,0 UV-I 0 W/m² 3,6 °C 12,4 °C 4,8 km/h (1 Bft)
14.10.2018 22:45 12,4 °C 55 % 1012,2 hPa 0,0 mm 4,3 km/h (1 Bft) S-SW 192 ° 0 min 0,000 mm 0,0 UV-I 0 W/m² 3,6 °C 12,4 °C 6,4 km/h (2 Bft)
14.10.2018 22:46 12,4 °C 56 % 1012,1 hPa 0,0 mm 1,3 km/h (1 Bft) S-SW 192 ° 0 min 0,000 mm 0,0 UV-I 0 W/m² 3,9 °C 12,4 °C 3,2 km/h (1 Bft)
14.10.2018 22:47 12,5 °C 55 % 1012,1 hPa 0,0 mm 0,9 km/h (0 Bft) S-SW 192 ° 0 min 0,000 mm 0,0 UV-I 0 W/m² 3,7 °C 12,5 °C 1,6 km/h (1 Bft)
14.10.2018 22:48 12,7 °C 55 % 1012,1 hPa 0,0 mm 2,8 km/h (1 Bft) S 171 ° 0 min 0,000 mm 0,0 UV-I 0 W/m² 3,9 °C 12,7 °C 3,2 km/h (1 Bft)
14.10.2018 22:49 12,8 °C 54 % 1012,1 hPa 0,0 mm 1,5 km/h (1 Bft) S 171 ° 0 min 0,000 mm 0,0 UV-I 0 W/m² 3,7 °C 12,8 °C 3,2 km/h (1 Bft)
14.10.2018 22:50 12,9 °C 54 % 1012,1 hPa 0,0 mm 0,8 km/h (0 Bft) S 171 ° 0 min 0,000 mm 0,0 UV-I 0 W/m² 3,8 °C 12,9 °C 1,6 km/h (1 Bft)
14.10.2018 22:51 12,9 °C 55 % 1012,2 hPa 0,0 mm 0,5 km/h (0 Bft) S 171 ° 0 min 0,000 mm 0,0 UV-I 0 W/m² 4,1 °C 12,9 °C 3,2 km/h (1 Bft)
14.10.2018 22:52 12,8 °C 54 % 1012,1 hPa 0,0 mm 0,0 km/h (0 Bft) S 171 ° 0 min 0,000 mm 0,0 UV-I 0 W/m² 3,7 °C 12,8 °C 0,0 km/h (0 Bft)
14.10.2018 22:53 12,7 °C 56 % 1012,1 hPa 0,0 mm 0,0 km/h (0 Bft) S 171 ° 0 min 0,000 mm 0,0 UV-I 0 W/m² 4,2 °C 12,7 °C 0,0 km/h (0 Bft)
14.10.2018 22:54 12,6 °C 56 % 1012,1 hPa 0,0 mm 0,0 km/h (0 Bft) S 171 ° 0 min 0,000 mm 0,0 UV-I 0 W/m² 4,1 °C 12,6 °C 0,0 km/h (0 Bft)
14.10.2018 22:55 12,5 °C 55 % 1012,1 hPa 0,0 mm 0,0 km/h (0 Bft) S 171 ° 0 min 0,000 mm 0,0 UV-I 0 W/m² 3,7 °C 12,5 °C 0,0 km/h (0 Bft)
14.10.2018 22:56 12,6 °C 55 % 1012,1 hPa 0,0 mm 0,0 km/h (0 Bft) S 171 ° 0 min 0,000 mm 0,0 UV-I 0 W/m² 3,8 °C 12,6 °C 0,0 km/h (0 Bft)
14.10.2018 22:57 12,7 °C 54 % 1012,1 hPa 0,0 mm 1,2 km/h (1 Bft) S 171 ° 0 min 0,000 mm 0,0 UV-I 0 W/m² 3,6 °C 12,7 °C 1,6 km/h (1 Bft)
14.10.2018 22:58 12,8 °C 54 % 1012,1 hPa 0,0 mm 0,0 km/h (0 Bft) S 171 ° 0 min 0,000 mm 0,0 UV-I 0 W/m² 3,7 °C 12,8 °C 0,0 km/h (0 Bft)
14.10.2018 22:59 13,1 °C 53 % 1012,1 hPa 0,0 mm 0,0 km/h (0 Bft) S 171 ° 0 min 0,000 mm 0,0 UV-I 0 W/m² 3,7 °C 13,1 °C 0,0 km/h (0 Bft)
14.10.2018 23:00 13,3 °C 52 % 1012,1 hPa 0,0 mm 0,0 km/h (0 Bft) S 171 ° 0 min 0,000 mm 0,0 UV-I 0 W/m² 3,7 °C 13,3 °C 0,0 km/h (0 Bft)
14.10.2018 23:01 13,3 °C 52 % 1012,1 hPa 0,0 mm 0,0 km/h (0 Bft) S 171 ° 0 min 0,050 mm 0,0 UV-I 0 W/m² 3,7 °C 13,3 °C 0,0 km/h (0 Bft)
14.10.2018 23:02 13,3 °C 52 % 1012,1 hPa 0,0 mm 0,0 km/h (0 Bft) S 171 ° 0 min 0,000 mm 0,0 UV-I 0 W/m² 3,7 °C 13,3 °C 0,0 km/h (0 Bft)
14.10.2018 23:03 13,3 °C 52 % 1012,1 hPa 0,0 mm 0,3 km/h (0 Bft) S 171 ° 0 min 0,000 mm 0,0 UV-I 0 W/m² 3,7 °C 13,3 °C 1,6 km/h (1 Bft)
14.10.2018 23:04 13,2 °C 53 % 1012,1 hPa 0,0 mm 1,1 km/h (1 Bft) S 171 ° 0 min 0,000 mm 0,0 UV-I 0 W/m² 3,8 °C 13,2 °C 3,2 km/h (1 Bft)
14.10.2018 23:05 13,2 °C 54 % 1012,1 hPa 0,0 mm 0,9 km/h (0 Bft) S 171 ° 0 min 0,000 mm 0,0 UV-I 0 W/m² 4,1 °C 13,2 °C 1,6 km/h (1 Bft)
14.10.2018 23:06 13,2 °C 54 % 1012,1 hPa 0,0 mm 1,0 km/h (0 Bft) S 171 ° 0 min 0,000 mm 0,0 UV-I 0 W/m² 4,1 °C 13,2 °C 3,2 km/h (1 Bft)
14.10.2018 23:07 13,2 °C 54 % 1012,2 hPa 0,0 mm 1,3 km/h (1 Bft) S 171 ° 0 min 0,000 mm 0,0 UV-I 0 W/m² 4,1 °C 13,2 °C 3,2 km/h (1 Bft)
14.10.2018 23:08 13,2 °C 52 % 1012,1 hPa 0,0 mm 0,0 km/h (0 Bft) S 171 ° 0 min 0,000 mm 0,0 UV-I 0 W/m² 3,6 °C 13,2 °C 0,0 km/h (0 Bft)
14.10.2018 23:09 13,2 °C 52 % 1012,2 hPa 0,0 mm 0,0 km/h (0 Bft) S 171 ° 0 min 0,000 mm 0,0 UV-I 0 W/m² 3,6 °C 13,2 °C 0,0 km/h (0 Bft)
14.10.2018 23:10 13,3 °C 52 % 1012,1 hPa 0,0 mm 0,0 km/h (0 Bft) S 171 ° 0 min 0,000 mm 0,0 UV-I 0 W/m² 3,7 °C 13,3 °C 0,0 km/h (0 Bft)
14.10.2018 23:11 13,4 °C 53 % 1012,1 hPa 0,0 mm 0,0 km/h (0 Bft) S 171 ° 0 min 0,000 mm 0,0 UV-I 0 W/m² 4,0 °C 13,4 °C 0,0 km/h (0 Bft)
14.10.2018 23:12 13,4 °C 52 % 1012,1 hPa 0,0 mm 0,0 km/h (0 Bft) S 171 ° 0 min 0,000 mm 0,0 UV-I 0 W/m² 3,7 °C 13,4 °C 0,0 km/h (0 Bft)
14.10.2018 23:13 13,4 °C 51 % 1012,1 hPa 0,0 mm 0,0 km/h (0 Bft) S 171 ° 0 min 0,000 mm 0,0 UV-I 0 W/m² 3,5 °C 13,4 °C 0,0 km/h (0 Bft)
14.10.2018 23:14 13,4 °C 51 % 1012,1 hPa 0,0 mm 0,0 km/h (0 Bft) S 171 ° 0 min 0,000 mm 0,0 UV-I 0 W/m² 3,5 °C 13,4 °C 0,0 km/h (0 Bft)
14.10.2018 23:15 13,6 °C 52 % 1012,1 hPa 0,0 mm 0,0 km/h (0 Bft) S 171 ° 0 min 0,000 mm 0,0 UV-I 0 W/m² 3,9 °C 13,6 °C 0,0 km/h (0 Bft)
14.10.2018 23:16 13,6 °C 53 % 1012,1 hPa 0,0 mm 0,0 km/h (0 Bft) S 171 ° 0 min 0,000 mm 0,0 UV-I 0 W/m² 4,2 °C 13,6 °C 0,0 km/h (0 Bft)
14.10.2018 23:17 13,6 °C 53 % 1012,1 hPa 0,0 mm 0,0 km/h (0 Bft) S 171 ° 0 min 0,000 mm 0,0 UV-I 0 W/m² 4,2 °C 13,6 °C 0,0 km/h (0 Bft)
14.10.2018 23:18 13,6 °C 51 % 1012,1 hPa 0,0 mm 0,0 km/h (0 Bft) S 171 ° 0 min 0,000 mm 0,0 UV-I 0 W/m² 3,7 °C 13,6 °C 0,0 km/h (0 Bft)
14.10.2018 23:19 13,7 °C 50 % 1012,1 hPa 0,0 mm 0,0 km/h (0 Bft) S 171 ° 0 min 0,000 mm 0,0 UV-I 0 W/m² 3,5 °C 13,7 °C 0,0 km/h (0 Bft)
14.10.2018 23:20 13,8 °C 51 % 1012,2 hPa 0,0 mm 0,0 km/h (0 Bft) S 171 ° 0 min 0,000 mm 0,0 UV-I 0 W/m² 3,8 °C 13,8 °C 0,0 km/h (0 Bft)
14.10.2018 23:21 13,8 °C 50 % 1012,1 hPa 0,0 mm 0,0 km/h (0 Bft) S 171 ° 0 min 0,000 mm 0,0 UV-I 0 W/m² 3,6 °C 13,8 °C 0,0 km/h (0 Bft)
14.10.2018 23:22 13,7 °C 51 % 1012,1 hPa 0,0 mm 0,0 km/h (0 Bft) S 171 ° 0 min 0,000 mm 0,0 UV-I 0 W/m² 3,8 °C 13,7 °C 0,0 km/h (0 Bft)
14.10.2018 23:23 13,7 °C 53 % 1012,1 hPa 0,0 mm 0,7 km/h (0 Bft) S 171 ° 0 min 0,000 mm 0,0 UV-I 0 W/m² 4,3 °C 13,7 °C 3,2 km/h (1 Bft)
14.10.2018 23:24 13,7 °C 53 % 1012,2 hPa 0,0 mm 0,3 km/h (0 Bft) S 171 ° 0 min 0,000 mm 0,0 UV-I 0 W/m² 4,3 °C 13,7 °C 1,6 km/h (1 Bft)
14.10.2018 23:25 13,6 °C 52 % 1012,1 hPa 0,0 mm 0,0 km/h (0 Bft) S 171 ° 0 min 0,000 mm 0,0 UV-I 0 W/m² 3,9 °C 13,6 °C 0,0 km/h (0 Bft)
14.10.2018 23:26 13,6 °C 51 % 1012,2 hPa 0,0 mm 0,0 km/h (0 Bft) S 171 ° 0 min 0,000 mm 0,0 UV-I 0 W/m² 3,7 °C 13,6 °C 0,0 km/h (0 Bft)
14.10.2018 23:27 13,6 °C 52 % 1012,2 hPa 0,0 mm 0,0 km/h (0 Bft) S 171 ° 0 min 0,000 mm 0,0 UV-I 0 W/m² 3,9 °C 13,6 °C 0,0 km/h (0 Bft)
14.10.2018 23:28 13,5 °C 51 % 1012,1 hPa 0,0 mm 0,1 km/h (0 Bft) S 171 ° 0 min 0,000 mm 0,0 UV-I 0 W/m² 3,6 °C 13,5 °C 1,6 km/h (1 Bft)
14.10.2018 23:29 13,5 °C 50 % 1012,2 hPa 0,0 mm 0,0 km/h (0 Bft) S 171 ° 0 min 0,000 mm 0,0 UV-I 0 W/m² 3,3 °C 13,5 °C 0,0 km/h (0 Bft)
14.10.2018 23:30 13,6 °C 52 % 1012,2 hPa 0,0 mm 0,0 km/h (0 Bft) S 171 ° 0 min 0,000 mm 0,0 UV-I 0 W/m² 3,9 °C 13,6 °C 0,0 km/h (0 Bft)
14.10.2018 23:31 13,5 °C 53 % 1012,2 hPa 0,0 mm 0,0 km/h (0 Bft) S 171 ° 0 min 0,000 mm 0,0 UV-I 0 W/m² 4,1 °C 13,5 °C 0,0 km/h (0 Bft)
14.10.2018 23:32 13,5 °C 53 % 1012,2 hPa 0,0 mm 0,0 km/h (0 Bft) S 171 ° 0 min 0,000 mm 0,0 UV-I 0 W/m² 4,1 °C 13,5 °C 0,0 km/h (0 Bft)
14.10.2018 23:33 13,6 °C 52 % 1012,2 hPa 0,0 mm 0,0 km/h (0 Bft) S 171 ° 0 min 0,000 mm 0,0 UV-I 0 W/m² 3,9 °C 13,6 °C 0,0 km/h (0 Bft)
14.10.2018 23:34 13,5 °C 51 % 1012,2 hPa 0,0 mm 0,0 km/h (0 Bft) S 171 ° 0 min 0,000 mm 0,0 UV-I 0 W/m² 3,6 °C 13,5 °C 0,0 km/h (0 Bft)
14.10.2018 23:35 13,6 °C 52 % 1012,2 hPa 0,0 mm 0,0 km/h (0 Bft) S 171 ° 0 min 0,000 mm 0,0 UV-I 0 W/m² 3,9 °C 13,6 °C 0,0 km/h (0 Bft)
14.10.2018 23:36 13,5 °C 56 % 1012,1 hPa 0,0 mm 0,0 km/h (0 Bft) S 171 ° 0 min 0,000 mm 0,0 UV-I 0 W/m² 4,9 °C 13,5 °C 0,0 km/h (0 Bft)
14.10.2018 23:37 13,3 °C 53 % 1012,2 hPa 0,0 mm 0,0 km/h (0 Bft) S 171 ° 0 min 0,000 mm 0,0 UV-I 0 W/m² 3,9 °C 13,3 °C 0,0 km/h (0 Bft)
14.10.2018 23:38 13,3 °C 52 % 1012,2 hPa 0,0 mm 0,0 km/h (0 Bft) S 171 ° 0 min 0,000 mm 0,0 UV-I 0 W/m² 3,7 °C 13,3 °C 0,0 km/h (0 Bft)
14.10.2018 23:39 13,4 °C 51 % 1012,2 hPa 0,0 mm 0,0 km/h (0 Bft) S 171 ° 0 min 0,000 mm 0,0 UV-I 0 W/m² 3,5 °C 13,4 °C 0,0 km/h (0 Bft)
14.10.2018 23:40 13,3 °C 53 % 1012,2 hPa 0,0 mm 0,0 km/h (0 Bft) S 171 ° 0 min 0,000 mm 0,0 UV-I 0 W/m² 3,9 °C 13,3 °C 0,0 km/h (0 Bft)
14.10.2018 23:41 13,1 °C 53 % 1012,1 hPa 0,0 mm 0,0 km/h (0 Bft) S 171 ° 0 min 0,000 mm 0,0 UV-I 0 W/m² 3,7 °C 13,1 °C 0,0 km/h (0 Bft)
14.10.2018 23:42 12,8 °C 56 % 1012,2 hPa 0,0 mm 0,0 km/h (0 Bft) S 171 ° 0 min 0,000 mm 0,0 UV-I 0 W/m² 4,2 °C 12,8 °C 0,0 km/h (0 Bft)
14.10.2018 23:43 12,6 °C 57 % 1012,1 hPa 0,0 mm 0,0 km/h (0 Bft) S 171 ° 0 min 0,000 mm 0,0 UV-I 0 W/m² 4,3 °C 12,6 °C 0,0 km/h (0 Bft)
14.10.2018 23:44 12,6 °C 55 % 1012,1 hPa 0,0 mm 0,0 km/h (0 Bft) S 171 ° 0 min 0,000 mm 0,0 UV-I 0 W/m² 3,8 °C 12,6 °C 0,0 km/h (0 Bft)
14.10.2018 23:45 12,6 °C 54 % 1012,1 hPa 0,0 mm 0,0 km/h (0 Bft) S 171 ° 0 min 0,000 mm 0,0 UV-I 0 W/m² 3,5 °C 12,6 °C 0,0 km/h (0 Bft)
14.10.2018 23:46 12,8 °C 55 % 1012,1 hPa 0,0 mm 0,0 km/h (0 Bft) S 171 ° 0 min 0,000 mm 0,0 UV-I 0 W/m² 4,0 °C 12,8 °C 0,0 km/h (0 Bft)
14.10.2018 23:47 12,9 °C 53 % 1012,1 hPa 0,0 mm 0,0 km/h (0 Bft) S 171 ° 0 min 0,000 mm 0,0 UV-I 0 W/m² 3,6 °C 12,9 °C 0,0 km/h (0 Bft)
14.10.2018 23:48 13,1 °C 53 % 1012,1 hPa 0,0 mm 0,0 km/h (0 Bft) S 171 ° 0 min 0,000 mm 0,0 UV-I 0 W/m² 3,7 °C 13,1 °C 0,0 km/h (0 Bft)
14.10.2018 23:49 13,2 °C 54 % 1012,1 hPa 0,0 mm 0,0 km/h (0 Bft) S 171 ° 0 min 0,000 mm 0,0 UV-I 0 W/m² 4,1 °C 13,2 °C 0,0 km/h (0 Bft)
14.10.2018 23:50 13,2 °C 54 % 1012,1 hPa 0,0 mm 0,0 km/h (0 Bft) S 171 ° 0 min 0,000 mm 0,0 UV-I 0 W/m² 4,1 °C 13,2 °C 0,0 km/h (0 Bft)
14.10.2018 23:51 13,1 °C 54 % 1012,1 hPa 0,0 mm 0,0 km/h (0 Bft) S 171 ° 0 min 0,000 mm 0,0 UV-I 0 W/m² 4,0 °C 13,1 °C 0,0 km/h (0 Bft)
14.10.2018 23:52 12,9 °C 54 % 1012,1 hPa 0,0 mm 0,0 km/h (0 Bft) S 171 ° 0 min 0,000 mm 0,0 UV-I 0 W/m² 3,8 °C 12,9 °C 0,0 km/h (0 Bft)
14.10.2018 23:53 12,9 °C 53 % 1012,1 hPa 0,0 mm 0,0 km/h (0 Bft) S 171 ° 0 min 0,000 mm 0,0 UV-I 0 W/m² 3,6 °C 12,9 °C 0,0 km/h (0 Bft)
14.10.2018 23:54 12,9 °C 52 % 1012,1 hPa 0,0 mm 1,4 km/h (1 Bft) S 171 ° 0 min 0,000 mm 0,0 UV-I 0 W/m² 3,3 °C 12,9 °C 3,2 km/h (1 Bft)
14.10.2018 23:55 13,0 °C 51 % 1012,1 hPa 0,0 mm 0,1 km/h (0 Bft) S 171 ° 0 min 0,000 mm 0,0 UV-I 0 W/m² 3,1 °C 13,0 °C 1,6 km/h (1 Bft)
14.10.2018 23:56 13,0 °C 53 % 1012,1 hPa 0,0 mm 0,0 km/h (0 Bft) S 171 ° 0 min 0,000 mm 0,0 UV-I 0 W/m² 3,6 °C 13,0 °C 0,0 km/h (0 Bft)
14.10.2018 23:57 12,9 °C 54 % 1012,1 hPa 0,0 mm 0,0 km/h (0 Bft) S 171 ° 0 min 0,000 mm 0,0 UV-I 0 W/m² 3,8 °C 12,9 °C 0,0 km/h (0 Bft)
14.10.2018 23:58 12,9 °C 53 % 1012,1 hPa 0,0 mm 0,0 km/h (0 Bft) S 171 ° 0 min 0,000 mm 0,0 UV-I 0 W/m² 3,6 °C 12,9 °C 0,0 km/h (0 Bft)
14.10.2018 23:59 12,9 °C 54 % 1012,1 hPa 0,0 mm 0,0 km/h (0 Bft) S 171 ° 0 min 0,000 mm 0,0 UV-I 0 W/m² 3,8 °C 12,9 °C 0,0 km/h (0 Bft)
_ Min-Zeit 07:18 15:52 17:52 - 23:59 - - - - - - 06:55 07:18 23:59
Minimum _ 4,3 °C 28 % 1010,8 hPa - 0,0 km/h (0 Bft) - - - - - - 2,6 °C 4,3 °C 0,0 km/h (0 Bft)
_ Max-Zeit 14:31 02:46 00:29 23:59 12:29 - - 23:59 14:01 13:28 13:13 14:19 15:29 17:51
Maximum _ 22,4 °C 92 % 1016,1 hPa 0,0 mm 8,1 km/h
O (2 Bft)
- - 0 min 0,356 mm 3,4 UV-I 580 W/m² 8,5 °C 22,3 °C 14,5 km/h
O-NO (3 Bft)
Durchschnitt _ 13,5 °C 60 % 1013,3 hPa #0,0 mm 1,0 km/h (0 Bft) S - #0 min. #1,930 mm 2,7 UV-I 109 W/m² 4,8 °C 13,5 °C 2,3 km/h (1 Bft)